[[{"header":{"parameterUnit":"m.s-1","parameterCategory":1,"la1":30.6,"la2":28.766,"lo1":-90.7593,"lo2":-88.6598,"dy":0.0162,"dx":0.0183,"nx":116,"ny":114,"refTime":"2023-07-12T12:00:00:Z","depth":0,"parameterNumber":2,"parameterNumberName":"U-component_of_WINDS"},"data":[0.0,0.0,0.0,0.0,0.0,0.0,0.0,0.0,0.0,0.0,0.0,0.0,0.0,0.0,0.0,0.0,0.0,0.0,0.0,0.0,0.0,0.0,0.0,0.0,0.0,0.0,0.0,0.0,0.0,0.0,0.0,0.0,0.0,0.0,0.0,0.0,0.0,0.0,0.0,0.0,0.0,0.0,0.0,0.0,0.0,0.0,0.0,0.0,0.0,0.0,0.0,0.0,0.0,0.0,0.0,0.0,0.0,0.0,0.0,0.0,0.0,0.0,0.0,0.0,0.0,0.0,0.0,0.0,0.0,0.0,0.0,0.0,0.0,0.0,0.0,0.0,0.0,0.0,0.0,0.0,0.0,0.0,0.0,0.0,0.0,0.0,0.0,0.0,0.0,0.0,0.0,0.0,0.0,0.0,0.0,0.0,0.0,0.0,0.0,0.0,0.0,0.0,0.0,0.0,0.0,0.0,0.0,0.0,0.0,0.0,0.0,0.0,0.0,0.0,0.0,0.0,0.0,0.0,0.0,0.0,0.0,0.0,0.0,0.0,0.0,0.0,0.0,0.0,0.0,0.0,0.0,0.0,0.0,0.0,0.0,0.0,0.0,0.0,0.0,0.0,0.0,0.0,0.0,0.0,0.0,0.0,0.0,0.0,0.0,0.0,0.0,0.0,0.0,0.0,0.0,0.0,0.0,0.0,0.0,0.0,0.0,0.0,0.0,0.0,0.0,0.0,0.0,0.0,0.0,0.0,0.0,0.0,0.0,0.0,0.0,0.0,0.0,0.0,0.0,0.0,0.0,0.0,0.0,0.0,0.0,0.0,0.0,0.0,0.0,0.0,0.0,0.0,0.0,0.0,0.0,0.0,0.0,0.0,0.0,0.0,0.0,0.0,0.0,0.0,0.0,0.0,0.0,0.0,0.0,0.0,0.0,0.0,0.0,0.0,0.0,0.0,0.0,0.0,0.0,0.0,0.0,0.0,0.0,0.0,0.0,0.0,0.0,0.0,0.0,0.0,0.0,0.0,0.0,0.0,0.0,0.0,0.0,0.0,0.0,0.0,0.0,0.0,0.0,0.0,0.0,0.0,0.0,0.0,0.0,0.0,0.0,0.0,0.0,0.0,0.0,0.0,0.0,0.0,0.0,0.0,0.0,0.0,0.0,0.0,0.0,0.0,0.0,0.0,0.0,0.0,0.0,0.0,0.0,0.0,0.0,0.0,0.0,0.0,0.0,0.0,0.0,0.0,0.0,0.0,0.0,0.0,0.0,0.0,0.0,0.0,0.0,0.0,0.0,0.0,0.0,0.0,0.0,0.0,0.0,0.0,0.0,0.0,0.0,0.0,0.0,0.0,0.0,0.0,0.0,0.0,0.0,0.0,0.0,0.0,0.0,0.0,0.0,0.0,0.0,0.0,0.0,0.0,0.0,0.0,0.0,0.0,0.0,0.0,0.0,0.0,0.0,0.0,0.0,0.0,0.0,0.0,0.0,0.0,0.0,0.0,0.0,0.0,0.0,0.0,0.0,0.0,0.0,0.0,0.0,0.0,0.0,0.0,0.0,0.0,0.0,0.0,0.0,0.0,0.0,0.0,0.0,0.0,0.0,0.0,0.0,0.0,0.0,0.0,0.0,0.0,0.0,0.0,0.0,0.0,0.0,0.0,0.0,0.0,0.0,0.0,0.0,0.0,0.0,0.0,0.0,0.0,0.0,0.0,0.0,0.0,0.0,0.0,0.0,0.0,0.0,0.0,0.0,0.0,0.0,0.0,0.0,0.0,0.0,0.0,0.0,0.0,0.0,0.0,0.0,0.0,0.0,0.0,0.0,0.0,0.0,0.0,0.0,0.0,0.0,0.0,0.0,0.0,0.0,0.0,0.0,0.0,0.0,0.0,0.0,0.0,0.0,0.0,0.0,0.0,0.0,0.0,0.0,0.0,0.0,0.0,0.0,0.0,0.0,0.0,0.0,0.0,0.0,0.0,0.0,0.0,0.0,0.0,0.0,0.0,0.0,0.0,0.0,0.0,0.0,0.0,0.0,0.0,0.0,0.0,0.0,0.0,0.0,0.0,0.0,0.0,0.0,0.0,0.0,0.0,0.0,0.0,0.0,0.0,0.0,0.0,0.0,0.0,0.0,0.0,0.0,0.0,0.0,0.0,0.0,0.0,0.0,0.0,0.0,0.0,0.0,0.0,0.0,0.0,0.0,0.0,0.0,0.0,0.0,0.0,0.0,0.0,0.0,0.0,0.0,0.0,0.0,0.0,0.0,0.0,0.0,0.0,0.0,0.0,0.0,0.0,0.0,0.0,0.0,0.0,0.0,0.0,0.0,0.0,0.0,0.0,0.0,0.0,0.0,0.0,0.0,0.0,0.0,0.0,0.0,0.0,0.0,0.0,0.0,0.0,0.0,0.0,0.0,0.0,0.0,0.0,0.0,0.0,0.0,0.0,0.0,0.0,0.0,0.0,0.0,0.0,0.0,0.0,0.0,0.0,0.0,0.0,0.0,0.0,0.0,0.0,0.0,0.0,0.0,0.0,0.0,0.0,0.0,0.0,0.0,0.0,0.0,0.0,0.0,0.0,0.0,0.0,0.0,0.0,0.0,0.0,0.0,0.0,0.0,0.0,0.0,0.0,0.0,0.0,0.0,0.0,0.0,0.0,0.0,0.0,0.0,0.0,0.0,0.0,0.0,0.0,0.0,0.0,0.0,0.0,0.0,0.0,0.0,0.0,0.0,0.0,0.0,0.0,0.0,0.0,0.0,0.0,0.0,0.0,0.0,0.0,0.0,0.0,0.0,0.0,0.0,0.0,0.0,0.0,0.0,0.0,0.0,0.0,0.0,0.0,0.0,0.0,0.0,0.0,0.0,0.0,0.0,0.0,0.0,0.0,0.0,0.0,0.0,0.0,0.0,0.0,0.0,0.0,0.0,0.0,0.0,0.0,0.0,0.0,0.0,0.0,0.0,0.0,0.0,0.0,0.0,0.0,0.0,0.0,0.0,0.0,0.0,0.0,0.0,0.0,0.0,0.0,0.0,0.0,0.0,0.0,0.0,0.0,0.0,0.0,0.0,0.0,0.0,0.0,0.0,0.0,0.0,0.0,0.0,0.0,0.0,0.0,0.0,0.0,0.0,0.0,0.0,0.0,0.0,0.0,0.0,0.0,0.0,0.0,0.0,0.0,0.0,0.0,0.0,0.0,0.0,0.0,0.0,0.0,0.0,0.0,0.0,0.0,0.0,0.0,0.0,0.0,0.0,0.0,0.0,0.0,0.0,0.0,0.0,0.0,0.0,0.0,0.0,0.0,0.0,0.0,0.0,0.0,0.0,0.0,0.0,0.0,0.0,0.0,0.0,0.0,0.0,0.0,0.0,0.0,0.0,0.0,0.0,0.0,0.0,0.0,0.0,0.0,0.0,0.0,0.0,0.0,0.0,0.0,0.0,0.0,0.0,0.0,0.0,0.0,0.0,0.0,0.0,0.0,0.0,0.0,0.0,0.0,0.0,0.0,0.0,0.0,0.0,0.0,0.0,0.0,0.0,0.0,0.0,0.0,0.0,0.0,0.0,0.0,0.0,0.0,0.0,0.0,0.0,0.0,0.0,0.0,0.0,0.0,0.0,0.0,0.0,0.0,0.0,0.0,0.0,0.0,0.0,0.0,0.0,0.0,0.0,0.0,0.0,0.0,0.0,0.0,0.0,0.0,0.0,0.0,0.0,0.0,0.0,0.0,0.0,0.0,0.0,0.0,0.0,0.0,0.0,0.0,0.0,0.0,0.0,0.0,0.0,0.0,0.0,0.0,0.0,0.0,0.0,0.0,0.0,0.0,0.0,0.0,0.0,0.0,0.0,0.0,0.0,0.0,0.0,0.0,0.0,0.0,0.0,0.0,0.0,0.0,0.0,0.0,0.0,0.0,0.0,0.0,0.0,0.0,0.0,0.0,0.0,0.0,0.0,0.0,0.0,0.0,0.0,0.0,0.0,0.0,0.0,0.0,0.0,0.0,0.0,0.0,0.0,0.0,0.0,0.0,0.0,0.0,0.0,0.0,0.0,0.0,0.0,0.0,0.0,0.0,0.0,0.0,0.0,0.0,0.0,0.0,0.0,0.0,0.0,0.0,0.0,0.0,0.0,0.0,0.0,0.0,0.0,0.0,0.0,0.0,0.0,0.0,0.0,0.0,0.0,0.0,0.0,0.0,0.0,0.0,0.0,0.0,0.0,0.0,0.0,0.0,0.0,0.0,0.0,0.0,0.0,0.0,0.0,0.0,0.0,0.0,0.0,0.0,0.0,0.0,0.0,0.0,0.0,0.0,0.0,0.0,0.0,0.0,0.0,0.0,0.0,0.0,0.0,0.0,0.0,0.0,0.0,0.0,0.0,0.0,0.0,0.0,0.0,0.0,0.0,0.0,0.0,0.0,0.0,0.0,0.0,0.0,0.0,0.0,0.0,0.0,0.0,0.0,0.0,0.0,0.0,0.0,0.0,0.0,0.0,0.0,0.0,0.0,0.0,0.0,0.0,0.0,0.0,0.0,0.0,0.0,0.0,0.0,0.0,0.0,0.0,0.0,0.0,0.0,0.0,0.0,0.0,0.0,0.0,0.0,0.0,0.0,0.0,0.0,0.0,0.0,0.0,0.0,0.0,0.0,0.0,0.0,0.0,0.0,0.0,0.0,0.0,0.0,0.0,0.0,0.0,0.0,0.0,0.0,0.0,0.0,0.0,0.0,0.0,0.0,0.0,0.0,0.0,0.0,0.0,0.0,0.0,0.0,0.0,0.0,0.0,0.0,0.0,0.0,0.0,0.0,0.0,0.0,0.0,0.0,0.0,0.0,0.0,0.0,0.0,0.0,0.0,0.0,0.0,0.0,0.0,0.0,0.0,0.0,0.0,0.0,0.0,0.0,0.0,0.0,0.0,0.0,0.0,0.0,0.0,0.0,0.0,0.0,0.0,0.0,0.0,0.0,0.0,0.0,0.0,0.0,0.0,0.0,0.0,0.0,0.0,0.0,0.0,0.0,0.0,0.0,0.0,0.0,0.0,0.0,0.0,0.0,0.0,0.0,0.0,0.0,0.0,0.0,0.0,0.0,0.0,0.0,0.0,0.0,0.0,0.0,0.0,0.0,0.0,0.0,0.0,0.0,0.0,0.0,0.0,0.0,0.0,0.0,0.0,0.0,0.0,0.0,0.0,0.0,0.0,0.0,0.0,0.0,0.0,0.0,0.0,0.0,0.0,0.0,0.0,0.0,0.0,0.0,0.0,0.0,0.0,0.0,0.0,0.0,0.0,0.0,0.0,0.0,0.0,0.0,0.0,0.0,0.0,0.0,0.0,0.0,0.0,0.0,0.0,0.0,0.0,0.0,0.0,0.0,0.0,0.0,0.0,0.0,0.0,0.0,0.0,0.0,0.0,0.0,0.0,0.0,0.0,0.0,0.0,0.0,0.0,0.0,0.0,0.0,0.0,0.0,0.0,0.0,0.0,0.0,0.0,0.0,0.0,0.0,0.0,0.0,0.0,0.0,0.0,0.0,0.0,0.0,0.0,0.0,0.0,0.0,0.0,0.0,0.0,0.0,0.0,0.0,0.0,0.0,0.0,0.0,0.0,0.0,0.0,0.0,0.0,0.0,0.0,0.0,0.0,0.0,0.0,0.0,0.0,0.0,0.0,0.0,0.0,0.0,0.0,0.0,0.0,0.0,0.0,0.0,0.0,0.0,0.0,0.0,0.0,0.0,0.0,0.0,0.0,0.0,0.0,0.0,0.0,0.0,0.0,0.0,0.0,0.0,0.0,0.0,0.0,0.0,0.0,0.0,0.0,0.0,0.0,0.0,0.0,0.0,0.0,0.0,0.0,0.0,0.0,0.0,0.0,0.0,0.0,0.0,0.0,0.0,0.0,0.0,0.0,0.0,0.0,0.0,0.0,0.0,0.0,0.0,0.0,0.0,0.0,0.0,0.0,0.0,0.0,0.0,0.0,0.0,0.0,0.0,0.0,0.0,0.0,0.0,0.0,0.0,0.0,0.0,0.0,0.0,0.0,0.0,0.0,0.0,0.0,0.0,0.0,0.0,0.0,0.0,0.0,0.0,0.0,0.0,-1.3761,0.0,0.0,0.0,0.0,0.0,0.0,0.0,0.0,0.0,0.0,0.0,0.0,0.0,0.0,0.0,0.0,0.0,0.0,0.0,0.0,0.0,0.0,0.0,0.0,0.0,0.0,0.0,0.0,0.0,0.0,0.0,0.0,0.0,0.0,0.0,0.0,0.0,0.0,0.0,0.0,0.0,0.0,0.0,0.0,0.0,0.0,0.0,0.0,0.0,0.0,0.0,0.0,0.0,0.0,0.0,0.0,0.0,0.0,0.0,0.0,0.0,0.0,0.0,0.0,0.0,0.0,0.0,0.0,0.0,0.0,0.0,0.0,0.0,0.0,0.0,0.0,0.0,0.0,0.0,0.0,0.0,0.0,0.0,0.0,0.0,0.0,0.0,0.0,0.0,0.0,0.0,0.0,0.0,0.0,0.0,0.0,0.0,0.0,0.0,0.0,0.0,0.0,0.0,0.0,0.0,0.0,0.0,0.0,0.0,0.0,0.0,0.0,0.0,0.0,0.0,0.0,-1.4038,0.0,0.0,0.0,0.0,0.0,0.0,0.0,0.0,0.0,0.0,0.0,0.0,0.0,0.0,0.0,0.0,0.0,0.0,0.0,0.0,0.0,0.0,0.0,0.0,0.0,0.0,0.0,0.0,0.0,0.0,0.0,0.0,0.0,0.0,0.0,0.0,0.0,0.0,0.0,0.0,0.0,0.0,0.0,0.0,0.0,0.0,0.0,0.0,0.0,0.0,0.0,0.0,0.0,0.0,0.0,0.0,0.0,0.0,0.0,0.0,0.0,0.0,0.0,0.0,0.0,0.0,0.0,0.0,0.0,0.0,0.0,0.0,0.0,0.0,0.0,0.0,0.0,0.0,0.0,0.0,0.0,0.0,0.0,0.0,0.0,0.0,0.0,0.0,0.0,0.0,0.0,0.0,0.0,0.0,0.0,0.0,0.0,0.0,0.0,0.0,0.0,0.0,0.0,0.0,0.0,0.0,0.0,0.0,0.0,-1.2879,-1.3133,-1.3302,-1.3701,-1.4427,-1.4089,-1.4308,-1.4833,0.0,0.0,0.0,0.0,0.0,0.0,0.0,0.0,0.0,0.0,0.0,0.0,0.0,0.0,0.0,0.0,0.0,0.0,0.0,0.0,0.0,0.0,0.0,0.0,0.0,0.0,0.0,0.0,0.0,0.0,0.0,0.0,0.0,0.0,0.0,0.0,0.0,0.0,0.0,-1.7461,-1.7314,-1.6811,-1.6254,-1.689,0.0,0.0,0.0,0.0,0.0,0.0,0.0,0.0,0.0,0.0,0.0,0.0,0.0,0.0,0.0,0.0,0.0,0.0,0.0,0.0,0.0,0.0,0.0,0.0,0.0,0.0,0.0,0.0,0.0,0.0,0.0,0.0,0.0,0.0,0.0,0.0,0.0,0.0,0.0,0.0,0.0,0.0,0.0,-1.1745,-1.1378,0.0,0.0,0.0,0.0,0.0,0.0,0.0,0.0,0.0,0.0,0.0,0.0,0.0,0.0,-1.2514,-1.2552,-1.2651,-1.2896,-1.3398,-1.3717,-1.3988,-1.4449,-1.479,-1.4878,-1.4831,0.0,-1.4698,-1.4441,0.0,0.0,0.0,0.0,0.0,0.0,0.0,0.0,0.0,0.0,0.0,0.0,0.0,0.0,0.0,0.0,0.0,0.0,0.0,0.0,0.0,0.0,0.0,0.0,0.0,0.0,0.0,0.0,0.0,0.0,0.0,0.0,0.0,0.0,0.0,0.0,-1.7373,-1.7588,-1.7803,-1.7657,-1.7451,-1.7166,-1.751,-1.7235,-1.6533,-1.676,0.0,0.0,0.0,0.0,0.0,0.0,0.0,0.0,0.0,0.0,0.0,0.0,0.0,0.0,0.0,0.0,0.0,0.0,0.0,0.0,0.0,0.0,0.0,0.0,0.0,0.0,0.0,0.0,0.0,0.0,0.0,0.0,0.0,0.0,0.0,0.0,0.0,0.0,0.0,-1.1926,-1.1822,-1.1428,-1.1558,-1.1513,0.0,0.0,0.0,0.0,0.0,0.0,0.0,0.0,0.0,-1.2536,-1.2977,-1.3367,-1.3523,-1.377,-1.4025,-1.411,-1.4369,-1.4495,-1.4589,-1.485,-1.4963,-1.4963,-1.4963,-1.4994,-1.4831,-1.4744,-1.4569,-1.4394,0.0,0.0,0.0,0.0,0.0,-1.3659,0.0,0.0,0.0,0.0,0.0,0.0,0.0,0.0,0.0,0.0,0.0,0.0,0.0,0.0,0.0,-1.8427,0.0,0.0,0.0,0.0,0.0,0.0,0.0,0.0,0.0,0.0,0.0,0.0,-1.7432,-1.7558,-1.7741,-1.7524,-1.7292,-1.7174,-1.7385,-1.7064,-1.6464,-1.6899,-1.7047,0.0,0.0,0.0,0.0,0.0,0.0,0.0,0.0,0.0,0.0,0.0,0.0,0.0,0.0,0.0,0.0,0.0,0.0,0.0,0.0,0.0,0.0,0.0,0.0,0.0,0.0,0.0,0.0,0.0,0.0,0.0,0.0,0.0,0.0,0.0,0.0,0.0,0.0,-1.1891,-1.1897,-1.1446,-1.1808,-1.1914,0.0,0.0,0.0,0.0,0.0,0.0,-1.2506,-1.2813,-1.3067,-1.3272,-1.3815,-1.4243,-1.4366,-1.4767,-1.4963,-1.4963,-1.5117,-1.5184,-1.519,-1.5337,-1.5411,-1.5411,-1.5411,-1.5411,-1.5391,-1.5084,-1.4777,-1.4687,-1.4591,-1.4371,-1.4096,-1.4096,-1.3967,-1.3786,0.0,0.0,0.0,0.0,0.0,0.0,0.0,0.0,0.0,0.0,0.0,0.0,0.0,0.0,-1.9333,-1.8813,-1.8603,-1.822,0.0,0.0,0.0,0.0,0.0,0.0,0.0,0.0,0.0,-1.7706,-1.6991,-1.6765,-1.7009,-1.6113,-1.541,-1.4826,-1.5723,-1.668,-1.7638,-1.7529,-1.7392,-1.7097,0.0,0.0,0.0,0.0,0.0,0.0,0.0,0.0,0.0,0.0,0.0,0.0,0.0,0.0,0.0,0.0,0.0,0.0,0.0,0.0,0.0,0.0,0.0,0.0,0.0,0.0,0.0,0.0,0.0,0.0,0.0,0.0,0.0,0.0,0.0,0.0,0.0,0.0,0.0,-1.1521,-1.2054,0.0,0.0,0.0,0.0,-1.2546,-1.2794,-1.2946,-1.2959,-1.3724,-1.4109,-1.4122,-1.4674,-1.4923,-1.4937,-1.4957,-1.4963,-1.497,-1.5524,-1.5785,-1.5805,-1.6359,-1.662,-1.662,-1.662,-1.662,-1.6533,-1.5133,-1.4777,-1.4963,-1.4687,-1.4764,-1.4943,-1.4943,-1.493,-1.4917,0.0,0.0,0.0,0.0,0.0,0.0,0.0,0.0,0.0,0.0,0.0,0.0,0.0,-1.9407,-1.9008,-1.8808,-1.8405,-1.7998,-1.7647,0.0,0.0,0.0,0.0,0.0,0.0,0.0,-1.7496,-1.7257,-1.6964,-1.672,-1.6346,-1.6038,-1.5726,-1.5549,-1.5847,-1.623,-1.6569,-1.6118,-1.5745,-1.5455,-1.5046,-1.484,0.0,0.0,0.0,0.0,0.0,0.0,0.0,0.0,0.0,0.0,0.0,0.0,0.0,0.0,0.0,0.0,0.0,0.0,0.0,0.0,0.0,0.0,0.0,0.0,0.0,0.0,0.0,0.0,0.0,0.0,0.0,0.0,0.0,0.0,0.0,0.0,0.0,-1.2201,-1.2683,0.0,0.0,-1.27,-1.2902,-1.3432,-1.3638,-1.386,-1.4035,-1.4513,-1.4887,-1.5259,-1.5464,-1.5698,-1.6079,-1.6086,-1.6086,-1.6086,-1.6293,-1.6393,-1.64,-1.6613,-1.6707,-1.6707,-1.6707,-1.6707,-1.6673,-1.6155,-1.5876,-1.5805,-1.5704,-1.5478,-1.5244,-1.5244,-1.5124,-1.4963,0.0,0.0,0.0,0.0,0.0,0.0,0.0,0.0,0.0,0.0,0.0,-1.9791,-1.9407,-1.8875,-1.8539,-1.8539,-1.8212,-1.7872,-1.7647,0.0,0.0,0.0,0.0,0.0,0.0,-1.7511,-1.7337,-1.7242,-1.6564,-1.5996,-1.5723,-1.5343,-1.5248,-1.5354,-1.5354,-1.5293,-1.5171,-1.4734,-1.4743,-1.5024,-1.4746,-1.4459,-1.4311,0.0,0.0,0.0,0.0,0.0,0.0,0.0,0.0,0.0,0.0,0.0,0.0,0.0,0.0,0.0,0.0,0.0,0.0,0.0,0.0,0.0,0.0,0.0,0.0,0.0,0.0,0.0,0.0,0.0,0.0,0.0,0.0,0.0,0.0,0.0,-1.2792,-1.2711,-1.3289,-1.3516,-1.3432,-1.3516,-1.3728,-1.4197,-1.4582,-1.4863,-1.4963,-1.5352,-1.5732,-1.6112,-1.6126,-1.6313,-1.67,-1.6707,-1.6707,-1.6707,-1.6807,-1.6854,-1.6854,-1.6961,-1.7001,-1.7001,-1.7001,-1.7001,-1.7001,-1.7001,-1.6834,-1.656,-1.646,-1.6179,-1.5838,-1.5838,-1.5718,-1.5551,0.0,0.0,0.0,0.0,0.0,0.0,0.0,0.0,0.0,0.0,-1.9452,-1.8808,-1.8808,-1.8337,-1.8008,-1.8008,-1.8008,-1.7872,-1.7539,-1.747,0.0,0.0,0.0,0.0,-1.8379,-1.7342,-1.7087,-1.7719,-1.5734,-1.4833,-1.5094,-1.4144,-1.3828,-1.4115,-1.4115,-1.3948,-1.3667,-1.3667,-1.4511,-1.588,-1.5573,-1.5111,-1.4576,0.0,0.0,0.0,0.0,0.0,0.0,0.0,0.0,0.0,0.0,0.0,0.0,0.0,0.0,0.0,0.0,0.0,0.0,0.0,0.0,0.0,0.0,0.0,0.0,0.0,0.0,0.0,0.0,0.0,0.0,0.0,0.0,0.0,-1.2544,-1.2981,-1.3251,-1.3099,-1.3756,-1.4187,-1.4294,-1.4454,-1.472,-1.5017,-1.5538,-1.5852,-1.5852,-1.6393,-1.6707,-1.672,-1.672,-1.6727,-1.6734,-1.6734,-1.6734,-1.6734,-1.7027,-1.7161,-1.7174,-1.7455,-1.7582,-1.7582,-1.7582,-1.7582,-1.7582,-1.7582,-1.7415,-1.7134,-1.6834,-1.6714,-1.6707,-1.6707,-1.6707,-1.6707,0.0,0.0,0.0,0.0,0.0,0.0,0.0,0.0,0.0,0.0,-1.9781,-1.9452,-1.9177,-1.8462,-1.8008,-1.8008,-1.8008,-1.7862,-1.7647,0.0,0.0,0.0,0.0,0.0,-1.8389,-1.8514,-1.8406,-1.8123,-1.7578,-1.6795,-1.5836,-1.55,-1.5183,-1.4723,-1.4723,-1.4556,-1.4275,-1.4275,-1.4439,-1.4604,-1.4078,-1.3745,-1.3588,0.0,0.0,0.0,0.0,0.0,0.0,0.0,0.0,0.0,0.0,0.0,0.0,0.0,0.0,0.0,0.0,0.0,0.0,0.0,0.0,0.0,0.0,0.0,0.0,0.0,0.0,0.0,0.0,0.0,0.0,0.0,0.0,-1.3649,-1.3487,-1.3528,-1.3867,-1.4375,-1.4654,-1.492,-1.5332,-1.5451,-1.567,-1.6192,-1.6373,-1.6466,-1.6466,-1.662,-1.6807,-1.7021,-1.7027,-1.7128,-1.7335,-1.7341,-1.7341,-1.7341,-1.7422,-1.7462,-1.7468,-1.7549,-1.7582,-1.7582,-1.7582,-1.7582,-1.7582,-1.7582,-1.7535,-1.7435,-1.7141,-1.6894,-1.6707,-1.6707,-1.6707,-1.6707,0.0,0.0,0.0,0.0,0.0,0.0,0.0,0.0,0.0,0.0,-1.9901,-1.9441,-1.9299,-1.8529,-1.8008,-1.8008,-1.794,-1.7794,-1.7657,0.0,0.0,0.0,0.0,-1.8385,-1.8783,-1.8886,-1.8759,-1.8614,-1.8303,-1.7702,-1.6861,-1.7087,-1.6929,-1.6521,-1.6521,-1.6418,-1.6139,-1.549,-1.5162,-1.4965,-1.4472,-1.4282,-1.4282,-1.4282,-1.4431,-1.4855,-1.6012,-1.63,-1.6287,-1.7137,0.0,0.0,0.0,0.0,0.0,0.0,0.0,0.0,0.0,0.0,0.0,0.0,0.0,0.0,0.0,0.0,0.0,0.0,0.0,0.0,0.0,0.0,0.0,0.0,-1.4182,-1.4496,-1.4441,-1.4355,-1.4581,-1.5257,-1.5331,-1.5558,-1.6139,-1.6199,-1.6339,-1.668,-1.682,-1.6894,-1.6894,-1.7007,-1.7154,-1.7328,-1.7328,-1.7415,-1.7582,-1.7582,-1.7582,-1.7582,-1.7582,-1.7582,-1.7582,-1.7582,-1.7582,0.0,-1.7582,-1.7582,-1.7582,-1.7582,-1.7582,0.0,0.0,0.0,0.0,0.0,-1.7074,-1.7074,0.0,0.0,0.0,0.0,0.0,0.0,0.0,0.0,0.0,0.0,0.0,-1.9299,-1.9431,-1.8654,-1.8144,-1.8008,-1.7784,-1.7647,0.0,0.0,0.0,-1.7706,-1.8187,-1.8773,-1.9277,-1.8825,-1.8761,-1.9195,-1.8611,-1.8321,-1.8205,-1.865,-1.8757,-1.8704,-1.8704,-1.8687,-1.8535,-1.7141,-1.6553,-1.6492,-1.608,-1.5779,-1.5696,-1.5861,-1.6314,-1.6988,-1.7066,-1.6935,-1.6801,-1.7539,0.0,0.0,0.0,0.0,0.0,0.0,0.0,0.0,0.0,0.0,0.0,0.0,0.0,0.0,0.0,0.0,0.0,0.0,0.0,0.0,0.0,0.0,0.0,0.0,-1.4676,-1.5164,-1.5458,-1.5297,-1.5337,-1.5825,-1.5912,-1.6146,-1.67,-1.676,-1.6767,-1.68,-1.7048,-1.7201,-1.7201,0.0,0.0,0.0,0.0,-1.7649,-1.7682,-1.7682,-1.7682,-1.7682,-1.7682,-1.7682,-1.7682,-1.7682,-1.7682,-1.7682,-1.7682,-1.7682,-1.7682,-1.7682,-1.7682,-1.7675,-1.7609,-1.7582,-1.7582,-1.7582,-1.7582,-1.7582,0.0,0.0,0.0,0.0,0.0,0.0,0.0,0.0,0.0,-2.1502,-2.1049,-2.0602,-2.0398,-1.9562,-1.8787,-1.8076,-1.7784,-1.7647,0.0,0.0,-1.7638,-1.7706,-1.8608,-1.9209,-1.9287,-1.9887,-2.0236,-2.0323,-2.0518,-2.0218,-1.9592,-2.0066,-1.9974,-1.929,-1.929,-1.9215,-1.8924,-1.8292,-1.7888,-1.7595,-1.7155,-1.6437,-1.5779,-1.6683,-1.7131,-1.7307,-1.8276,-1.8549,-1.8512,-1.8907,-1.872,-1.8257,-1.7803,0.0,0.0,0.0,0.0,0.0,0.0,0.0,0.0,0.0,0.0,0.0,0.0,0.0,0.0,0.0,0.0,0.0,0.0,0.0,0.0,-1.4716,-1.5284,-1.5765,-1.6059,-1.6259,-1.6326,-1.6206,-1.6393,-1.6673,-1.7027,-1.7061,-1.7161,-1.7395,-1.7468,-1.7502,-1.7502,-1.7555,0.0,-1.7923,-1.7949,-1.807,-1.831,-1.8317,-1.8317,-1.8317,0.0,0.0,-1.8317,-1.8317,-1.8317,-1.8317,-1.8317,-1.8317,-1.8317,-1.8317,-1.8317,-1.8263,-1.7776,-1.7582,-1.7582,-1.7582,-1.7582,-1.7582,0.0,0.0,0.0,0.0,0.0,0.0,0.0,0.0,0.0,0.0,-2.1439,-2.0996,-2.0655,-1.9748,-1.8844,-1.8202,-1.7852,0.0,0.0,-1.7647,-1.7716,-1.7862,-1.8757,-1.9287,-1.9287,-2.0127,-2.0566,-2.0566,-2.124,-2.1322,-2.0922,-2.1626,-2.1669,-2.1311,-2.1311,-2.1212,-2.0986,-1.9773,-1.9245,-1.9019,-1.8374,-1.7819,-1.7407,-1.798,-1.847,-1.9027,-1.9599,-1.9766,-1.9806,-1.9927,-1.9774,-1.9457,-1.8835,-1.8106,-1.7322,0.0,0.0,0.0,0.0,0.0,0.0,0.0,0.0,0.0,0.0,0.0,0.0,0.0,0.0,-1.3955,0.0,0.0,-1.489,-1.5324,-1.5765,-1.6152,-1.6446,-1.674,-1.6874,-1.6727,-1.684,-1.7048,-1.7335,-1.7368,-1.7428,-1.7569,-1.7582,-1.7649,-1.7809,-1.7816,-1.7949,-1.8243,-1.8263,-1.8337,-1.849,-1.849,-1.849,-1.849,-1.849,-1.849,-1.849,-1.849,-1.849,-1.849,-1.849,-1.849,-1.849,-1.849,-1.849,-1.8464,-1.8156,-1.8036,-1.8016,-1.7869,-1.7816,-1.7796,0.0,0.0,0.0,0.0,0.0,0.0,0.0,0.0,0.0,0.0,-2.1705,-2.1187,-2.0666,-1.9814,-1.9044,0.0,0.0,0.0,0.0,-1.7657,-1.7862,-1.8008,-1.875,-1.9199,-1.9287,-2.0039,-2.0478,-2.0566,-2.1367,-2.1758,-2.1777,-2.2539,-2.2891,-2.2891,-2.2891,-2.2891,-2.2755,-2.11,-2.0347,-2.0366,-1.9567,-1.9274,-1.9274,-1.9274,-1.9844,-2.0566,-2.0566,-2.0566,-2.0566,-2.0566,-2.0566,-2.043,-2.0023,-1.9621,-1.9184,-1.8,-1.7825,0.0,0.0,0.0,0.0,0.0,0.0,0.0,0.0,0.0,-1.3968,-1.4208,-1.4442,-1.4696,-1.499,-1.5284,-1.5578,-1.5865,-1.6213,-1.6526,-1.676,-1.7048,-1.7235,-1.7235,-1.7235,-1.7328,-1.7562,-1.7582,-1.7609,-1.7669,-1.7669,-1.7809,-1.8116,-1.813,-1.827,-1.8564,-1.8577,-1.8604,-1.8657,-1.8664,-1.8664,-1.8664,-1.8664,-1.8664,-1.8664,-1.8664,-1.8664,-1.8664,-1.8664,-1.8664,-1.8664,-1.8664,-1.8664,-1.8664,-1.8664,-1.8664,-1.8617,-1.8263,-1.813,-1.8096,0.0,0.0,0.0,0.0,0.0,0.0,0.0,0.0,0.0,0.0,0.0,0.0,0.0,0.0,0.0,0.0,0.0,0.0,-1.7716,-1.7862,-1.8008,-1.8008,-1.8467,-1.8887,-1.9277,-1.9746,-2.0176,-2.0566,-2.1064,-2.1309,-2.1318,-2.1797,-2.2031,-2.2031,-2.2031,-2.2031,-2.1992,-2.1341,-2.1057,-2.1089,-2.0595,-2.0401,-2.0401,-2.0401,-2.0489,-2.0566,-2.0566,-2.0498,-2.0342,-2.0566,-2.0489,-2.0333,-2.044,-2.0005,-1.9298,-1.8985,0.0,-1.7,-1.6547,-1.5526,-1.4435,-1.3444,-1.3601,-1.3988,0.0,0.0,-1.4823,-1.4856,-1.489,-1.5003,-1.5297,-1.5585,-1.5879,-1.6172,-1.6687,-1.7061,-1.7094,-1.7348,-1.7535,-1.7535,-1.7535,-1.7549,-1.7582,-1.7582,-1.7695,-1.7976,-1.7996,-1.8123,-1.8424,-1.8444,-1.8571,-1.8865,-1.8878,-1.9005,-1.9265,-1.9272,-1.9272,-1.9272,-1.9272,-1.9272,-1.9272,-1.9272,-1.9272,-1.9272,-1.9272,-1.9272,-1.9272,-1.9272,-1.9272,-1.9272,-1.9272,-1.9272,-1.9205,-1.8651,-1.8444,-1.8437,0.0,0.0,0.0,0.0,0.0,0.0,0.0,0.0,0.0,0.0,0.0,0.0,0.0,0.0,0.0,0.0,0.0,0.0,-1.8489,-1.8633,-1.8787,-1.8787,-1.8676,-1.8721,-1.8906,-1.957,-2.0,-2.0185,-2.0889,-2.123,-2.125,-2.168,-2.1885,-2.1885,-2.1885,-2.1885,-2.1855,-2.1416,-2.123,-2.1191,-2.0742,-2.0566,-2.0566,-2.0566,-2.0566,-2.0566,-2.0498,-2.0342,0.0,0.0,-2.0342,-2.0342,-2.0566,-2.0294,-1.9793,-1.9249,-1.8905,0.0,-1.8276,-1.7213,0.0,0.0,-1.549,-1.5518,-1.4764,-1.4917,-1.5217,-1.5217,-1.5484,-1.5765,-1.5885,-1.6139,-1.6433,0.0,-1.6987,-1.7208,-1.7375,-1.7508,-1.7582,-1.7582,-1.7582,-1.7655,-1.7836,-1.7856,-1.7976,-1.8283,-1.8303,-1.843,-1.8731,-1.8744,-1.8878,-1.9172,-1.9185,-1.9239,-1.9366,-1.9366,-1.9366,-1.9366,-1.9366,-1.9366,-1.9366,-1.9366,-1.9366,-1.9366,-1.9366,-1.9366,-1.9366,-1.9366,-1.9366,-1.9366,-1.9366,-1.9366,-1.9319,-1.8898,-1.8744,-1.8718,0.0,0.0,0.0,0.0,0.0,0.0,0.0,0.0,0.0,0.0,0.0,0.0,0.0,0.0,0.0,0.0,0.0,0.0,0.0,-1.9475,-1.9628,-1.9694,-1.9083,-1.8983,-1.9302,-1.9725,-1.9969,-2.0098,-2.0874,-2.1095,-2.0879,-2.1318,-2.1523,-2.1523,-2.1523,-2.1523,-2.1504,-2.1191,-2.1045,-2.1025,-2.0693,-2.0566,-2.0566,-2.0566,-2.0566,-2.0547,-2.0285,-2.0091,0.0,0.0,-1.9908,-2.0004,-2.0159,-2.0246,-2.0051,-1.9437,-1.9481,-1.9631,-1.929,0.0,0.0,-1.7392,-1.7358,-1.7251,-1.6306,-1.6113,-1.6088,-1.6171,-1.6259,-1.6326,-1.6486,-1.6687,0.0,-1.7221,-1.7268,-1.7341,-1.7555,-1.7582,-1.7582,-1.7582,-1.7655,-1.7829,-1.8143,-1.8096,-1.8203,-1.8577,-1.8611,-1.8738,-1.9032,-1.9045,-1.9145,-1.9359,-1.9366,-1.9366,-1.9366,-1.9366,-1.9366,-1.9366,-1.9366,-1.9366,-1.9366,-1.9366,-1.9366,-1.9366,-1.9366,-1.9366,-1.9366,-1.9366,-1.9366,-1.9366,-1.9366,-1.9366,-1.9339,-1.9125,-1.9045,-1.9018,0.0,0.0,0.0,0.0,0.0,0.0,0.0,0.0,0.0,0.0,0.0,0.0,0.0,0.0,0.0,0.0,0.0,0.0,0.0,-2.0268,-2.0333,-2.0526,-1.977,-1.9852,-2.1097,-2.0332,-2.0094,-2.0552,-2.1021,-2.0744,-1.9961,-2.04,-2.0605,-2.0605,-2.0605,-2.0605,-2.0605,-2.0596,-2.0586,-2.0586,-2.0566,-2.0566,-2.0566,-2.0566,-2.0566,-2.0508,-1.9955,0.0,0.0,0.0,-1.8845,-1.9097,-1.9269,-1.962,0.0,-1.9627,-1.946,0.0,0.0,0.0,-1.8898,-1.8581,-1.8767,-1.9032,-1.8943,-1.8245,-1.7673,-1.7985,-1.7112,-1.6446,-1.7021,-1.7134,-1.7235,-1.7522,-1.7569,-1.7569,-1.7582,-1.7582,-1.7582,-1.7582,-1.7849,-1.815,0.0,-1.8217,-1.829,-1.8865,-1.8911,-1.9038,-1.9339,-1.9352,-1.9359,-1.9366,-1.9366,-1.9366,-1.9366,-1.9366,-1.9366,-1.9366,-1.9366,-1.9366,-1.9366,-1.9366,-1.9366,-1.9366,-1.9366,-1.9366,-1.9366,-1.9366,-1.9366,-1.9366,-1.9366,-1.9366,-1.9366,-1.9359,-1.9352,-1.9352,0.0,0.0,0.0,0.0,0.0,0.0,0.0,0.0,0.0,0.0,0.0,0.0,0.0,0.0,0.0,0.0,0.0,0.0,0.0,-2.1112,-2.1164,-2.1239,-2.059,-2.0335,-2.0761,-2.0742,-2.085,-2.1013,-2.1435,-2.1523,-2.125,-2.141,-2.1485,-2.1413,-2.0845,-2.0563,-2.0573,-2.0004,-1.9717,-1.9717,-1.9717,-1.9883,-2.0137,-2.0137,-2.0137,-2.0002,0.0,0.0,0.0,0.0,-1.8742,-1.9012,-1.925,-1.9465,-1.9636,-1.9469,-1.9663,-2.0049,0.0,0.0,-2.0976,-2.0544,-2.0465,-2.0384,-1.9586,-1.8597,-1.794,-1.8052,-1.7288,-1.662,-1.682,-1.7014,-1.7181,-1.7281,-1.7455,-1.7582,-1.7582,-1.7582,-1.7582,-1.7582,-1.7856,0.0,0.0,0.0,0.0,-1.9192,-1.9219,-1.9259,-1.9366,-1.9366,-1.9366,-1.9366,-1.9366,-1.9366,-1.9366,-1.9366,-1.9366,-1.9366,-1.9366,-1.9366,-1.9366,-1.9366,-1.9366,-1.9366,-1.9366,-1.9366,-1.9366,-1.9366,-1.9366,-1.9366,-1.9366,-1.9366,-1.9366,-1.9366,-1.9366,-1.9366,0.0,0.0,0.0,0.0,0.0,0.0,0.0,0.0,0.0,0.0,0.0,0.0,0.0,0.0,0.0,0.0,0.0,0.0,0.0,0.0,-2.1951,-2.2013,-2.1313,-2.1049,-2.1365,-2.1293,-2.1257,-2.1257,-2.1755,-2.1868,-2.1596,-2.1763,-2.1909,-2.1851,-2.1296,-2.1086,-2.1015,-2.0461,-2.0196,-2.0063,-2.0063,-2.0163,-2.0216,-2.0227,-2.0113,0.0,0.0,0.0,0.0,0.0,0.0,-1.8722,-1.8807,-1.9189,-1.9506,-1.9645,-1.9966,-2.0464,0.0,-2.1882,-2.2188,-2.2026,-2.1933,-2.1793,-2.122,-2.0247,-1.9557,-1.9806,-1.8777,-1.791,-1.7925,-1.7629,-1.7435,-1.7545,-1.7515,-1.7462,-1.7569,-1.7582,-1.7582,-1.7582,-1.7949,0.0,0.0,0.0,0.0,-1.9352,-1.9366,-1.9366,-1.9366,-1.9366,-1.9366,-1.9366,-1.9366,-1.9366,-1.9366,-1.9366,-1.9366,-1.9366,-1.9366,-1.9366,-1.9366,-1.9366,-1.9366,-1.9366,-1.9366,-1.9366,-1.9366,-1.9366,-1.9366,-1.9366,-1.9366,-1.9366,-1.9366,-1.9366,-1.9366,-1.9366,0.0,0.0,0.0,0.0,0.0,0.0,0.0,0.0,0.0,0.0,0.0,0.0,0.0,0.0,0.0,0.0,0.0,0.0,0.0,0.0,0.0,-2.2641,-2.1889,-2.1839,-2.2678,-2.1901,-2.1451,-2.1451,-2.2069,-2.1901,-2.1108,-2.1699,-2.1911,-2.1911,-2.1842,-2.1842,-2.1842,-2.1842,-2.1647,-2.1311,-2.1311,-2.1134,-2.0868,-2.072,0.0,0.0,0.0,0.0,0.0,0.0,0.0,0.0,0.0,-1.8715,-1.9491,-2.0139,-2.037,-2.0658,-2.1882,-2.2197,-2.2389,-2.296,-2.3135,-2.3242,-2.3662,-2.2847,-2.214,-2.2784,-2.1286,-1.9908,0.0,0.0,-1.791,-1.8231,-1.7674,-1.7268,-1.7542,-1.7582,-1.7582,0.0,0.0,0.0,0.0,0.0,0.0,-1.9366,0.0,-1.9366,-1.9366,-1.9366,-1.9366,-1.9366,-1.9366,-1.9366,-1.9366,-1.9379,-1.9399,-1.9412,-1.9412,-1.9412,-1.9412,-1.9399,-1.9392,-1.9392,-1.9372,-1.9366,-1.9366,-1.9366,-1.9366,-1.9366,-1.9366,-1.9366,-1.9366,-1.9366,-1.9366,-1.9366,0.0,0.0,0.0,0.0,0.0,0.0,0.0,0.0,0.0,0.0,0.0,0.0,0.0,0.0,0.0,0.0,0.0,0.0,0.0,0.0,0.0,0.0,0.0,0.0,0.0,0.0,0.0,0.0,-2.2492,-2.249,-2.2303,-2.2297,-2.2293,-2.223,-2.1514,-2.1136,-2.1136,-2.0588,-2.0257,-2.0202,0.0,-2.0485,-2.0614,0.0,0.0,0.0,0.0,0.0,0.0,0.0,0.0,0.0,0.0,-1.9831,-2.0273,-2.0457,-2.1104,-2.1824,-2.2121,-2.2495,-2.2921,-2.3028,-2.3135,-2.3164,-2.3281,-2.2541,-2.1803,-2.1599,-2.0342,-1.9166,0.0,0.0,0.0,-1.751,-1.7542,0.0,-1.7569,-1.7582,0.0,0.0,0.0,-1.849,-1.849,-1.9025,0.0,0.0,-1.9366,-1.9366,-1.9366,-1.9366,-1.9366,-1.9366,-1.9366,-1.9366,-1.9366,-1.9579,-1.98,-2.0013,-2.0013,-2.0013,-2.0007,-1.9786,-1.9686,-1.9679,-1.9459,-1.9366,-1.9366,-1.9366,-1.9366,-1.9366,-1.9366,-1.9366,-1.9366,-1.9366,-1.9366,-1.9366,0.0,0.0,0.0,0.0,0.0,0.0,0.0,0.0,0.0,0.0,0.0,0.0,0.0,0.0,0.0,0.0,0.0,0.0,0.0,0.0,0.0,0.0,0.0,0.0,0.0,0.0,0.0,0.0,0.0,0.0,-2.2555,-2.2543,-2.2543,-2.2494,-2.1913,-2.1663,-2.1663,-2.1262,0.0,0.0,0.0,0.0,0.0,0.0,0.0,0.0,0.0,0.0,0.0,0.0,0.0,-1.9249,-1.9743,-2.0235,-2.0685,-2.0957,0.0,-2.2226,-2.2486,-2.2872,-2.3135,-2.3135,-2.3135,-2.3096,-2.3202,-2.2787,-2.2272,-2.2057,-2.1112,0.0,0.0,0.0,0.0,0.0,0.0,0.0,-1.8485,-1.7989,-1.7582,0.0,-1.8123,0.0,-1.849,-1.9025,-1.9366,0.0,-1.9366,-1.9366,-1.9366,-1.9366,-1.9366,-1.9366,-1.9366,-1.9432,-1.9553,-1.9846,-2.0067,-2.0234,-2.0234,-2.0234,-2.0227,-2.006,-1.9993,-1.9973,0.0,-1.9559,-1.9546,-1.9419,-1.9366,-1.9366,-1.9366,-1.9366,-1.9366,-1.9366,-1.9366,-1.9249,0.0,0.0,0.0,0.0,0.0,0.0,0.0,0.0,0.0,0.0,0.0,0.0,0.0,0.0,0.0,0.0,0.0,0.0,0.0,0.0,0.0,0.0,0.0,0.0,0.0,0.0,0.0,0.0,0.0,0.0,0.0,0.0,0.0,0.0,0.0,0.0,0.0,0.0,0.0,0.0,0.0,0.0,0.0,0.0,0.0,0.0,0.0,0.0,0.0,0.0,-1.9396,-1.9478,-1.9887,-2.0353,-2.089,-2.1501,-2.1964,-2.2428,-2.296,-2.3135,-2.3135,-2.3135,-2.3135,-2.3145,-2.3255,-2.3162,-2.3085,-2.3084,0.0,0.0,-2.1481,0.0,-2.0473,-2.09,0.0,-1.9363,-1.9583,-1.861,-1.7786,-1.7582,-1.8083,-1.8444,-1.849,-1.8985,-1.9325,-1.9366,-1.9366,-1.9366,-1.9366,-1.9366,-1.9386,-1.9426,-1.9426,-1.9586,-1.9913,-2.0167,-2.0307,-2.0347,-2.0347,-2.0347,-2.0347,-2.0307,-2.0294,-2.0274,0.0,0.0,-1.9833,-1.9546,-1.9426,-1.9419,-1.9379,-1.9366,-1.9366,-1.9127,-1.9127,-1.8887,0.0,0.0,0.0,0.0,0.0,0.0,0.0,0.0,0.0,0.0,-1.9965,0.0,0.0,0.0,0.0,0.0,0.0,0.0,0.0,0.0,0.0,0.0,0.0,0.0,0.0,0.0,0.0,0.0,0.0,0.0,0.0,0.0,0.0,0.0,0.0,0.0,0.0,0.0,0.0,0.0,0.0,0.0,0.0,0.0,0.0,0.0,0.0,0.0,0.0,0.0,-2.0013,-2.0095,-2.0362,-2.1043,-2.1705,-2.1773,-2.2347,-2.296,-2.3028,-2.3135,-2.3135,-2.3135,-2.3135,-2.3076,-2.289,-2.2909,0.0,0.0,0.0,-2.1128,-2.0127,-1.9894,0.0,-2.0351,0.0,0.0,0.0,0.0,-1.8812,0.0,0.0,0.0,0.0,0.0,0.0,0.0,0.0,0.0,-1.9366,-1.9366,-1.9472,-1.972,-1.9726,-1.998,-2.0521,-2.0575,-2.0722,-2.0955,-2.0955,-2.0955,-2.0949,-2.0708,-2.0601,-2.0581,0.0,0.0,-2.0134,-1.9846,-1.9726,-1.97,-1.9459,-1.9366,-1.9243,-1.7923,-1.7443,-1.7208,0.0,0.0,0.0,0.0,0.0,0.0,0.0,0.0,0.0,0.0,-2.0029,-1.9926,0.0,0.0,0.0,0.0,0.0,0.0,0.0,0.0,0.0,0.0,0.0,0.0,0.0,0.0,0.0,0.0,0.0,0.0,0.0,0.0,0.0,0.0,0.0,0.0,0.0,0.0,0.0,0.0,0.0,0.0,0.0,0.0,0.0,0.0,0.0,0.0,0.0,0.0,-1.9698,-2.0085,-2.0507,-2.1016,-2.1592,-2.1816,-2.2324,-2.2861,-2.3076,-2.3135,-2.3135,-2.3135,-2.3135,-2.3047,-2.2706,0.0,0.0,0.0,0.0,-2.0806,-2.0054,0.0,0.0,0.0,0.0,0.0,0.0,0.0,0.0,0.0,0.0,0.0,0.0,0.0,0.0,0.0,0.0,0.0,-1.9366,-1.9366,-1.9499,-1.9786,-1.9947,-2.0234,-2.0675,-2.0828,-2.0969,-2.1109,-2.1109,-2.1109,-2.1109,-2.0962,-2.0902,-2.0882,-2.0588,0.0,-2.0441,-2.0147,-1.994,-1.9786,-1.9646,-1.9499,-1.9243,-1.7566,-1.6968,-1.6733,0.0,0.0,0.0,0.0,0.0,0.0,0.0,-2.0673,-2.0385,-2.0334,-2.0246,-2.0144,-2.0093,-1.999,-1.9823,0.0,0.0,0.0,0.0,0.0,0.0,0.0,0.0,0.0,0.0,0.0,0.0,0.0,0.0,0.0,0.0,0.0,0.0,0.0,0.0,0.0,0.0,0.0,0.0,0.0,0.0,0.0,0.0,0.0,0.0,0.0,0.0,0.0,0.0,0.0,-1.9068,-1.9703,-2.0216,-2.0722,-2.1218,-2.1559,-2.2026,-2.2502,-2.291,-2.3066,-2.3135,-2.3135,-2.3135,-2.296,-2.253,-2.2199,0.0,0.0,-2.0755,-2.0558,-2.0365,0.0,0.0,0.0,0.0,0.0,0.0,0.0,0.0,0.0,0.0,0.0,0.0,0.0,0.0,0.0,0.0,0.0,-1.9366,-1.9366,-1.9533,-1.9887,-2.0114,-2.0408,-2.0768,-2.0995,-2.1109,-2.1109,-2.1109,-2.1109,-2.1109,-2.1109,-2.1109,-2.1096,-2.0869,0.0,0.0,-2.0448,-2.0194,-1.9973,-1.9846,-1.9417,-1.8732,-1.7109,-1.6256,-1.5779,0.0,0.0,0.0,0.0,0.0,0.0,0.0,-2.1131,-2.0983,-2.0699,-2.0649,-2.0612,-2.0461,-1.9978,-1.9565,0.0,0.0,0.0,0.0,0.0,0.0,0.0,0.0,0.0,0.0,0.0,0.0,0.0,0.0,0.0,0.0,0.0,0.0,0.0,0.0,0.0,0.0,0.0,0.0,0.0,0.0,0.0,0.0,0.0,0.0,0.0,0.0,0.0,0.0,0.0,0.0,-1.8889,-1.9326,-2.0089,-2.097,-2.1009,0.0,0.0,-2.2483,-2.2852,-2.3135,-2.3135,-2.3135,-2.296,-2.253,0.0,0.0,-2.1096,-2.0553,-2.0164,-2.0322,-2.0408,0.0,0.0,0.0,0.0,0.0,0.0,0.0,0.0,0.0,0.0,0.0,0.0,0.0,0.0,0.0,0.0,0.0,-1.9366,-1.9619,-2.0174,-2.0221,-2.0501,-2.1062,-2.1096,-2.1109,-2.1109,-2.1109,-2.1109,-2.1109,-2.1109,-2.1109,-2.1109,0.0,0.0,0.0,-2.0755,-2.0621,-2.0541,-2.0007,-1.8922,-1.7404,-1.5509,-1.3885,-1.2453,0.0,0.0,0.0,0.0,0.0,0.0,0.0,-2.1375,-2.1082,-2.0749,-2.0612,-2.0562,-2.0511,-2.0093,-1.9823,0.0,0.0,0.0,0.0,0.0,0.0,0.0,0.0,0.0,0.0,0.0,0.0,0.0,0.0,0.0,0.0,0.0,0.0,0.0,0.0,0.0,0.0,0.0,0.0,0.0,0.0,0.0,0.0,0.0,0.0,0.0,0.0,0.0,0.0,0.0,0.0,0.0,-1.8527,-1.9116,0.0,0.0,-2.113,-2.1598,-2.2279,-2.2637,-2.2822,-2.3076,-2.2969,-2.2726,-2.2129,0.0,0.0,-2.067,-2.019,-1.9948,-2.0156,-2.0047,-2.0167,0.0,0.0,0.0,0.0,0.0,0.0,0.0,0.0,0.0,0.0,0.0,0.0,0.0,0.0,0.0,0.0,-1.9366,-1.9553,-1.996,-2.014,-2.0428,-2.0848,-2.1022,-2.1109,-2.1109,-2.1109,-2.1109,-2.1109,-2.1109,-2.1109,-2.1109,0.0,0.0,0.0,-2.0982,-2.0835,-2.0635,-2.0221,-1.8962,-1.7194,-1.5277,-1.3526,-1.1976,0.0,0.0,0.0,0.0,0.0,0.0,-2.1841,-2.1471,-2.1131,-2.0898,-2.0662,-2.0562,-2.0562,-2.0296,-2.0144,-2.0042,0.0,0.0,0.0,0.0,0.0,0.0,0.0,0.0,0.0,0.0,0.0,0.0,0.0,0.0,0.0,0.0,0.0,0.0,0.0,0.0,0.0,0.0,0.0,0.0,0.0,0.0,0.0,0.0,0.0,0.0,0.0,0.0,0.0,0.0,0.0,0.0,0.0,0.0,0.0,0.0,-2.0633,-2.1024,-2.1797,-2.2142,-2.2402,-2.2695,-2.2591,-2.2256,0.0,0.0,0.0,-2.0313,-1.9934,-1.9715,-1.993,-1.9842,-1.9918,-2.0086,0.0,-2.0738,0.0,0.0,0.0,0.0,0.0,0.0,0.0,0.0,0.0,0.0,0.0,0.0,0.0,-1.9366,-1.9499,-1.9786,-2.0,-2.0287,-2.0675,-2.0882,-2.1022,-2.1109,-2.1109,-2.1109,-2.1109,-2.1109,-2.1109,-2.1109,0.0,0.0,0.0,-2.1109,-2.0989,-2.0768,-2.0381,-1.8859,-1.6695,-1.5183,-1.3287,-1.1378,0.0,0.0,0.0,0.0,0.0,0.0,0.0,-2.1471,-2.118,-2.118,-2.0898,-2.0699,-2.0699,-2.0562,-2.041,-2.0233,0.0,0.0,0.0,0.0,0.0,0.0,0.0,0.0,0.0,0.0,0.0,-2.1416,0.0,0.0,0.0,0.0,0.0,0.0,0.0,0.0,0.0,0.0,0.0,0.0,0.0,0.0,0.0,0.0,0.0,0.0,0.0,0.0,0.0,0.0,0.0,0.0,0.0,0.0,0.0,0.0,-2.0094,-2.0657,-2.0889,-2.139,-2.1894,-2.1894,-2.17,-2.1432,0.0,0.0,0.0,-2.0196,-1.9701,-1.9291,-1.9434,-1.9826,-2.0008,-1.9752,-1.9422,0.0,0.0,0.0,0.0,0.0,0.0,0.0,0.0,0.0,0.0,0.0,0.0,0.0,0.0,-1.9366,-1.9499,-1.9786,-1.9806,-2.0087,-2.0668,-2.0681,-2.0822,-2.1109,-2.1109,-2.1109,-2.1109,-2.1109,-2.1109,0.0,0.0,0.0,0.0,-2.1109,-2.1109,-2.1049,-2.0461,-1.8239,-1.5453,-1.4886,-1.2573,-0.9819,0.0,0.0,0.0,0.0,0.0,0.0,0.0,-2.0718,-2.0676,-2.0845,-2.0749,-2.0699,-2.0699,-2.0562,-2.0398,-2.0233,0.0,0.0,0.0,0.0,0.0,0.0,0.0,0.0,0.0,0.0,-2.0478,-2.0863,-2.1392,-2.139,0.0,0.0,0.0,0.0,0.0,0.0,0.0,0.0,0.0,0.0,0.0,0.0,0.0,0.0,0.0,0.0,0.0,0.0,0.0,0.0,0.0,0.0,0.0,0.0,0.0,-1.8865,0.0,0.0,-2.0571,-2.0833,-2.1087,-2.1374,-2.1275,-2.1033,-2.0677,0.0,0.0,-1.9642,-1.9273,-1.9147,-1.9475,-1.9604,-1.9774,-1.9965,-1.9962,0.0,0.0,0.0,0.0,0.0,0.0,0.0,0.0,0.0,0.0,0.0,0.0,0.0,0.0,-1.9366,-1.9412,-1.9499,-1.9693,-1.9887,-2.0074,-2.0474,-2.0722,-2.0815,-2.1015,-2.1109,-2.1109,-2.1109,0.0,0.0,0.0,0.0,0.0,-2.1109,-2.1109,-2.1049,-2.0461,-1.8239,-1.5458,-1.4766,-1.2573,-0.9822,0.0,0.0,0.0,0.0,0.0,0.0,0.0,-2.0111,-2.006,-2.0245,-2.014,-1.9995,-1.996,-1.9876,-1.9716,-1.9556,0.0,0.0,0.0,0.0,0.0,0.0,0.0,0.0,0.0,-1.9672,-1.9893,-2.0001,-2.0722,-2.0771,-2.0143,-2.0699,-2.0699,0.0,0.0,0.0,0.0,0.0,0.0,0.0,0.0,0.0,-1.8008,0.0,0.0,0.0,0.0,0.0,0.0,0.0,0.0,0.0,0.0,0.0,0.0,0.0,-1.9077,0.0,0.0,-2.0259,-2.0396,-2.0652,-2.0555,0.0,0.0,0.0,0.0,-1.9356,-1.9231,-1.9154,-1.9264,-1.9406,-1.9668,-1.9748,-2.0047,0.0,0.0,0.0,0.0,0.0,0.0,0.0,0.0,0.0,0.0,0.0,0.0,0.0,0.0,0.0,-1.9366,-1.9366,-1.9546,-1.9686,-1.98,-2.016,-2.0454,-2.0681,-2.0862,-2.1002,-2.1109,-2.1109,0.0,0.0,0.0,0.0,0.0,-2.1109,-2.1109,-2.1049,-2.0461,-1.8239,-1.5458,-1.4766,-1.2573,-0.9822,0.0,0.0,0.0,0.0,0.0,0.0,0.0,0.0,0.0,0.0,-1.9139,-1.8865,-1.8825,-1.8686,-1.8546,0.0,0.0,0.0,0.0,0.0,0.0,0.0,0.0,0.0,0.0,-1.9468,-1.9487,-1.9041,-1.9989,-2.0193,-1.9722,-2.0002,-2.0138,-2.0127,-1.9509,-1.941,-1.9639,-1.8998,-1.8865,-1.8844,-1.8269,-1.8008,0.0,0.0,0.0,0.0,0.0,0.0,0.0,0.0,0.0,0.0,0.0,0.0,0.0,0.0,0.0,0.0,0.0,0.0,0.0,0.0,0.0,0.0,0.0,0.0,0.0,0.0,0.0,0.0,-1.8772,-1.933,-1.9683,-1.9256,-1.9804,0.0,0.0,0.0,0.0,0.0,0.0,0.0,0.0,0.0,0.0,0.0,0.0,0.0,0.0,0.0,-1.9366,-1.9366,-1.9366,-1.9499,-1.9766,-1.9786,-2.0074,-2.0615,-2.0635,-2.0802,-2.1076,-2.1076,0.0,0.0,0.0,0.0,0.0,-2.1109,-2.1096,-2.1022,-2.0454,-1.8233,-1.5438,-1.4761,-1.2573,-0.9822,0.0,0.0,0.0,0.0,0.0,0.0,0.0,0.0,0.0,0.0,-1.8957,-1.8865,-1.8825,-1.8686,-1.8546,0.0,0.0,0.0,0.0,0.0,0.0,0.0,0.0,0.0,0.0,-1.9107,-1.8952,-1.8518,-1.9018,-1.8804,-1.7818,-1.8291,-1.8217,-1.7607,-1.806,-1.8405,-1.8664,-1.8472,-1.8337,-1.8202,-1.8076,-1.8008,0.0,0.0,0.0,0.0,-1.7529,-1.7392,0.0,0.0,0.0,0.0,0.0,0.0,0.0,0.0,-1.8751,-1.9301,-1.9381,0.0,-1.946,-1.946,-1.9381,0.0,0.0,0.0,0.0,0.0,0.0,0.0,0.0,0.0,0.0,0.0,0.0,0.0,0.0,0.0,0.0,0.0,0.0,0.0,0.0,0.0,0.0,0.0,0.0,0.0,0.0,0.0,-1.9366,-1.9366,-1.9366,-1.9399,-1.9466,-1.9686,-1.9867,-2.0007,-2.0234,-2.0488,-2.0775,-2.0775,0.0,0.0,0.0,0.0,-2.1109,-2.1109,-2.0982,-2.0742,-2.0374,-1.8118,-1.5095,-1.4705,-1.2573,-0.9822,0.0,0.0,0.0,0.0,0.0,0.0,0.0,0.0,0.0,0.0,0.0,0.0,0.0,0.0,0.0,0.0,0.0,0.0,0.0,0.0,0.0,0.0,0.0,0.0,-1.8987,-1.8987,-1.8655,-1.7886,-1.8313,-1.7989,-1.6956,-1.7374,-1.7308,-1.6874,-1.7427,-1.7678,-1.7782,-1.8055,-1.8066,-1.7862,-1.794,0.0,0.0,0.0,0.0,0.0,-1.7382,-1.7245,0.0,-1.7038,-1.6968,-1.6908,0.0,0.0,0.0,0.0,-1.8678,-1.9301,-1.9301,-1.9301,-1.9301,-1.9301,-1.9301,-1.9301,0.0,0.0,0.0,0.0,0.0,0.0,0.0,0.0,0.0,0.0,0.0,0.0,0.0,0.0,0.0,0.0,0.0,0.0,0.0,0.0,0.0,0.0,0.0,0.0,0.0,0.0,-1.9366,-1.9366,-1.9366,-1.9366,-1.9366,-1.9519,-1.9666,-1.9806,-1.996,-2.0187,-2.0474,-2.0474,0.0,0.0,0.0,0.0,-2.0708,-2.0708,-2.0615,-2.0441,-2.0147,-1.8456,-1.5991,-1.4924,-1.3531,-1.1856,0.0,0.0,0.0,0.0,0.0,0.0,0.0,0.0,0.0,0.0,0.0,0.0,0.0,0.0,0.0,0.0,0.0,0.0,0.0,0.0,0.0,0.0,0.0,-1.8987,-1.8881,-1.8881,-1.8387,-1.7335,-1.771,-1.7375,-1.6447,-1.6665,-1.683,-1.7001,-1.7252,-1.7346,-1.7282,-1.7784,-1.7862,-1.7706,-1.7862,0.0,0.0,0.0,0.0,0.0,0.0,0.0,0.0,-1.6908,-1.6908,-1.6908,-1.6908,0.0,0.0,0.0,0.0,0.0,-1.9301,-1.9301,-1.9301,-1.9301,-1.9301,-1.9301,-1.9301,0.0,0.0,0.0,0.0,0.0,0.0,0.0,0.0,0.0,0.0,0.0,0.0,0.0,0.0,0.0,0.0,0.0,0.0,0.0,0.0,0.0,0.0,0.0,0.0,0.0,0.0,-1.9366,-1.9366,-1.9366,-1.9366,-1.9366,-1.9492,-1.9733,-1.9733,-1.9887,-2.0167,-2.0167,-2.0187,0.0,0.0,0.0,-2.0234,-2.0234,-2.0207,-2.014,-1.99,-1.879,-1.7142,-1.5504,-1.4842,-1.4366,0.0,0.0,0.0,0.0,0.0,0.0,0.0,0.0,0.0,0.0,0.0,0.0,0.0,0.0,0.0,0.0,0.0,0.0,0.0,0.0,0.0,0.0,-1.8758,-1.8827,-1.8441,-1.8387,-1.7897,-1.692,-1.6853,-1.6488,-1.583,-1.5693,-1.6068,-1.6748,-1.7187,-1.7578,-1.7842,-1.7765,-1.7706,-1.7706,-1.7598,0.0,0.0,0.0,0.0,0.0,0.0,0.0,0.0,-1.6908,-1.6908,-1.6908,-1.6908,0.0,0.0,0.0,0.0,0.0,-1.9301,-1.939,-1.9478,-1.9301,-1.9301,-1.9301,-1.9301,0.0,0.0,0.0,0.0,0.0,0.0,0.0,0.0,0.0,0.0,0.0,0.0,0.0,0.0,0.0,0.0,0.0,0.0,0.0,0.0,0.0,0.0,0.0,0.0,0.0,0.0,-1.9366,-1.9366,-1.9366,-1.9366,-1.9366,-1.9392,-1.9432,-1.9432,-1.9586,-1.9867,-1.9867,-2.0,0.0,0.0,-2.0234,-2.0234,-2.0234,-2.0087,-1.986,-1.982,-1.8676,-1.702,-1.6744,-1.5784,-1.4604,0.0,0.0,0.0,0.0,0.0,0.0,0.0,0.0,0.0,0.0,0.0,0.0,0.0,0.0,0.0,0.0,0.0,0.0,0.0,0.0,0.0,-1.8295,-1.867,-1.8732,-1.8333,-1.8224,-1.7678,-1.6694,-1.6503,-1.6104,-1.5546,-1.5713,-1.5916,-1.622,-1.6941,-1.7206,-1.7197,-1.7493,-1.752,-1.7432,0.0,0.0,0.0,0.0,0.0,0.0,0.0,0.0,0.0,0.0,-1.6908,-1.6908,-1.6908,0.0,0.0,0.0,0.0,0.0,-1.9301,-1.939,-1.9469,-1.9478,-1.9548,-1.9618,-1.9618,0.0,0.0,0.0,0.0,0.0,0.0,0.0,0.0,0.0,0.0,0.0,0.0,0.0,0.0,0.0,0.0,0.0,0.0,0.0,0.0,0.0,0.0,0.0,0.0,0.0,0.0,0.0,-1.9366,-1.9366,-1.9366,-1.9366,-1.9366,-1.9366,-1.9366,-1.9432,-1.9566,-1.9566,-1.9639,-1.9766,0.0,-1.9766,-1.9766,-1.9766,-1.9686,-1.9566,-1.9566,-1.9005,-1.8286,-1.8286,-1.7331,-1.602,0.0,0.0,0.0,0.0,0.0,0.0,0.0,0.0,0.0,0.0,0.0,0.0,0.0,0.0,0.0,0.0,0.0,0.0,0.0,0.0,-1.7715,-1.8013,-1.827,-1.8335,-1.8104,-1.7941,-1.739,-1.641,-1.6218,-1.5864,-1.5371,-1.5799,-1.594,-1.5952,-1.6699,-1.6949,-1.6786,-1.725,-1.7314,-1.7235,0.0,0.0,0.0,0.0,0.0,0.0,0.0,0.0,0.0,0.0,0.0,0.0,0.0,0.0,0.0,-1.8128,-1.8678,-1.9301,-1.9301,-1.9301,-1.939,-1.9557,0.0,-1.9803,-1.9986,0.0,0.0,0.0,0.0,0.0,0.0,0.0,0.0,0.0,0.0,0.0,0.0,0.0,0.0,0.0,0.0,0.0,0.0,0.0,0.0,0.0,0.0,0.0,0.0,0.0,0.0,0.0,-1.9366,-1.9366,-1.9366,-1.9366,-1.9366,-1.9366,-1.9366,-1.9366,-1.9366,-1.9366,-1.9366,-1.9366,-1.9366,-1.9366,-1.9366,-1.9366,-1.9366,-1.9366,-1.9366,-1.9366,-1.9366,-1.9366,-1.8642,-1.7689,0.0,0.0,0.0,0.0,0.0,0.0,0.0,0.0,0.0,0.0,0.0,0.0,0.0,0.0,0.0,0.0,0.0,0.0,0.0,0.0,-1.7013,-1.6846,-1.7191,-1.741,-1.749,-1.7346,-1.6797,-1.573,-1.573,-1.5556,-1.5215,-1.5508,-1.5847,-1.6163,-1.6712,-1.714,-1.7423,-1.7304,-1.7235,-1.7166,-1.7038,0.0,0.0,0.0,0.0,0.0,0.0,0.0,0.0,0.0,0.0,0.0,0.0,0.0,-1.8128,-1.8128,-1.8678,-1.9301,-1.9301,-1.9469,-1.9566,-1.9566,-1.9469,0.0,-2.0353,-2.0395,0.0,0.0,0.0,0.0,0.0,0.0,0.0,0.0,0.0,0.0,0.0,0.0,0.0,0.0,0.0,0.0,0.0,0.0,0.0,0.0,0.0,0.0,0.0,0.0,0.0,0.0,0.0,-1.9366,-1.9366,-1.9366,-1.9366,-1.9366,-1.9366,-1.9366,-1.9366,-1.9366,-1.9366,-1.9366,-1.9366,-1.9366,-1.9366,-1.9366,-1.9366,-1.9366,-1.9366,-1.9366,-1.9366,-1.9366,-1.9366,-1.9243,0.0,0.0,0.0,0.0,0.0,0.0,0.0,0.0,0.0,0.0,0.0,0.0,0.0,0.0,0.0,0.0,0.0,0.0,0.0,0.0,-1.7279,-1.7224,-1.7129,-1.6972,-1.6698,-1.6652,-1.6332,-1.5672,-1.5508,-1.5332,-1.5234,-1.5714,-1.5987,-1.6038,-1.6788,-1.7104,-1.7116,-1.7038,-1.7038,-1.7038,-1.6908,-1.6908,0.0,0.0,0.0,0.0,0.0,0.0,0.0,0.0,-1.6908,-1.6908,0.0,-1.7468,-1.8128,-1.8128,-1.8678,-1.9301,-1.9301,-1.9469,-1.9566,-1.9566,0.0,0.0,0.0,0.0,0.0,0.0,0.0,0.0,0.0,0.0,0.0,0.0,0.0,0.0,0.0,0.0,0.0,0.0,0.0,0.0,0.0,0.0,0.0,0.0,0.0,0.0,0.0,0.0,0.0,0.0,0.0,-1.9178,-1.9366,-1.9366,-1.9366,-1.9366,-1.9366,-1.9366,-1.9366,-1.9366,-1.9366,-1.9366,-1.9366,-1.9366,-1.9366,-1.9366,-1.9366,-1.9366,-1.9366,-1.9366,-1.9366,-1.9366,-1.9366,-1.9366,0.0,0.0,0.0,0.0,0.0,0.0,0.0,0.0,0.0,0.0,0.0,0.0,0.0,0.0,0.0,0.0,0.0,0.0,0.0,-1.7298,-1.7237,-1.7138,-1.6765,-1.6346,-1.6026,-1.6026,-1.5864,-1.5604,-1.5399,-1.5348,-1.5367,-1.5807,-1.6011,-1.6039,-1.6671,-1.6917,-1.6908,-1.6908,-1.6908,-1.6908,-1.6908,-1.6908,0.0,0.0,0.0,0.0,0.0,0.0,0.0,0.0,-1.6908,0.0,0.0,0.0,0.0,0.0,-1.8678,-1.9222,-1.9063,-1.9231,-1.9478,0.0,0.0,0.0,0.0,0.0,0.0,0.0,0.0,0.0,0.0,0.0,0.0,0.0,0.0,0.0,0.0,0.0,0.0,0.0,0.0,0.0,0.0,0.0,0.0,0.0,0.0,0.0,0.0,0.0,0.0,0.0,0.0,-1.9018,-1.9225,-1.9319,-1.9366,-1.9366,-1.9366,-1.9366,-1.9366,-1.9366,-1.9366,-1.9366,-1.9366,-1.9366,-1.9366,-1.9366,-1.9366,-1.9366,-1.9366,-1.9366,-1.9366,-1.9366,-1.9366,-1.9366,0.0,0.0,0.0,0.0,0.0,0.0,0.0,0.0,0.0,0.0,0.0,0.0,0.0,0.0,0.0,0.0,0.0,0.0,-1.7593,-1.7032,-1.6627,-1.6417,-1.5792,-1.5467,-1.54,-1.541,-1.541,-1.541,-1.5549,-1.5586,-1.5586,-1.5696,-1.5918,-1.6321,-1.6321,-1.6541,-1.6908,-1.6908,-1.6908,-1.6908,-1.6908,-1.6908,-1.6908,0.0,0.0,0.0,0.0,0.0,0.0,0.0,-1.6908,0.0,0.0,0.0,0.0,-1.8128,-1.8687,-1.9143,-1.8505,-1.8816,0.0,0.0,0.0,0.0,0.0,0.0,0.0,0.0,0.0,0.0,0.0,0.0,0.0,0.0,0.0,0.0,0.0,0.0,0.0,0.0,0.0,0.0,0.0,0.0,0.0,0.0,0.0,0.0,0.0,0.0,0.0,0.0,0.0,0.0,-1.8918,-1.9219,-1.9366,-1.9366,-1.9366,-1.9366,-1.9366,-1.9366,-1.9366,-1.9366,-1.9366,-1.9366,-1.9366,-1.9366,-1.9366,-1.9366,-1.9366,-1.9366,-1.9366,-1.9366,-1.9366,-1.9366,0.0,0.0,0.0,0.0,0.0,0.0,0.0,0.0,0.0,0.0,0.0,0.0,0.0,0.0,0.0,0.0,0.0,0.0,-1.8027,-1.7315,-1.6863,-1.684,-1.5946,-1.5399,-1.5254,-1.5147,-1.5196,-1.541,-1.5549,-1.5586,-1.5595,-1.5938,-1.6202,-1.6331,-1.6606,-1.6798,-1.6908,-1.6908,-1.6908,-1.6839,-1.6491,-1.6342,-1.6342,0.0,0.0,0.0,0.0,0.0,0.0,0.0,0.0,0.0,0.0,0.0,0.0,-1.784,-1.8197,-1.8656,-1.8904,-1.9054,0.0,0.0,0.0,0.0,0.0,0.0,0.0,0.0,0.0,0.0,0.0,0.0,0.0,0.0,0.0,0.0,0.0,0.0,0.0,0.0,0.0,0.0,0.0,0.0,0.0,0.0,0.0,0.0,0.0,0.0,0.0,0.0,0.0,0.0,-1.8617,-1.8905,-1.9058,-1.9058,-1.9265,-1.9366,-1.9366,-1.9366,-1.9366,-1.9366,-1.9366,-1.9366,-1.9366,-1.9366,-1.9366,-1.9366,-1.9366,-1.9366,-1.9366,-1.9366,-1.9366,-1.9366,0.0,0.0,0.0,0.0,0.0,0.0,0.0,0.0,0.0,0.0,0.0,0.0,0.0,0.0,0.0,0.0,0.0,0.0,0.0,0.0,-1.6888,-1.6842,-1.5816,-1.5196,-1.5098,-1.5039,-1.5088,-1.5245,-1.5378,-1.5463,-1.5482,-1.6067,-1.6321,-1.634,-1.6519,-1.67,-1.6908,-1.6621,-1.6482,-1.656,-1.6123,-1.5921,-1.5771,0.0,0.0,0.0,0.0,0.0,0.0,0.0,0.0,0.0,0.0,0.0,0.0,-1.7433,-1.7723,-1.8264,-1.8585,0.0,0.0,0.0,0.0,0.0,0.0,0.0,0.0,0.0,0.0,0.0,0.0,0.0,0.0,0.0,0.0,0.0,0.0,0.0,0.0,0.0,0.0,0.0,0.0,0.0,0.0,0.0,0.0,0.0,0.0,0.0,0.0,0.0,0.0,0.0,-1.831,-1.8604,-1.8751,-1.8751,-1.9052,-1.9192,-1.9192,-1.9312,-1.9366,-1.9366,-1.9366,-1.9366,-1.9366,-1.9366,-1.9366,-1.9366,-1.9366,-1.9366,-1.9366,-1.9366,-1.9366,-1.9366,0.0,0.0,0.0,0.0,0.0,0.0,0.0,0.0,0.0,0.0,0.0,0.0,0.0,0.0,0.0,0.0,0.0,0.0,0.0,0.0,-1.6719,-1.6513,-1.5546,-1.497,-1.497,-1.5008,-1.5027,-1.5027,-1.5224,-1.5287,-1.5306,-1.6002,-1.6321,-1.6264,-1.6173,-1.6342,-1.6769,-1.6044,-1.5833,-1.5991,-1.57,-1.5409,-1.5054,-1.5054,0.0,0.0,0.0,0.0,0.0,0.0,0.0,0.0,0.0,-1.6719,-1.7258,-1.6851,-1.7199,-1.7789,0.0,0.0,0.0,0.0,0.0,0.0,0.0,0.0,0.0,0.0,0.0,0.0,0.0,0.0,0.0,0.0,0.0,0.0,0.0,0.0,0.0,0.0,0.0,0.0,0.0,0.0,0.0,0.0,0.0,0.0,0.0,0.0,0.0,0.0,0.0,0.0,-1.8003,-1.8303,-1.845,0.0,-1.8744,-1.8885,-1.8898,-1.9219,-1.9366,-1.9366,-1.9366,-1.9366,-1.9366,-1.9366,-1.9366,-1.9366,-1.9366,-1.9366,-1.9366,-1.9366,-1.9366,-1.9366,0.0,0.0,0.0,0.0,0.0,0.0,0.0,0.0,0.0,0.0,0.0,0.0,0.0,0.0,0.0,0.0,0.0,0.0,0.0,0.0,-1.64,-1.5826,-1.5128,-1.4775,-1.4775,-1.4981,-1.5096,-1.5096,-1.5241,-1.5287,-1.5306,-1.6002,-1.6321,-1.6264,-1.6173,-1.6132,-1.6202,-1.5409,-1.5117,-1.5117,-1.4474,-1.4186,-1.4122,-1.4122,-1.4122,0.0,0.0,0.0,0.0,0.0,0.0,0.0,-1.5427,-1.6017,-1.6308,-1.6013,-1.6085,-1.6304,0.0,0.0,0.0,0.0,0.0,0.0,0.0,0.0,0.0,0.0,0.0,0.0,0.0,0.0,0.0,0.0,0.0,0.0,0.0,0.0,0.0,0.0,0.0,0.0,0.0,0.0,0.0,0.0,0.0,0.0,0.0,0.0,0.0,0.0,0.0,-1.7682,-1.7682,-1.7989,-1.8143,0.0,-1.8444,-1.8584,-1.8604,-1.9132,-1.9366,-1.9366,-1.9366,-1.9366,-1.9366,-1.9366,-1.9366,-1.9366,-1.9366,-1.9366,-1.9366,-1.9366,-1.9366,-1.9366,0.0,0.0,0.0,0.0,0.0,0.0,0.0,0.0,0.0,0.0,0.0,0.0,0.0,0.0,0.0,0.0,0.0,0.0,0.0,0.0,0.0,-1.5079,-1.4784,-1.4616,-1.4616,-1.4952,-1.5102,-1.5102,-1.5294,-1.526,-1.5061,-1.5622,-1.5855,-1.5783,-1.5521,-1.548,-1.563,-1.4625,-1.4266,-1.4186,-1.384,-1.355,-1.3404,-1.3404,-1.3404,-1.3404,-1.3477,0.0,0.0,0.0,0.0,0.0,0.0,0.0,-1.5702,-1.5306,-1.5401,-1.5643,0.0,0.0,0.0,0.0,0.0,0.0,0.0,0.0,0.0,0.0,0.0,0.0,0.0,0.0,0.0,0.0,0.0,0.0,0.0,0.0,0.0,0.0,0.0,0.0,0.0,0.0,0.0,0.0,0.0,0.0,0.0,0.0,0.0,0.0,-1.7582,-1.7582,-1.7582,-1.7742,-1.7822,-1.7829,-1.8136,-1.835,-1.8504,-1.8951,-1.9232,-1.9366,-1.9366,-1.9366,-1.9366,-1.9366,-1.9366,-1.9366,-1.9366,-1.9366,-1.9366,-1.9366,-1.9366,-1.9366,0.0,0.0,0.0,0.0,0.0,0.0,0.0,0.0,0.0,0.0,0.0,0.0,0.0,0.0,0.0,0.0,0.0,0.0,0.0,0.0,0.0,-1.4515,-1.4579,-1.4616,-1.4616,-1.4939,-1.5177,-1.5241,-1.5386,0.0,0.0,0.0,-1.5181,-1.495,-1.46,-1.4609,-1.4919,-1.3775,-1.3331,-1.3317,-1.3339,-1.3119,-1.282,-1.282,-1.282,-1.282,-1.2826,-1.282,-1.2907,-1.3404,0.0,0.0,0.0,0.0,-1.5139,-1.4747,-1.4901,-1.5235,0.0,0.0,0.0,0.0,0.0,0.0,0.0,0.0,0.0,0.0,0.0,0.0,0.0,0.0,0.0,0.0,0.0,0.0,0.0,0.0,0.0,0.0,0.0,0.0,0.0,0.0,0.0,0.0,0.0,0.0,0.0,0.0,-1.7582,-1.7582,-1.7582,-1.7582,-1.7582,-1.7582,-1.7582,-1.7589,-1.7842,-1.8123,-1.8424,-1.8664,-1.8931,-1.9219,-1.9265,-1.9292,-1.9292,-1.9345,-1.9366,-1.9366,-1.9366,-1.9366,-1.9366,-1.9366,-1.9366,-1.9366,0.0,0.0,0.0,0.0,0.0,0.0,0.0,0.0,0.0,0.0,0.0,0.0,0.0,0.0,0.0,0.0,0.0,0.0,-1.6368,0.0,0.0,-1.4533,-1.4836,-1.5019,-1.5019,-1.5224,-1.553,-1.5873,0.0,0.0,0.0,0.0,0.0,-1.4178,0.0,-1.3753,-1.3905,-1.2886,-1.2526,-1.2673,-1.2526,-1.2452,-1.2378,-1.2378,-1.2378,-1.2378,-1.2599,-1.2526,-1.2566,-1.3508,-1.3593,0.0,0.0,0.0,0.0,-1.4243,-1.425,0.0,0.0,0.0,0.0,0.0,0.0,0.0,0.0,0.0,0.0,0.0,0.0,0.0,0.0,0.0,0.0,0.0,0.0,0.0,0.0,0.0,0.0,0.0,0.0,0.0,0.0,0.0,0.0,0.0,0.0,0.0,0.0,-1.7582,-1.7582,-1.7582,-1.7582,-1.7582,-1.7582,-1.7582,-1.7582,-1.7582,-1.7622,-1.7809,-1.8103,-1.8143,-1.8323,-1.8624,-1.8878,-1.8985,-1.8998,-1.9259,-1.9366,-1.9366,-1.9366,-1.9366,-1.9366,-1.9366,-1.9366,-1.9366,0.0,0.0,0.0,0.0,0.0,0.0,0.0,0.0,0.0,0.0,0.0,0.0,0.0,0.0,0.0,-1.7412,-1.6719,-1.6138,-1.5752,-1.5566,-1.5349,-1.5184,-1.5214,-1.5115,-1.4842,-1.5033,-1.5035,-1.4848,0.0,0.0,0.0,-1.3818,-1.3757,0.0,0.0,0.0,0.0,-1.2592,-1.2298,-1.2305,-1.2298,-1.2305,-1.2305,-1.2305,-1.2305,-1.2325,-1.2641,-1.2627,-1.2674,-1.3292,-1.3444,-1.3474,-1.3838,0.0,0.0,0.0,0.0,0.0,0.0,0.0,0.0,0.0,0.0,0.0,0.0,0.0,0.0,0.0,0.0,0.0,0.0,0.0,0.0,0.0,0.0,0.0,0.0,0.0,0.0,0.0,0.0,0.0,0.0,0.0,0.0,0.0,0.0,0.0,-1.7582,-1.7582,-1.7582,-1.7582,-1.7582,-1.7582,-1.7582,-1.7582,-1.7582,-1.7582,-1.7582,-1.7655,-1.7789,-1.7789,-1.8043,-1.8497,-1.8624,-1.8684,-1.8704,-1.8998,-1.9118,-1.9132,-1.9299,-1.9366,-1.9366,-1.9366,-1.9366,-1.9366,0.0,0.0,0.0,0.0,0.0,0.0,0.0,0.0,0.0,0.0,0.0,0.0,0.0,0.0,0.0,0.0,-1.6216,-1.5708,-1.5417,-1.5689,-1.5799,-1.5633,-1.5604,-1.5257,-1.4703,-1.4782,-1.4555,0.0,0.0,0.0,-1.3317,-1.3039,-1.3046,0.0,-1.2973,0.0,0.0,0.0,0.0,0.0,-1.2224,-1.2305,-1.2311,-1.2385,-1.2412,-1.2452,-1.2759,-1.2866,-1.2913,-1.322,-1.346,-1.3572,-1.3734,-1.3908,0.0,0.0,0.0,0.0,0.0,0.0,0.0,0.0,0.0,0.0,0.0,0.0,0.0,0.0,0.0,0.0,0.0,0.0,0.0,0.0,0.0,0.0,0.0,0.0,0.0,0.0,0.0,0.0,0.0,0.0,0.0,0.0,0.0,0.0,-1.7582,-1.7582,-1.7582,-1.7582,-1.7582,-1.7582,-1.7582,-1.7582,-1.7582,-1.7582,-1.7582,-1.7582,-1.7582,-1.7582,-1.7829,-1.8263,-1.8343,-1.8377,-1.8404,-1.8691,-1.8858,-1.8945,-1.9165,-1.9299,-1.9366,-1.9366,-1.9366,-1.9366,0.0,0.0,0.0,0.0,0.0,0.0,0.0,0.0,0.0,0.0,0.0,0.0,-1.8008,-1.7552,-1.7259,-1.7451,-1.6882,-1.6271,-1.5716,-1.6056,-1.5978,-1.5467,-1.58,0.0,-1.49,-1.472,-1.4407,0.0,0.0,0.0,-1.2893,-1.29,-1.2673,-1.2378,-1.215,-1.2157,-1.2298,0.0,0.0,0.0,0.0,-1.2305,-1.2331,-1.2619,-1.2802,0.0,0.0,0.0,-1.3233,-1.3527,-1.3552,-1.3694,-1.3975,-1.4075,-1.4088,0.0,0.0,0.0,0.0,0.0,0.0,0.0,0.0,0.0,0.0,0.0,0.0,0.0,0.0,0.0,0.0,0.0,0.0,0.0,0.0,0.0,0.0,0.0,0.0,0.0,0.0,0.0,0.0,0.0,0.0,0.0,0.0,0.0,-1.7582,-1.7582,-1.7582,-1.7582,-1.7582,-1.7582,-1.7582,-1.7582,-1.7582,-1.7582,-1.7582,-1.7582,-1.7582,-1.7582,-1.7602,-1.7649,-1.7943,-1.807,-1.809,-1.839,-1.8677,-1.8925,-1.8945,-1.9118,-1.9366,-1.9366,-1.9366,-1.9366,0.0,0.0,0.0,0.0,0.0,0.0,0.0,0.0,0.0,0.0,0.0,0.0,0.0,-1.7379,-1.6845,-1.6931,-1.6577,-1.629,-1.6092,-1.6324,-1.641,-1.6197,-1.5705,-1.5217,-1.4505,-1.3945,-1.3432,0.0,0.0,-1.2666,-1.2526,-1.2378,-1.2305,-1.2298,-1.2077,-1.2077,-1.2305,-1.2231,0.0,0.0,0.0,0.0,0.0,0.0,0.0,0.0,0.0,0.0,0.0,-1.3828,-1.3928,-1.3948,-1.4055,-1.4088,-1.4088,0.0,0.0,0.0,0.0,0.0,0.0,0.0,0.0,0.0,0.0,0.0,0.0,0.0,0.0,0.0,0.0,0.0,0.0,0.0,0.0,0.0,0.0,0.0,0.0,0.0,0.0,0.0,0.0,0.0,0.0,0.0,0.0,0.0,-1.7582,-1.7582,-1.7582,-1.7582,-1.7582,-1.7582,-1.7582,-1.7582,-1.7582,-1.7582,-1.7582,-1.7582,-1.7582,-1.7582,-1.7582,-1.7589,-1.7702,-1.7749,-1.7769,-1.8076,-1.827,-1.8377,-1.8571,-1.8824,-1.9085,-1.9085,-1.9205,-1.9366,0.0,0.0,0.0,0.0,0.0,0.0,0.0,0.0,0.0,0.0,0.0,0.0,0.0,0.0,-1.6586,-1.6674,-1.655,-1.6369,-1.6369,-1.6477,-1.6473,-1.6403,-1.563,-1.4919,-1.4274,-1.3557,-1.29,0.0,0.0,0.0,0.0,-1.2077,-1.2077,-1.2298,-1.2077,-1.2077,0.0,0.0,0.0,-1.2478,0.0,0.0,-1.2933,0.0,0.0,0.0,0.0,0.0,0.0,0.0,0.0,0.0,0.0,0.0,0.0,0.0,0.0,0.0,0.0,0.0,0.0,0.0,0.0,0.0,0.0,0.0,0.0,0.0,0.0,0.0,0.0,0.0,0.0,0.0,0.0,0.0,0.0,0.0,0.0,0.0,0.0,0.0,0.0,0.0,0.0,0.0,0.0,0.0,-1.7582,-1.7582,-1.7582,-1.7582,-1.7582,-1.7582,-1.7582,-1.7582,-1.7582,-1.7582,-1.7582,-1.7582,-1.7582,-1.7582,-1.7582,-1.7582,-1.7582,-1.7582,-1.7595,-1.7802,-1.7956,-1.8063,-1.8263,-1.8524,-1.8791,-1.8885,-1.9052,-1.9232,0.0,0.0,0.0,0.0,0.0,0.0,0.0,0.0,0.0,-1.9141,0.0,0.0,0.0,0.0,0.0,-1.6872,-1.6682,-1.6603,-1.6603,-1.6403,-1.6202,-1.6061,-1.5488,-1.484,-1.4057,-1.3484,-1.2826,0.0,0.0,0.0,0.0,0.0,-1.2077,-1.2298,-1.209,-1.2164,-1.2338,0.0,-1.2829,-1.2862,0.0,-1.3227,-1.3253,0.0,0.0,0.0,-1.3981,-1.4088,0.0,0.0,0.0,0.0,0.0,0.0,0.0,0.0,0.0,0.0,0.0,0.0,0.0,0.0,0.0,0.0,0.0,0.0,0.0,0.0,0.0,0.0,0.0,0.0,0.0,0.0,0.0,0.0,0.0,0.0,0.0,0.0,0.0,0.0,0.0,0.0,0.0,0.0,0.0,-1.7582,-1.7582,-1.7582,-1.7582,-1.7582,-1.7582,-1.7582,-1.7582,-1.7582,-1.7582,-1.7582,-1.7582,-1.7582,-1.7582,-1.7582,-1.7582,-1.7582,-1.7582,-1.7582,-1.7582,-1.7582,-1.7762,-1.8029,-1.8029,-1.8217,-1.851,-1.8791,-1.8911,-1.8965,0.0,0.0,0.0,0.0,0.0,0.0,0.0,0.0,-1.9511,0.0,0.0,0.0,-1.7783,-1.7203,-1.678,-1.6673,-1.6603,-1.6542,-1.6412,-1.6272,-1.5921,-1.5488,-1.4776,-1.4129,-1.3484,-1.2893,-1.2452,-1.2231,0.0,0.0,0.0,0.0,0.0,0.0,-1.2525,-1.2625,-1.2701,-1.2788,0.0,0.0,-1.3407,-1.3527,0.0,0.0,0.0,0.0,0.0,-1.4088,0.0,0.0,-1.4088,-1.4088,0.0,0.0,0.0,0.0,0.0,0.0,-1.4088,0.0,0.0,0.0,0.0,0.0,0.0,0.0,0.0,0.0,0.0,0.0,0.0,0.0,0.0,0.0,0.0,0.0,0.0,0.0,0.0,0.0,0.0,0.0,0.0,0.0,0.0,0.0,-1.7582,-1.7582,-1.7582,-1.7582,-1.7582,-1.7582,-1.7582,-1.7582,-1.7582,-1.7582,-1.7582,-1.7582,-1.7582,-1.7582,-1.7582,-1.7582,-1.7582,-1.7582,-1.7582,-1.7582,-1.7582,-1.7582,-1.7629,-1.7709,-1.7709,-1.7896,-1.8183,-1.8257,-1.8557,-1.8931,0.0,0.0,0.0,0.0,0.0,0.0,0.0,0.0,-1.9452,0.0,0.0,0.0,-1.7166,-1.683,-1.6621,-1.6473,-1.6403,-1.6333,-1.6202,-1.607,-1.5709,-1.5125,-1.4418,-1.3848,-1.3193,-1.2599,-1.2305,-1.2305,0.0,0.0,0.0,0.0,0.0,0.0,0.0,0.0,0.0,0.0,0.0,0.0,-1.3714,0.0,0.0,-1.4021,-1.4088,0.0,0.0,0.0,-1.4088,-1.4088,-1.4088,0.0,0.0,0.0,0.0,0.0,0.0,0.0,0.0,0.0,0.0,0.0,0.0,0.0,0.0,-1.5097,0.0,0.0,0.0,0.0,0.0,0.0,0.0,0.0,0.0,0.0,0.0,0.0,0.0,0.0,0.0,0.0,0.0,0.0,0.0,0.0,-1.7582,-1.7582,-1.7582,-1.7582,-1.7582,-1.7582,-1.7582,-1.7582,-1.7582,-1.7582,-1.7582,-1.7582,-1.7582,-1.7582,-1.7582,-1.7582,-1.7582,-1.7582,-1.7582,-1.7582,-1.7582,-1.7582,-1.7582,-1.7582,-1.7582,-1.7695,-1.7869,-1.8003,-1.8263,-1.8591,0.0,0.0,0.0,0.0,0.0,0.0,0.0,0.0,0.0,0.0,-1.7706,-1.7028,-1.6342,-1.6272,-1.6272,-1.6272,-1.6132,-1.6061,-1.5991,-1.5788,-1.5426,-1.476,-1.4266,-1.3702,-1.3119,-1.2526,-1.2305,-1.2305,0.0,0.0,0.0,0.0,0.0,0.0,0.0,0.0,0.0,0.0,0.0,-1.3632,-1.3981,-1.4088,0.0,0.0,-1.4088,0.0,-1.4088,-1.4088,-1.4088,-1.4088,-1.4088,0.0,0.0,0.0,0.0,0.0,-1.4088,0.0,0.0,0.0,0.0,0.0,0.0,0.0,-1.479,-1.4943,-1.5117,0.0,0.0,0.0,0.0,0.0,0.0,0.0,0.0,0.0,0.0,0.0,0.0,0.0,0.0,0.0,0.0,0.0,-1.7549,-1.7582,-1.7582,-1.7582,-1.7582,-1.7582,-1.7582,-1.7582,-1.7582,-1.7582,-1.7582,-1.7582,-1.7582,-1.7582,-1.7582,-1.7582,-1.7582,-1.7582,-1.7582,-1.7582,-1.7582,-1.7582,-1.7582,-1.7582,-1.7582,-1.7582,-1.7582,-1.7582,-1.7615,-1.7896,-1.8016,-1.8123,-2.1937,0.0,0.0,0.0,0.0,0.0,0.0,0.0,-1.7842,-1.7304,-1.6959,-1.6612,-1.6342,-1.6272,-1.6272,-1.6132,-1.6132,-1.5842,-1.5188,-1.5125,-1.4625,-1.355,-1.3411,-1.3112,-1.2526,-1.2224,-1.2077,-1.2077,0.0,0.0,0.0,0.0,0.0,0.0,0.0,0.0,0.0,0.0,0.0,-1.3659,-1.3717,0.0,-1.3822,-1.3997,-1.4088,-1.4088,-1.4088,-1.4088,-1.4088,0.0,-1.4088,-1.4088,0.0,0.0,0.0,0.0,0.0,0.0,0.0,0.0,0.0,0.0,0.0,0.0,-1.4522,-1.4796,-1.5064,0.0,0.0,0.0,0.0,0.0,0.0,0.0,0.0,0.0,0.0,0.0,0.0,0.0,0.0,0.0,0.0,0.0,-1.7328,-1.7562,-1.7582,-1.7582,-1.7582,-1.7582,-1.7582,-1.7582,-1.7582,-1.7582,-1.7582,-1.7582,-1.7582,-1.7582,-1.7582,-1.7582,-1.7582,-1.7582,-1.7582,-1.7582,-1.7582,-1.7582,-1.7582,-1.7582,-1.7582,-1.7582,-1.7582,-1.7582,-1.7589,-1.7649,-1.7829,-1.8063,-2.1925,0.0,0.0,0.0,0.0,0.0,0.0,0.0,-1.7657,-1.6968,-1.6621,-1.6342,-1.607,-1.607,-1.6,-1.5938,-1.5929,-1.5788,-1.5355,-1.5054,-1.4624,-1.3859,-1.3577,-1.3201,-1.2752,-1.2676,-1.2599,-1.2599,0.0,0.0,0.0,0.0,0.0,0.0,0.0,0.0,0.0,0.0,-1.3307,-1.3392,-1.3652,0.0,-1.3913,-1.4082,-1.4088,-1.4088,-1.4088,-1.4088,-1.4088,-1.4088,-1.4088,0.0,0.0,-1.4088,-1.4088,0.0,-1.4088,-1.4088,0.0,0.0,0.0,-1.4088,0.0,0.0,0.0,-1.475,-1.505,0.0,0.0,0.0,0.0,0.0,0.0,0.0,0.0,0.0,0.0,0.0,0.0,0.0,0.0,0.0,0.0,0.0,-1.7268,-1.7562,-1.7582,-1.7582,-1.7582,-1.7582,-1.7582,-1.7582,-1.7582,-1.7582,-1.7582,-1.7582,-1.7582,-1.7582,-1.7582,-1.7582,-1.7582,-1.7582,-1.7582,-1.7582,-1.7582,-1.7582,-1.7582,-1.7582,-1.7582,-1.7582,-1.7582,-1.7582,-1.7582,-1.7582,-1.7682,-1.7836,-2.1675,0.0,0.0,0.0,0.0,0.0,0.0,0.0,-1.7588,-1.6899,-1.6551,-1.6211,-1.5867,-1.5867,-1.5867,-1.5867,-1.6007,-1.5971,0.0,0.0,-1.4796,-1.426,-1.3751,-1.3417,-1.3206,-1.3127,-1.3134,-1.3134,0.0,0.0,0.0,0.0,0.0,0.0,0.0,0.0,0.0,0.0,0.0,-1.3222,0.0,-1.3828,-1.4004,-1.4088,-1.4122,-1.4175,-1.4235,-1.4255,-1.4255,-1.417,0.0,-1.4249,-1.4103,-1.4123,0.0,0.0,0.0,0.0,0.0,0.0,0.0,0.0,0.0,-1.4162,0.0,0.0,0.0,-1.5337,0.0,0.0,0.0,0.0,0.0,0.0,0.0,0.0,0.0,0.0,0.0,0.0,0.0,0.0,0.0,0.0,-1.7188,-1.7475,-1.7502,-1.7522,-1.7575,-1.7582,-1.7582,-1.7582,-1.7582,-1.7582,-1.7582,-1.7582,-1.7582,-1.7582,-1.7582,-1.7582,-1.7582,-1.7582,-1.7582,-1.7582,-1.7582,-1.7582,-1.7582,-1.7582,-1.7582,-1.7582,-1.7582,-1.7582,-1.7582,-1.7582,-1.7582,-1.7615,-2.0828,-2.0096,0.0,0.0,0.0,0.0,0.0,0.0,-1.7166,-1.6682,-1.6403,-1.6272,0.0,0.0,0.0,0.0,0.0,0.0,-1.5209,0.0,-1.4942,-1.3389,-1.3311,-1.3252,-1.3213,-1.3055,-1.2889,-1.2889,0.0,0.0,0.0,0.0,0.0,0.0,-1.3039,0.0,0.0,0.0,-1.3228,0.0,-1.3392,-1.3568,0.0,-1.3997,-1.4249,-1.4502,-1.477,-1.4863,-1.4863,0.0,-1.4678,-1.4728,0.0,-1.4291,0.0,0.0,0.0,0.0,0.0,0.0,0.0,0.0,-1.4088,0.0,0.0,0.0,-1.505,-1.5337,0.0,0.0,0.0,0.0,0.0,0.0,0.0,0.0,0.0,0.0,0.0,0.0,0.0,0.0,0.0,0.0,0.0,-1.7174,-1.7001,-1.7114,-1.7569,-1.7582,-1.7582,-1.7582,-1.7582,-1.7582,-1.7582,-1.7582,-1.7582,-1.7582,-1.7582,-1.7582,-1.7582,-1.7582,-1.7582,-1.7582,-1.7582,-1.7582,-1.7582,-1.7582,-1.7582,-1.7582,-1.7582,-1.7582,-1.7582,-1.7582,-1.7582,-1.7589,-2.0571,-2.0237,0.0,0.0,0.0,0.0,0.0,0.0,-1.6982,-1.6777,-1.667,0.0,0.0,0.0,0.0,0.0,0.0,-1.7016,0.0,0.0,-1.4955,-1.3835,0.0,0.0,-1.3296,-1.3213,-1.3213,-1.3213,-1.2996,0.0,0.0,0.0,0.0,0.0,-1.2966,0.0,-1.2966,0.0,0.0,0.0,0.0,0.0,0.0,-1.4249,-1.4522,-1.4796,-1.4917,-1.4963,-1.4963,0.0,-1.4867,0.0,0.0,0.0,0.0,0.0,0.0,0.0,0.0,0.0,0.0,0.0,0.0,0.0,0.0,0.0,-1.5251,0.0,0.0,0.0,0.0,0.0,0.0,0.0,0.0,0.0,0.0,0.0,0.0,0.0,0.0,0.0,0.0,0.0,0.0,0.0,0.0,-1.7008,-1.7321,-1.7495,-1.7582,-1.7582,-1.7582,-1.7582,-1.7582,-1.7582,-1.7582,-1.7582,-1.7582,-1.7582,-1.7582,-1.7582,-1.7582,-1.7582,-1.7582,-1.7582,-1.7582,-1.7582,-1.7582,-1.7582,-1.7582,-1.7582,-1.7582,-1.7582,-1.7582,-1.7582,-2.015,0.0,0.0,0.0,0.0,0.0,0.0,0.0,0.0,0.0,0.0,0.0,-1.696,-1.7136,0.0,0.0,0.0,-1.7787,0.0,0.0,-1.5558,-1.4947,-1.383,0.0,0.0,-1.3646,-1.3483,-1.3398,0.0,0.0,0.0,0.0,0.0,0.0,0.0,-1.3137,-1.3137,0.0,0.0,-1.3611,-1.3815,-1.4083,-1.4402,-1.4668,-1.4897,-1.5097,-1.517,-1.5204,-1.5204,-1.5204,-1.5197,0.0,-1.5013,0.0,0.0,0.0,0.0,0.0,-1.5013,0.0,0.0,0.0,0.0,0.0,0.0,0.0,0.0,0.0,0.0,0.0,0.0,0.0,0.0,0.0,0.0,0.0,0.0,0.0,0.0,0.0,0.0,0.0,0.0,0.0,0.0,0.0,-1.6491,-1.6688,-1.7141,-1.7348,-1.7502,-1.7582,-1.7582,-1.7582,-1.7582,-1.7582,-1.7582,-1.7582,-1.7582,-1.7582,-1.7582,-1.7582,-1.7582,-1.7582,-1.7582,-1.7582,-1.7582,-1.7582,-1.7582,-1.7582,-1.7582,-1.7582,-1.7582,-1.7582,-1.7582,-1.7582,-1.9428,-1.8694,0.0,0.0,0.0,0.0,0.0,0.0,0.0,0.0,0.0,0.0,0.0,0.0,0.0,0.0,0.0,-1.9193,-1.7726,0.0,-1.7066,0.0,0.0,-1.4475,0.0,0.0,0.0,0.0,0.0,0.0,0.0,0.0,0.0,0.0,0.0,-1.3137,-1.3143,-1.3307,-1.3722,-1.4154,-1.4161,-1.4493,-1.4989,0.0,-1.5378,-1.5418,-1.5698,0.0,0.0,-1.5514,-1.5609,0.0,0.0,0.0,0.0,0.0,0.0,0.0,0.0,0.0,0.0,-1.4404,0.0,0.0,0.0,0.0,-1.5478,0.0,0.0,0.0,0.0,0.0,-1.5738,-1.5458,0.0,0.0,0.0,0.0,0.0,0.0,0.0,0.0,0.0,0.0,0.0,-1.5862,-1.5705,-1.6056,-1.7121,-1.7257,-1.7295,-1.7575,-1.7582,-1.7582,-1.7582,-1.7582,-1.7582,-1.7582,-1.7582,-1.7582,-1.7582,-1.7582,-1.7582,-1.7582,-1.7582,-1.7582,-1.7582,-1.7582,-1.7582,-1.7582,-1.7582,-1.7582,-1.7582,-1.7582,-1.7582,-1.7582,0.0,0.0,0.0,0.0,0.0,0.0,0.0,-1.8606,0.0,0.0,0.0,0.0,0.0,0.0,-1.945,0.0,0.0,-2.0102,-1.8698,-1.787,0.0,0.0,0.0,-1.3561,0.0,0.0,0.0,0.0,0.0,0.0,0.0,0.0,0.0,0.0,0.0,-1.3143,0.0,0.0,0.0,0.0,0.0,-1.4864,-1.5276,0.0,0.0,-1.5503,-1.5697,-1.5832,0.0,-1.5737,-1.573,-1.5717,-1.5523,-1.5556,-1.5812,-1.5617,-1.5657,0.0,0.0,0.0,-1.5464,-1.5284,0.0,0.0,0.0,0.0,0.0,0.0,0.0,0.0,0.0,0.0,-1.5798,-1.5698,-1.5765,-1.5792,0.0,0.0,0.0,0.0,0.0,0.0,0.0,0.0,0.0,-1.5582,-1.5765,-1.596,0.0,-1.6941,-1.7194,-1.7295,-1.7482,-1.7582,-1.7582,-1.7582,-1.7582,-1.7582,-1.7582,-1.7582,-1.7582,-1.7582,-1.7582,-1.7582,-1.7582,-1.7582,-1.7582,-1.7582,-1.7582,-1.7582,-1.7582,-1.7582,-1.7582,-1.7582,-1.7582,-1.7582,-1.9556,0.0,0.0,0.0,0.0,0.0,0.0,0.0,0.0,0.0,-1.9284,0.0,-1.9687,0.0,-2.0538,0.0,-2.1205,-2.0902,-1.9638,-1.891,0.0,-1.682,-1.5709,0.0,0.0,0.0,0.0,0.0,0.0,-1.2875,0.0,0.0,0.0,0.0,0.0,0.0,0.0,0.0,-1.4192,0.0,0.0,-1.5006,0.0,0.0,-1.5194,-1.554,0.0,-1.5832,-1.5832,-1.5832,-1.5832,-1.5832,-1.5832,-1.5832,-1.5832,-1.5832,-1.5832,-1.5737,-1.573,-1.5737,0.0,-1.5547,-1.5642,0.0,-1.5737,0.0,0.0,0.0,0.0,0.0,0.0,0.0,-1.5832,-1.5832,-1.5832,-1.5832,0.0,-1.5832,0.0,0.0,0.0,0.0,0.0,0.0,-1.4981,-1.5356,-1.5525,-1.5771,0.0,0.0,-1.6934,-1.7141,-1.7328,-1.7475,-1.7582,-1.7582,-1.7582,-1.7582,-1.7582,-1.7582,-1.7582,-1.7582,-1.7582,-1.7582,-1.7582,-1.7582,-1.7582,-1.7582,-1.7582,-1.7582,-1.7582,-1.7582,-1.7582,-1.7582,-1.7582,-1.7582,0.0,0.0,0.0,0.0,-1.9678,0.0,0.0,0.0,-1.9804,0.0,-1.9843,-1.9998,-2.0624,-2.1024,-2.1294,-2.1294,-2.1675,0.0,-2.0633,-2.0343,0.0,0.0,-1.9281,-1.8407,-1.8054,0.0,0.0,0.0,0.0,0.0,0.0,0.0,0.0,0.0,-1.343,0.0,-1.4206,-1.4219,-1.4682,-1.5352,-1.5164,-1.5083,-1.5083,-1.5083,-1.5267,-1.554,-1.573,-1.5832,-1.5832,-1.5832,-1.5832,-1.5832,-1.5832,-1.5832,-1.5832,-1.5832,-1.5832,-1.573,-1.554,-1.554,-1.5452,-1.5172,0.0,0.0,0.0,0.0,-1.5832,0.0,0.0,0.0,0.0,0.0,0.0,-1.5832,-1.5832,-1.5832,-1.5832,0.0,0.0,0.0,0.0,0.0,0.0,-1.4592,-1.4592,-1.5083,-1.5083,0.0,0.0,0.0,-1.6533,-1.7108,-1.7141,-1.7288,-1.7582,-1.7582,-1.7582,-1.7582,-1.7582,-1.7582,-1.7582,-1.7582,-1.7582,-1.7582,-1.7582,-1.7582,-1.7582,-1.7582,-1.7582,-1.7582,-1.7582,-1.7582,-1.7582,-1.7582,-1.7582,-1.7582,-2.0631,-2.0487,-2.0361,0.0,-2.0322,-2.04,0.0,0.0,0.0,0.0,-2.1178,-2.1418,-2.1524,-2.1906,-2.2175,-2.2175,-2.2551,0.0,0.0,0.0,0.0,-1.9835,-1.8931,-1.7881,-1.6851,-1.6181,0.0,-1.3805,0.0,0.0,-1.3313,0.0,0.0,0.0,0.0,0.0,-1.45,-1.4787,-1.5073,-1.5442,-1.5242,-1.5083,0.0,0.0,-1.5452,-1.554,-1.573,-1.5832,-1.5832,-1.5832,-1.5832,-1.5832,-1.5832,-1.5832,-1.5832,-1.5832,-1.5832,-1.5825,-1.573,-1.5737,-1.573,-1.5642,-1.5642,-1.5737,0.0,0.0,0.0,0.0,0.0,0.0,0.0,0.0,0.0,-1.5832,-1.5832,-1.5832,0.0,0.0,0.0,0.0,0.0,0.0,-1.5083,-1.4987,-1.5077,-1.5356,-1.5172,0.0,0.0,0.0,0.0,-1.6807,-1.7034,-1.7288,-1.7582,-1.7582,-1.7582,-1.7582,-1.7582,-1.7582,-1.7582,-1.7582,-1.7582,-1.7582,-1.7582,-1.7582,-1.7582,-1.7582,-1.7582,-1.7582,-1.7582,-1.7582,-1.7582,-1.7582,-1.7582,-1.7582,-2.0819,0.0,0.0,-2.0566,0.0,0.0,-2.0761,0.0,0.0,-2.1418,-2.1678,0.0,-2.2252,-2.2561,-2.2783,-2.2783,-2.2998,0.0,0.0,0.0,0.0,-2.0062,-1.9756,-1.8789,-1.7033,-1.6529,0.0,-1.435,0.0,0.0,-1.3568,0.0,0.0,0.0,0.0,-1.4533,0.0,-1.5272,-1.5396,-1.5445,-1.5356,0.0,0.0,-1.5452,-1.554,-1.5635,-1.573,-1.5832,-1.5832,-1.5832,-1.5832,-1.5832,-1.5832,-1.5832,-1.5832,-1.5832,-1.5832,-1.5832,-1.5832,-1.5832,-1.5832,-1.5832,-1.5832,-1.5832,-1.5832,-1.5832,-1.5832,0.0,0.0,0.0,0.0,0.0,0.0,0.0,0.0,0.0,0.0,0.0,0.0,0.0,0.0,0.0,-1.5458,-1.5077,-1.5077,-1.5267,0.0,0.0,0.0,0.0,0.0,-1.65,-1.6671,-1.7058,-1.7575,-1.7483,-1.7483,-1.7582,-1.7582,-1.7582,-1.7582,-1.7582,-1.7582,-1.7582,-1.7582,-1.7582,-1.7582,-1.7582,-1.7582,-1.7582,-1.7582,-1.7582,-1.7582,-1.7582,-1.7582,-1.7582,0.0,0.0,0.0,0.0,0.0,0.0,0.0,-2.0972,0.0,-2.1817,0.0,-2.2246,-2.2832,-2.3047,-2.3242,-2.3301,0.0,-2.3105,-2.2606,-2.2959,-2.247,-2.0962,-2.1302,-2.0486,-1.8234,-1.7697,0.0,0.0,0.0,0.0,0.0,0.0,0.0,0.0,0.0,0.0,0.0,-1.5624,-1.5642,0.0,-1.554,-1.554,-1.554,-1.554,-1.5662,-1.5885,-1.5885,-1.5865,-1.5832,-1.5832,-1.5832,-1.5832,-1.5832,-1.5832,-1.5832,-1.5832,-1.5832,-1.5832,-1.5832,-1.5832,-1.5832,-1.5832,-1.5832,-1.5832,-1.5832,-1.5832,-1.5832,-1.5832,-1.5832,-1.5832,0.0,0.0,0.0,0.0,0.0,0.0,0.0,0.0,0.0,0.0,0.0,0.0,0.0,-1.5166,0.0,0.0,0.0,0.0,0.0,0.0,0.0,-1.6247,-1.6299,0.0,-1.7522,0.0,-1.7378,-1.7589,-1.7582,-1.7582,-1.7582,-1.7582,-1.7582,-1.7582,-1.7582,-1.7582,-1.7582,-1.7582,-1.7582,-1.7582,-1.7582,-1.7582,-1.7582,-1.7582,-1.7582,-1.7582,0.0,0.0,0.0,0.0,0.0,-2.1894,-2.2142,-2.2201,-2.2249,-2.232,-2.264,0.0,-2.3543,-2.3682,-2.3818,-2.416,-2.4189,0.0,0.0,0.0,0.0,-2.2696,-2.2775,-2.2129,-2.0666,-1.9401,-1.8119,0.0,0.0,0.0,0.0,0.0,0.0,0.0,0.0,0.0,-1.5758,-1.5615,0.0,-1.554,-1.554,-1.554,-1.554,-1.5635,-1.5979,-1.6192,-1.6192,-1.6039,-1.5832,-1.5832,-1.5832,-1.5832,-1.5832,-1.5832,-1.5832,-1.5832,-1.5832,-1.5832,-1.5832,-1.5832,-1.5832,-1.5832,-1.5832,-1.5832,-1.5832,-1.5832,-1.5832,-1.5832,-1.5832,-1.5832,-1.5832,0.0,0.0,0.0,0.0,0.0,0.0,0.0,0.0,0.0,0.0,0.0,0.0,0.0,0.0,0.0,0.0,0.0,0.0,0.0,0.0,0.0,-1.6487,0.0,0.0,0.0,-1.7483,-1.7279,-1.7483,-1.7582,-1.7582,-1.7582,-1.7582,-1.7582,-1.7582,-1.7582,-1.7582,-1.7582,-1.7582,-1.7582,-1.7582,-1.7582,-1.7582,-1.7582,-1.7582,-1.7582,0.0,0.0,0.0,0.0,0.0,0.0,0.0,-2.3027,0.0,-2.2998,-2.3163,-2.3454,-2.389,-2.403,-2.4199,-2.4394,-2.4414,-2.4336,-2.4121,-2.4111,-2.3644,-2.2584,-2.2565,0.0,-1.9497,-1.8704,-1.7713,-1.6281,0.0,0.0,0.0,0.0,0.0,0.0,0.0,-1.5698,0.0,0.0,0.0,-1.5642,-1.5642,-1.5728,-1.5963,-1.6059,-1.6239,-1.65,-1.65,-1.6406,-1.6279,-1.6279,-1.6279,-1.6279,-1.6279,-1.6279,-1.6279,-1.6279,-1.6279,-1.6279,-1.6279,-1.6172,-1.6059,-1.6059,-1.5945,-1.5832,-1.5832,-1.5832,-1.5832,-1.5832,-1.5832,-1.5832,-1.5832,-1.5832,0.0,0.0,0.0,0.0,0.0,0.0,0.0,0.0,0.0,0.0,0.0,0.0,0.0,0.0,0.0,0.0,0.0,0.0,0.0,0.0,0.0,0.0,0.0,0.0,0.0,-1.7384,-1.7582,-1.7582,-1.7582,-1.7582,-1.7582,-1.7582,-1.7582,-1.7582,-1.7582,-1.7582,-1.7582,-1.7582,-1.7582,-1.7582,-1.7582,-1.7582,-1.7582,-1.7582,0.0,-2.2036,0.0,0.0,-2.25,0.0,-2.334,-2.3701,-2.3826,-2.3644,-2.3644,-2.3808,-2.4233,-2.4468,-2.459,-2.4687,-2.4697,-2.4658,-2.456,-2.4551,-2.3986,-2.2539,-2.2437,-2.1313,-1.9084,-1.8635,-1.7734,0.0,0.0,0.0,0.0,0.0,0.0,0.0,0.0,0.0,0.0,0.0,-1.5832,-1.5832,-1.5899,-1.6059,-1.6279,-1.6339,-1.6547,-1.68,-1.68,-1.684,-1.6894,-1.6894,-1.6807,-1.6707,-1.6707,-1.6707,-1.6707,-1.6707,-1.6707,-1.6707,-1.6707,-1.654,-1.6366,-1.6366,-1.6192,-1.6012,-1.6012,-1.5965,-1.5925,-1.5925,-1.5872,-1.5832,-1.5832,-1.5832,0.0,0.0,0.0,0.0,0.0,0.0,0.0,0.0,0.0,0.0,0.0,0.0,0.0,0.0,0.0,0.0,0.0,0.0,0.0,0.0,0.0,-1.6524,-1.6952,0.0,-1.7384,0.0,-1.7582,-1.7582,-1.7582,-1.7582,-1.7582,-1.7582,-1.7582,-1.7582,-1.7582,-1.7582,-1.7582,-1.7582,-1.7582,-1.7582,-1.7582,-1.7582,-1.7582,-1.7582,0.0,0.0,0.0,0.0,0.0,0.0,0.0,-2.4336,-2.4355,-2.4355,-2.4263,-2.4521,-2.4961,-2.5,-2.5166,-2.5576,-2.5615,-2.5439,-2.5029,-2.501,-2.4814,-2.419,-2.3803,-2.349,-2.3261,-2.1761,-2.0369,0.0,0.0,0.0,0.0,0.0,0.0,0.0,0.0,0.0,0.0,-1.5832,-1.5832,-1.5852,-1.6119,-1.6246,-1.6299,-1.6567,-1.6854,-1.7108,-1.7108,-1.7281,-1.7502,-1.7502,-1.7148,-1.6707,-1.6707,-1.6707,-1.6707,-1.6707,-1.6707,-1.6707,-1.6707,-1.6687,-1.6667,-1.6667,-1.6647,-1.6627,-1.6627,-1.642,-1.6233,-1.6233,-1.6019,-1.5832,-1.5832,-1.5832,-1.5832,0.0,0.0,0.0,0.0,0.0,0.0,0.0,0.0,0.0,0.0,0.0,0.0,0.0,0.0,0.0,0.0,0.0,0.0,-1.558,0.0,-1.6231,-1.6042,-1.71,-1.7483,-1.7279,-1.7483,-1.7582,-1.7582,-1.7582,-1.7582,-1.7582,-1.7582,-1.7582,-1.7582,-1.7582,-1.7582,-1.7582,-1.7582,-1.7582,-1.7582,-1.7582,-1.7582,-1.7582,0.0,0.0,0.0,0.0,0.0,0.0,0.0,-2.4805,-2.4902,-2.5176,-2.4971,-2.498,-2.542,-2.5469,-2.5537,-2.5723,-2.5742,-2.5664,-2.5478,-2.5469,-2.5273,-2.4824,-2.4648,-2.4146,-2.313,-2.2163,-2.1116,0.0,0.0,0.0,0.0,0.0,0.0,0.0,0.0,-1.5832,-1.5838,-1.6019,-1.6092,-1.6119,-1.6413,-1.664,-1.6814,-1.6927,-1.7154,-1.7408,-1.7408,-1.7482,-1.7582,-1.7582,-1.7428,-1.7235,-1.7235,-1.7235,-1.7235,-1.7235,-1.7235,-1.7235,-1.7235,-1.7108,-1.6974,-1.6974,-1.684,-1.6707,-1.6707,-1.6613,-1.6533,-1.6533,-1.6299,-1.6039,-1.5865,-1.5832,-1.5832,0.0,0.0,0.0,0.0,0.0,0.0,0.0,0.0,0.0,0.0,0.0,0.0,0.0,0.0,0.0,0.0,0.0,0.0,-1.554,0.0,-1.6413,-1.6117,-1.7087,-1.7589,-1.7483,-1.7589,-1.7582,-1.7582,-1.7582,-1.7582,-1.7582,-1.7582,-1.7582,-1.7582,-1.7582,-1.7582,-1.7582,-1.7582,-1.7582,-1.7582,-1.7582,-1.7582,-1.7582,-2.4326,0.0,-2.4555,0.0,-2.4609,-2.4756,-2.5195,-2.5264,-2.5381,-2.5693,-2.5459,-2.5381,-2.5703,-2.5742,-2.5742,-2.5742,-2.5742,-2.5742,-2.5742,-2.5742,-2.5596,-2.5283,-2.5137,0.0,-2.3363,-2.2964,-2.2086,-2.0849,-1.9742,0.0,0.0,0.0,0.0,0.0,-1.7399,-1.7065,-1.7087,-1.7498,-1.7635,-1.7566,-1.7498,-1.7555,-1.7763,-1.7448,-1.7408,-1.7582,-1.7582,-1.7582,-1.7687,-1.8101,-1.8199,-1.8199,-1.8199,-1.8199,-1.8304,-1.8708,-1.8805,-1.8805,-1.8805,-1.8344,-1.7881,-1.7881,-1.7415,-1.6967,-1.6967,-1.6894,-1.6814,-1.6727,-1.6473,-1.6213,-1.5999,-1.5885,-1.5832,-1.5832,0.0,0.0,0.0,0.0,0.0,0.0,0.0,-1.5832,-1.5832,0.0,0.0,0.0,0.0,0.0,0.0,0.0,0.0,0.0,0.0,0.0,0.0,-1.7231,-1.7582,-1.7582,-1.7582,-1.7582,-1.7582,-1.7582,-1.7582,-1.7582,-1.7582,-1.7582,-1.7582,-1.7582,-1.7582,-1.7582,-1.7582,-1.7582,-1.7582,-1.7582,-1.7582,-1.7582,-2.5057,-2.4792,-2.4838,-2.5085,-2.5059,-2.5215,-2.5664,-2.5732,-2.5732,-2.5742,-2.5732,-2.5732,-2.5742,-2.5742,-2.5742,-2.5742,-2.5742,-2.5742,-2.5742,-2.5742,-2.5742,0.0,0.0,-2.5068,-2.5059,-2.4629,-2.3737,-2.2604,0.0,0.0,-1.967,0.0,-1.9248,-1.9505,-1.986,-2.0017,-2.0041,-2.05,-2.0754,-2.0691,-1.9598,-1.9142,-1.9078,-1.7977,-1.7582,-1.7582,-1.7582,-1.7582,-1.7786,-1.9117,-1.9627,-1.9627,-1.9627,-1.9627,-1.9826,-2.1245,-2.1643,-2.1643,-2.1643,-2.0633,-1.9524,-1.9524,-1.8596,-1.7569,-1.7569,-1.7348,-1.7061,-1.6767,-1.6473,-1.6273,-1.6266,-1.6025,-1.5832,-1.5832,0.0,0.0,0.0,0.0,0.0,0.0,-1.5832,-1.5832,-1.5832,0.0,0.0,0.0,0.0,0.0,0.0,0.0,0.0,-1.5856,-1.6162,0.0,-1.6749,-1.7337,-1.7582,-1.7582,-1.7582,-1.7582,-1.7582,-1.7582,-1.7582,-1.7582,-1.7582,-1.7582,-1.7582,-1.7582,-1.7582,-1.7582,-1.7582,-1.7582,-1.7582,-1.7582,-1.7582,-1.7582,-2.7741,-2.7112,-2.6744,-2.6783,-2.6074,-2.5566,-2.5713,-2.5742,-2.5742,-2.5742,-2.5742,-2.5742,-2.5742,-2.5742,-2.5742,0.0,-2.5742,-2.5742,0.0,-2.5742,-2.5742,-2.5742,-2.5596,-2.5527,-2.5527,-2.5088,-2.4665,-2.4278,0.0,0.0,0.0,-2.0772,-2.0781,-2.1564,-2.0916,-2.0587,-2.0612,-2.097,-2.1031,-2.0966,-1.9938,-2.0076,-2.0788,-1.9487,-1.9517,-2.0428,-2.0428,-2.0428,-2.0436,-2.0939,-2.1041,-2.1143,-2.2064,-2.176,-2.1143,-2.155,-2.1752,-2.1752,-2.1752,-2.1347,-2.1041,-2.1041,-2.0735,-2.0128,-1.922,-1.8227,-1.7361,-1.7068,-1.6934,-1.6807,-1.6607,-1.6326,-1.6415,-1.7258,-1.6524,0.0,0.0,0.0,0.0,0.0,0.0,-1.5832,0.0,-1.5832,0.0,0.0,0.0,0.0,0.0,0.0,0.0,0.0,-1.6355,0.0,-1.6749,-1.7337,-1.7582,-1.7582,-1.7582,-1.7582,-1.7582,-1.7582,-1.7582,-1.7582,-1.7582,-1.7582,-1.7582,-1.7582,-1.7582,-1.7582,-1.7582,-1.7582,-1.7582,-1.7582,-1.7582,-1.7582,-2.8688,-2.7939,-2.7494,-2.6945,-2.6197,-2.5742,-2.5742,-2.5742,-2.5742,-2.5742,-2.5742,-2.5742,-2.5742,-2.5742,0.0,-2.5742,-2.5742,-2.5742,-2.5742,-2.5742,-2.5742,-2.5742,-2.5742,-2.5742,-2.5742,0.0,0.0,-2.5322,-2.4297,-2.3711,-2.3467,-2.2586,-2.2586,-2.328,-2.2654,-2.2423,-2.2449,-2.2744,-2.2912,-2.2832,-2.156,-2.1659,-2.2257,-2.0947,-2.0939,-2.1752,-2.1752,-2.1752,-2.1752,-2.2257,-2.2458,-2.2667,-2.3998,-2.389,-2.3176,-2.3176,-2.3176,-2.3176,-2.3176,-2.2868,-2.2458,-2.2458,-2.2055,-2.1448,-2.0641,-1.9723,-1.8955,-1.8259,-1.803,-1.7694,-1.7002,-1.6633,-1.6785,-1.7905,-1.7244,-1.6985,-1.7978,0.0,0.0,0.0,0.0,0.0,0.0,-1.6756,0.0,0.0,0.0,0.0,0.0,0.0,0.0,-1.6223,-1.6613,0.0,-1.7114,-1.739,-1.7582,-1.7582,-1.7582,-1.7582,-1.7582,-1.7582,-1.7582,-1.7582,-1.7582,-1.7582,-1.7582,-1.7582,-1.7582,-1.7582,-1.7582,-1.7582,-1.7582,-1.7582,-1.7582,-1.7582,-2.8319,-2.7767,0.0,0.0,-2.5732,0.0,-2.5742,-2.5742,-2.5742,-2.5742,-2.5742,-2.5742,-2.5742,-2.5742,-2.5742,-2.5742,0.0,0.0,0.0,-2.5742,-2.5742,-2.5742,-2.5742,-2.5742,-2.5742,-2.5742,-2.5742,-2.5742,-2.5322,-2.4902,-2.4512,-2.4512,-2.4512,-2.4521,-2.4932,-2.5117,-2.5137,-2.5557,-2.5742,-2.5538,-2.4205,-2.3791,-2.3683,-2.2366,-2.1853,-2.1954,-2.1954,-2.1954,-2.2156,-2.3384,-2.3791,-2.4097,-2.5333,-2.5742,-2.5742,-2.5742,-2.5742,-2.5742,-2.5742,-2.4815,-2.3791,-2.3791,-2.2868,-2.1853,-2.1853,-2.1752,-2.1347,-2.0033,-1.9592,-1.8977,-1.7579,-1.7137,-1.723,-1.8193,-1.8222,-1.8286,-1.8867,0.0,0.0,0.0,0.0,0.0,0.0,-1.8503,-1.7792,0.0,0.0,0.0,0.0,0.0,-1.646,-1.6727,-1.7007,-1.7288,-1.7582,-1.7582,-1.7582,-1.7582,-1.7582,-1.7582,-1.7582,-1.7582,-1.7582,-1.7582,-1.7582,-1.7582,-1.7582,-1.7582,-1.7582,-1.7582,-1.7582,-1.7582,-1.7582,-1.7582,-1.7582,-1.7582,0.0,0.0,-2.8588,-2.74,-2.639,-2.5742,-2.5742,-2.5742,-2.5742,-2.5742,-2.5742,-2.5742,-2.5742,-2.5742,-2.5742,-2.5742,-2.5742,-2.5742,-2.5742,-2.5742,-2.5742,-2.5742,-2.5742,-2.5742,-2.5742,-2.5742,-2.5742,-2.5742,-2.5635,-2.5527,-2.543,-2.543,-2.543,-2.543,-2.5537,-2.5586,-2.5586,-2.5693,-2.5742,-2.5538,-2.4205,-2.4304,-2.5118,-2.3791,-2.389,-2.4716,-2.4716,-2.4716,-2.4815,-2.5118,-2.5226,-2.5323,-2.5635,-2.5742,-2.5742,-2.5742,-2.5742,-2.5742,-2.5742,-2.543,-2.5226,-2.5226,-2.4205,-2.3276,-2.3276,-2.2458,-2.1651,-2.1245,-2.118,-2.0718,-1.931,-1.8847,-1.9,-2.0091,-1.8996,-1.8626,-2.0433,-1.9816,0.0,0.0,-1.9147,-1.9405,-1.9497,-1.9222,-1.879,0.0,0.0,0.0,0.0,-1.682,-1.6974,-1.7041,-1.7114,-1.7288,-1.7582,-1.7582,-1.7582,-1.7582,-1.7582,-1.7582,-1.7582,-1.7582,-1.7582,-1.7582,-1.7582,-1.7582,-1.7582,-1.7582,-1.7582,-1.7582,-1.7582,-1.7582,-1.7582,-1.7582,-1.7582,-1.7582,-3.1412,-3.0226,-2.9039,-2.7767,-2.6572,-2.5742,-2.5742,-2.5742,-2.5742,-2.5742,-2.5742,-2.5742,-2.5742,-2.5742,-2.5742,-2.5742,-2.5742,-2.5742,-2.5742,-2.5742,-2.5742,-2.5742,-2.5742,-2.5742,-2.5742,-2.5742,-2.5742,-2.5742,-2.5742,-2.5742,-2.5742,-2.5742,-2.5742,-2.5742,-2.5742,-2.5742,-2.5742,-2.5742,-2.5742,-2.5635,-2.4922,-2.502,-2.5635,-2.4913,-2.503,-2.5742,-2.5742,-2.5742,-2.5742,-2.5742,-2.5742,-2.5742,-2.5742,-2.5742,-2.5742,-2.5742,-2.5742,-2.5742,-2.5742,-2.5742,-2.5742,-2.5742,-2.5128,-2.4609,-2.4609,-2.4097,-2.3384,-2.2767,-2.2567,-2.2156,-2.0837,-2.0491,-2.0712,-2.1731,-2.0868,-2.0524,-2.2146,-2.1523,0.0,-2.1058,-2.1217,-2.1485,-2.176,-2.1208,-2.0738,-2.0186,0.0,0.0,-1.7874,-1.8058,-1.7851,-1.725,-1.7281,-1.7422,-1.7582,-1.7582,-1.7582,-1.7582,-1.7582,-1.7582,-1.7582,-1.7582,-1.7582,-1.7582,-1.7582,-1.7582,-1.7582,-1.7582,-1.7582,-1.7582,-1.7582,-1.7582,-1.7582,-1.7582,-1.7582,-1.7582,-3.1412,-3.0406,-2.9223,-2.7861,-2.6658,-2.5927,-2.5732,-2.5742,-2.5742,-2.5742,-2.5742,-2.5742,-2.5742,-2.5742,-2.5742,-2.5742,-2.5742,-2.5742,-2.5742,-2.5742,-2.5742,-2.5742,-2.5742,-2.5742,-2.5742,-2.5742,-2.5742,-2.5742,-2.5742,-2.5742,-2.5742,-2.5742,-2.5742,-2.5742,-2.5742,-2.5742,-2.5742,-2.5742,-2.5742,-2.5742,-2.5742,-2.5742,-2.5742,-2.5742,-2.5742,-2.5742,-2.5742,-2.5742,-2.5742,-2.5742,-2.5742,-2.5742,-2.5742,-2.5742,-2.5742,-2.5742,-2.5742,-2.5742,-2.5742,-2.5742,-2.5742,-2.5742,-2.5742,-2.5742,-2.5742,-2.5742,-2.5333,-2.4205,-2.3989,-2.3583,-2.2257,-2.1954,-2.2155,-2.2735,-2.2495,-2.2576,-2.3344,0.0,-2.3176,-2.3682,-2.3765,-2.3951,-2.4322,-2.3458,-2.282,-2.2695,-2.1718,-2.072,0.0,-1.9419,-1.8724,-1.762,-1.756,-1.7582,-1.7582,-1.7582,-1.7582,-1.7582,-1.7582,-1.7582,-1.7582,-1.7582,-1.7582,-1.7582,-1.7582,-1.7582,-1.7582,-1.7582,-1.7582,-1.7582,-1.7582,-1.7582,-1.7582,-1.7582,-1.7582,-1.7582,-3.1412,-3.1033,-3.0226,-2.7955,-2.74,-2.6945,-2.583,-2.5742,-2.5742,-2.5742,-2.5742,-2.5742,-2.5742,-2.5742,-2.5742,-2.5742,-2.5742,-2.5742,-2.5742,-2.5742,-2.5742,-2.5742,-2.5742,-2.5742,-2.5742,-2.5742,-2.5742,-2.5742,-2.5742,-2.5742,-2.5742,-2.5742,-2.5742,-2.5742,-2.5742,-2.5742,-2.5742,-2.5742,-2.5742,-2.5742,-2.5742,-2.5742,-2.5742,-2.5742,-2.5742,-2.5742,-2.5742,-2.5742,-2.5742,-2.5742,-2.5742,-2.5742,-2.5742,-2.5742,-2.5742,-2.5742,-2.5742,-2.5742,-2.5742,-2.5742,-2.5742,-2.5742,-2.5742,-2.5742,-2.5742,-2.5742,-2.5635,-2.543,-2.543,-2.502,-2.3692,-2.3384,-2.3059,-2.208,-2.1988,-2.217,-2.2487,0.0,-2.3509,-2.372,-2.4044,-2.4322,-2.4414,-2.422,-2.3795,-2.297,-2.2804,-2.2273,-2.135,-2.0161,-1.945,-1.9251,-1.8171,-1.7582,-1.7582,-1.7582,-1.7582,-1.7582,-1.7582,-1.7582,-1.7582,-1.7582,-1.7582,-1.7582,-1.7582,-1.7582,-1.7582,-1.7582,-1.7582,-1.7582,-1.7582,-1.7582,-1.7582,-1.7582,-1.7582,-1.7582,-3.2326,-3.1146,-2.9852,-2.8773,-2.7494,-2.639,-2.583,-2.5742,-2.5742,-2.5742,-2.5742,-2.5742,-2.5742,-2.5742,-2.5742,-2.5742,-2.5742,-2.5742,-2.5742,-2.5742,-2.5742,-2.5742,-2.5742,-2.5742,-2.5742,-2.5742,-2.5742,-2.5742,-2.5742,-2.5742,-2.5742,-2.5742,-2.5742,-2.5742,-2.5742,-2.5742,-2.5742,-2.5742,-2.5742,-2.5742,-2.5742,-2.5742,-2.5742,-2.5742,-2.5742,-2.5742,-2.5742,-2.5742,-2.5742,-2.5742,-2.5742,-2.5742,-2.5742,-2.5742,-2.5742,-2.5742,-2.5742,-2.5742,-2.5742,-2.5742,-2.5742,-2.5742,-2.5742,-2.5742,-2.5742,-2.5742,-2.5742,-2.5742,-2.5742,-2.5538,-2.4913,-2.4815,-2.451,-2.3592,-2.3502,0.0,0.0,-2.4045,-2.4378,-2.4775,-2.4937,-2.5127,-2.5127,-2.5127,-2.4919,-2.4513,-2.4425,-2.3699,-2.1845,-2.1041,-2.0033,-1.8603,-1.7884,-1.7582,-1.7582,-1.7582,-1.7582,-1.7582,-1.7582,-1.7582,-1.7582,-1.7582,-1.7582,-1.7582,-1.7582,-1.7582,-1.7582,-1.7582,-1.7582,-1.7582,-1.7582,-1.7582,-1.7582,-1.7582,-1.7582,-1.7582,-3.3081,-3.1601,-3.0135,-2.9863,-2.8028,-2.6476,-2.6197,-2.5927,-2.5742,-2.5742,-2.5742,-2.5742,-2.5742,-2.5742,-2.5742,-2.5742,-2.5742,-2.5742,-2.5742,-2.5742,-2.5742,-2.5742,-2.5742,-2.5742,-2.5742,-2.5742,-2.5742,-2.5742,-2.5742,-2.5742,-2.5742,-2.5742,-2.5742,-2.5742,-2.5742,-2.5742,-2.5742,-2.5742,-2.5742,-2.5742,-2.5742,-2.5742,-2.5742,-2.5742,-2.5742,-2.5742,-2.5742,-2.5742,-2.5742,-2.5742,-2.5742,-2.5742,-2.5742,-2.5742,-2.5742,-2.5742,-2.5742,-2.5742,-2.5742,-2.5742,-2.5742,-2.5742,-2.5742,-2.5742,-2.5742,-2.5742,-2.5742,-2.5742,-2.5742,-2.5742,-2.5742,-2.5742,-2.543,-2.4726,0.0,0.0,0.0,-2.4824,-2.5137,-2.5635,-2.5742,-2.5742,-2.5742,-2.5742,-2.5742,-2.5742,-2.5742,-2.4815,-2.2767,-2.2055,-2.0428,-1.7687,-1.7582,-1.7582,-1.7582,-1.7582,-1.7582,-1.7582,-1.7582,-1.7582,-1.7582,-1.7582,-1.7582,-1.7582,-1.7582,-1.7582,-1.7582,-1.7582,-1.7582,-1.7582,-1.7582,-1.7582,-1.7582,-1.7582,-1.7582,-1.7582,-3.3081,-3.2982,-3.2438,-3.1311,-2.9943,-2.8762,-2.7589,-2.6476,-2.5742,-2.5742,-2.5742,-2.5742,-2.5742,-2.5742,-2.5742,-2.5742,-2.5742,-2.5742,-2.5742,-2.5742,-2.5742,-2.5742,-2.5742,-2.5742,-2.5742,-2.5742,-2.5742,-2.5742,-2.5742,-2.5742,-2.5742,-2.5742,-2.5742,-2.5742,-2.5742,-2.5742,-2.5742,-2.5742,-2.5742,-2.5742,-2.5742,-2.5742,-2.5742,-2.5742,-2.5742,-2.5742,-2.5742,-2.5742,-2.5742,-2.5742,-2.5742,-2.5742,-2.5742,-2.5742,-2.5742,-2.5742,-2.5742,-2.5742,-2.5742,-2.5742,-2.5742,-2.5742,-2.5742,-2.5742,-2.5742,-2.5742,-2.5742,-2.5742,-2.5742,-2.5742,-2.5742,-2.5742,-2.5323,-2.3998,0.0,0.0,-2.3899,-2.4421,-2.5137,-2.5635,-2.5742,-2.5742,-2.5742,-2.5742,-2.5742,-2.5742,-2.5742,-2.5635,-2.543,-2.3076,-2.0428,-1.7687,-1.7582,-1.7582,-1.7582,-1.7582,-1.7582,-1.7582,-1.7582,-1.7582,-1.7582,-1.7582,-1.7582,-1.7582,-1.7582,-1.7582,-1.7582,-1.7582,-1.7582,-1.7582,-1.7582,-1.7582,-1.7582,-1.7582,-1.7582,-1.7582,-3.3081,-3.2426,-3.1777,-3.1311,-3.0226,-2.8947,-2.7767,-2.722,-2.6572,-2.583,-2.5742,-2.5742,-2.5742,-2.5742,-2.5742,-2.5742,-2.5742,-2.5742,-2.5742,-2.5742,-2.5742,-2.5742,-2.5742,-2.5742,-2.5742,-2.5742,-2.5742,-2.5742,-2.5742,-2.5742,-2.5742,-2.5742,-2.5742,-2.5742,-2.5742,-2.5742,-2.5742,-2.5742,-2.5742,-2.5742,-2.5742,-2.5742,-2.5742,-2.5742,-2.5742,-2.5742,-2.5742,-2.5742,-2.5742,-2.5742,-2.5742,-2.5742,-2.5742,-2.5742,-2.5742,-2.5742,-2.5742,-2.5742,-2.5742,-2.5742,-2.5742,-2.5742,-2.5742,-2.5742,-2.5742,-2.5742,-2.5742,-2.5742,-2.5742,-2.5742,-2.5742,-2.5742,-2.543,-2.4618,0.0,-2.5128,-2.452,-2.503,-2.544,-2.5635,-2.5742,-2.5742,-2.5742,-2.5742,-2.5742,-2.5742,-2.5742,-2.5323,-2.451,-2.1862,-1.9517,-1.7687,-1.7582,-1.7582,-1.7582,-1.7582,-1.7582,-1.7582,-1.7582,-1.7582,-1.7582,-1.7582,-1.7582,-1.7582,-1.7582,-1.7582,-1.7582,-1.7582,-1.7582,-1.7582,-1.7582,-1.7582,-1.7582,-1.7582,-1.7582,-1.7582,-3.3081,-3.2426,-3.1777,-3.1777,-3.0765,-2.9681,-2.8866,-2.8049,-2.7315,-2.638,-2.5917,-2.5742,-2.5742,-2.5742,-2.5742,-2.5742,-2.5742,-2.5742,-2.5742,-2.5742,-2.5742,-2.5742,-2.5742,-2.5742,-2.5742,-2.5742,-2.5742,-2.5742,-2.5742,-2.5742,-2.5742,-2.5742,-2.5742,-2.5742,-2.5742,-2.5742,-2.5742,-2.5742,-2.5742,-2.5742,-2.5742,-2.5742,-2.5742,-2.5742,-2.5742,-2.5742,-2.5742,-2.5742,-2.5742,-2.5742,-2.5742,-2.5742,-2.5742,-2.5742,-2.5742,-2.5742,-2.5742,-2.5742,-2.5742,-2.5742,-2.5742,-2.5742,-2.5742,-2.5742,-2.5742,-2.5742,-2.5742,-2.5742,-2.5742,-2.5742,-2.5742,-2.5742,-2.5538,-2.5235,-2.544,-2.5538,-2.5235,-2.544,-2.5742,-2.5742,-2.5742,-2.5742,-2.5742,-2.5742,-2.5742,-2.5742,-2.5742,-2.5118,-2.3791,-2.1558,-1.9627,-1.8304,-1.7786,-1.7582,-1.7582,-1.7582,-1.7582,-1.7582,-1.7582,-1.7582,-1.7582,-1.7582,-1.7582,-1.7582,-1.7582,-1.7582,-1.7582,-1.7582,-1.7582,-1.7582,-1.7582,-1.7582,-1.7582,-1.7582,-1.7582,-1.7582,-3.3081,-3.3081,-3.3081,-3.3081,-3.2052,-3.1223,-3.1223,-2.9131,-2.7589,-2.7589,-2.6476,-2.5732,-2.5742,-2.5742,-2.5742,-2.5742,-2.5742,-2.5742,-2.5742,-2.5742,-2.5742,-2.5742,-2.5742,-2.5742,-2.5742,-2.5742,-2.5742,-2.5742,-2.5742,-2.5742,-2.5742,-2.5742,-2.5742,-2.5742,-2.5742,-2.5742,-2.5742,-2.5742,-2.5742,-2.5742,-2.5742,-2.5742,-2.5742,-2.5742,-2.5742,-2.5742,-2.5742,-2.5742,-2.5742,-2.5742,-2.5742,-2.5742,-2.5742,-2.5742,-2.5742,-2.5742,-2.5742,-2.5742,-2.5742,-2.5742,-2.5742,-2.5742,-2.5742,-2.5742,-2.5742,-2.5742,-2.5742,-2.5742,-2.5742,-2.5742,-2.5742,-2.5742,-2.5742,-2.5742,-2.5742,-2.5742,-2.5742,-2.5742,-2.5742,-2.5742,-2.5742,-2.5742,-2.5742,-2.5742,-2.5742,-2.5742,-2.5742,-2.5118,-2.3791,-2.2466,-2.1041,-1.9627,-1.8297,-1.7582,-1.7582,-1.7582,-1.7582,-1.7582,-1.7582,-1.7582,-1.7582,-1.7582,-1.7582,-1.7582,-1.7582,-1.7582,-1.7582,-1.7582,-1.7582,-1.7582,-1.7582,-1.7582,-1.7582,-1.7582,-1.7582,-1.7582,-3.3081,-3.3081,-3.3081,-3.3081,-3.2797,-3.2239,-3.1311,-3.0586,-2.9498,-2.7861,-2.7315,-2.6658,-2.583,-2.5742,-2.5742,-2.5742,-2.5742,-2.5742,-2.5742,-2.5742,-2.5742,-2.5742,-2.5742,-2.5742,-2.5742,-2.5742,-2.5742,-2.5742,-2.5742,-2.5742,-2.5742,-2.5742,-2.5742,-2.5742,-2.5742,-2.5742,-2.5742,-2.5742,-2.5742,-2.5742,-2.5742,-2.5742,-2.5742,-2.5742,-2.5742,-2.5742,-2.5742,-2.5742,-2.5742,-2.5742,-2.5742,-2.5742,-2.5742,-2.5742,-2.5742,-2.5742,-2.5742,-2.5742,-2.5742,-2.5742,-2.5742,-2.5742,-2.5742,-2.5742,-2.5742,-2.5742,-2.5742,-2.5742,-2.5742,-2.5742,-2.5742,-2.5742,-2.5742,-2.5742,-2.5742,-2.5742,-2.5742,-2.5742,-2.5742,-2.5742,-2.5742,-2.5742,-2.5742,-2.5742,-2.5742,-2.5742,-2.5742,-2.5118,-2.3791,-2.3285,-2.2064,-1.9627,-1.922,-1.8506,-1.7582,-1.7582,-1.7582,-1.7582,-1.7582,-1.7582,-1.7582,-1.7582,-1.7582,-1.7582,-1.7582,-1.7582,-1.7582,-1.7582,-1.7582,-1.7582,-1.7582,-1.7582,-1.7582,-1.7582,-1.7582,-1.7582,-3.3081,-3.3081,-3.3081,-3.3081,-3.3081,-3.2797,-3.2052,-3.15,-3.0676,-2.9223,-2.8226,-2.7315,-2.6572,-2.6014,-2.5742,-2.5742,-2.5742,-2.5742,-2.5742,-2.5742,-2.5742,-2.5742,-2.5742,-2.5742,-2.5742,-2.5742,-2.5742,-2.5742,-2.5742,-2.5742,-2.5742,-2.5742,-2.5742,-2.5742,-2.5742,-2.5742,-2.5742,-2.5742,-2.5742,-2.5742,-2.5742,-2.5742,-2.5742,-2.5742,-2.5742,-2.5742,-2.5742,-2.5742,-2.5742,-2.5742,-2.5742,-2.5742,-2.5742,-2.5742,-2.5742,-2.5742,-2.5742,-2.5742,-2.5742,-2.5742,-2.5742,-2.5742,-2.5742,-2.5742,-2.5742,-2.5742,-2.5742,-2.5742,-2.5742,-2.5742,-2.5742,-2.5742,-2.5742,-2.5742,-2.5742,-2.5742,-2.5742,-2.5742,-2.5742,-2.5742,-2.5742,-2.5742,-2.5742,-2.5742,-2.5742,-2.5742,-2.5742,-2.5333,-2.4501,-2.3484,-2.2165,-2.0436,-1.942,-1.8401,-1.7582,-1.7582,-1.7582,-1.7582,-1.7582,-1.7582,-1.7582,-1.7582,-1.7582,-1.7582,-1.7582,-1.7582,-1.7582,-1.7582,-1.7582,-1.7582,-1.7582,-1.7582,-1.7582,-1.7582,-1.7582,-1.7582,-3.3081,-3.3081,-3.3081,-3.3081,-3.3081,-3.3081,-3.3081,-3.214,-3.1311,-3.1223,-2.9315,-2.7861,-2.7778,-2.6754,-2.6014,-2.5927,-2.5742,-2.5742,-2.5742,-2.5742,-2.5742,-2.5742,-2.5742,-2.5742,-2.5742,-2.5742,-2.5742,-2.5742,-2.5742,-2.5742,-2.5742,-2.5742,-2.5742,-2.5742,-2.5742,-2.5742,-2.5742,-2.5742,-2.5742,-2.5742,-2.5742,-2.5742,-2.5742,-2.5742,-2.5742,-2.5742,-2.5742,-2.5742,-2.5742,-2.5742,-2.5742,-2.5742,-2.5742,-2.5742,-2.5742,-2.5742,-2.5742,-2.5742,-2.5742,-2.5742,-2.5742,-2.5742,-2.5742,-2.5742,-2.5742,-2.5742,-2.5742,-2.5742,-2.5742,-2.5742,-2.5742,-2.5742,-2.5742,-2.5742,-2.5742,-2.5742,-2.5742,-2.5742,-2.5742,-2.5742,-2.5742,-2.5742,-2.5742,-2.5742,-2.5742,-2.5742,-2.5742,-2.5742,-2.5742,-2.3384,-2.1954,-2.1752,-1.9317,-1.7891,-1.7582,-1.7582,-1.7582,-1.7582,-1.7582,-1.7582,-1.7582,-1.7582,-1.7582,-1.7582,-1.7582,-1.7582,-1.7582,-1.7582,-1.7582,-1.7582,-1.7582,-1.7582,-1.7582,-1.7582,-1.7582,-1.7582,-3.3081,-3.3081,-3.3081,-3.3081,-3.3081,-3.3081,-3.3081,-3.2884,-3.2339,-3.1311,-3.0765,-3.0033,-2.9131,-2.8762,-2.8226,-2.7315,-2.6294,-2.5742,-2.5742,-2.5742,-2.5742,-2.5742,-2.5742,-2.5742,-2.5742,-2.5742,-2.5742,-2.5742,-2.5742,-2.5742,-2.5742,-2.5742,-2.5742,-2.5742,-2.5742,-2.5742,-2.5742,-2.5742,-2.5742,-2.5742,-2.5742,-2.5742,-2.5742,-2.5742,-2.5742,-2.5742,-2.5742,-2.5742,-2.5742,-2.5742,-2.5742,-2.5742,-2.5742,-2.5742,-2.5742,-2.5742,-2.5742,-2.5742,-2.5742,-2.5742,-2.5742,-2.5742,-2.5742,-2.5742,-2.5742,-2.5742,-2.5742,-2.5742,-2.5742,-2.5742,-2.5742,-2.5742,-2.5742,-2.5742,-2.5742,-2.5742,-2.5742,-2.5742,-2.5742,-2.5742,-2.5742,-2.5742,-2.5742,-2.5742,-2.5742,-2.5742,-2.5742,-2.5742,-2.5742,-2.5128,-2.389,-2.1752,-2.1143,-1.9826,-1.7582,-1.7582,-1.7582,-1.7582,-1.7582,-1.7582,-1.7582,-1.7582,-1.7582,-1.7582,-1.7582,-1.7582,-1.7582,-1.7582,-1.7582,-1.7582,-1.7582,-1.7582,-1.7582,-1.7582,-1.7582,-1.7582,-3.3081,-3.3081,-3.3081,-3.3081,-3.3081,-3.3081,-3.3081,-3.3081,-3.2884,-3.2152,-3.1589,-3.0944,-3.0316,-2.9761,-2.8947,-2.7683,-2.704,-2.639,-2.5732,-2.5742,-2.5742,-2.5742,-2.5742,-2.5742,-2.5742,-2.5742,-2.5742,-2.5742,-2.5742,-2.5742,-2.5742,-2.5742,-2.5742,-2.5742,-2.5742,-2.5742,-2.5742,-2.5742,-2.5742,-2.5742,-2.5742,-2.5742,-2.5742,-2.5742,-2.5742,-2.5742,-2.5742,-2.5742,-2.5742,-2.5742,-2.5742,-2.5742,-2.5742,-2.5742,-2.5742,-2.5742,-2.5742,-2.5742,-2.5742,-2.5742,-2.5742,-2.5742,-2.5742,-2.5742,-2.5742,-2.5742,-2.5742,-2.5742,-2.5742,-2.5742,-2.5742,-2.5742,-2.5742,-2.5742,-2.5742,-2.5742,-2.5742,-2.5742,-2.5742,-2.5742,-2.5742,-2.5742,-2.5742,-2.5742,-2.5742,-2.5742,-2.5742,-2.5742,-2.5742,-2.5118,-2.4097,-2.2667,-2.2055,-2.0735,-1.8603,-1.8506,-1.8199,-1.7582,-1.7582,-1.7582,-1.7582,-1.7582,-1.7582,-1.7582,-1.7582,-1.7582,-1.7582,-1.7582,-1.7582,-1.7582,-1.7582,-1.7582,-1.7582,-1.7582,-1.7582,-1.7582,-3.3081,-3.3081,-3.3081,-3.3081,-3.3081,-3.3081,-3.3081,-3.3081,-3.3081,-3.3081,-3.2152,-3.15,-3.15,-3.0226,-2.9039,-2.7945,-2.7494,-2.6849,-2.5732,-2.5742,-2.5742,-2.5742,-2.5742,-2.5742,-2.5742,-2.5742,-2.5742,-2.5742,-2.5742,-2.5742,-2.5742,-2.5742,-2.5742,-2.5742,-2.5742,-2.5742,-2.5742,-2.5742,-2.5742,-2.5742,-2.5742,-2.5742,-2.5742,-2.5742,-2.5742,-2.5742,-2.5742,-2.5742,-2.5742,-2.5742,-2.5742,-2.5742,-2.5742,-2.5742,-2.5742,-2.5742,-2.5742,-2.5742,-2.5742,-2.5742,-2.5742,-2.5742,-2.5742,-2.5742,-2.5742,-2.5742,-2.5742,-2.5742,-2.5742,-2.5742,-2.5742,-2.5742,-2.5742,-2.5742,-2.5742,-2.5742,-2.5742,-2.5742,-2.5742,-2.5742,-2.5742,-2.5742,-2.5742,-2.5742,-2.5742,-2.5742,-2.5742,-2.5742,-2.5742,-2.4609,-2.389,-2.3692,-2.2667,-2.1347,-1.993,-1.993,-1.9324,-1.7891,-1.7891,-1.7786,-1.7582,-1.7582,-1.7582,-1.7582,-1.7582,-1.7582,-1.7582,-1.7582,-1.7582,-1.7582,-1.7582,-1.7582,-1.7582,-1.7582,-1.7582,-1.7582,-3.3081,-3.3081,-3.3081,-3.3081,-3.3081,-3.3081,-3.3081,-3.3081,-3.3081,-3.3081,-3.2982,-3.2797,-3.2797,-3.0777,-2.9315,-2.9131,-2.721,-2.5917,-2.5732,-2.5742,-2.5742,-2.5742,-2.5742,-2.5742,-2.5742,-2.5742,-2.5742,-2.5742,-2.5742,-2.5742,-2.5742,-2.5742,-2.5742,-2.5742,-2.5742,-2.5742,-2.5742,-2.5742,-2.5742,-2.5742,-2.5742,-2.5742,-2.5742,-2.5742,-2.5742,-2.5742,-2.5742,-2.5742,-2.5742,-2.5742,-2.5742,-2.5742,-2.5742,-2.5742,-2.5742,-2.5742,-2.5742,-2.5742,-2.5742,-2.5742,-2.5742,-2.5742,-2.5742,-2.5742,-2.5742,-2.5742,-2.5742,-2.5742,-2.5742,-2.5742,-2.5742,-2.5742,-2.5742,-2.5742,-2.5742,-2.5742,-2.5742,-2.5742,-2.5742,-2.5742,-2.5742,-2.5742,-2.5742,-2.5742,-2.5742,-2.5742,-2.5742,-2.5742,-2.5742,-2.5538,-2.4913,-2.3791,-2.3484,-2.2776,-2.1448,-2.1448,-2.0743,-1.9324,-1.9324,-1.8708,-1.7582,-1.7582,-1.7582,-1.7582,-1.7582,-1.7582,-1.7582,-1.7582,-1.7582,-1.7582,-1.7582,-1.7582,-1.7582,-1.7582,-1.7582,-1.7582,-3.3081,-3.3081,-3.3081,-3.3081,-3.3081,-3.3081,-3.3081,-3.3081,-3.3081,-3.3081,-3.3081,-3.3081,-3.3081,-3.15,-3.0135,-2.9498,-2.7767,-2.6476,-2.5732,-2.5742,-2.5742,-2.5742,-2.5742,-2.5742,-2.5742,-2.5742,-2.5742,-2.5742,-2.5742,-2.5742,-2.5742,-2.5742,-2.5742,-2.5742,-2.5742,-2.5742,-2.5742,-2.5742,-2.5742,-2.5742,-2.5742,-2.5742,-2.5742,-2.5742,-2.5742,-2.5742,-2.5742,-2.5742,-2.5742,-2.5742,-2.5742,-2.5742,-2.5742,-2.5742,-2.5742,-2.5742,-2.5742,-2.5742,-2.5742,-2.5742,-2.5742,-2.5742,-2.5742,-2.5742,-2.5742,-2.5742,-2.5742,-2.5742,-2.5742,-2.5742,-2.5742,-2.5742,-2.5742,-2.5742,-2.5742,-2.5742,-2.5742,-2.5742,-2.5742,-2.5742,-2.5742,-2.5742,-2.5742,-2.5742,-2.5742,-2.5742,-2.5742,-2.5742,-2.5742,-2.5742,-2.543,-2.4815,-2.4815,-2.4196,-2.2868,-2.2767,-2.2165,-2.0743,-1.993,-1.8916,-1.7582,-1.7582,-1.7582,-1.7582,-1.7582,-1.7582,-1.7582,-1.7582,-1.7582,-1.7582,-1.7582,-1.7582,-1.7582,-1.7582,-1.7582,-1.7582]},{"header":{"parameterUnit":"m.s-1","parameterCategory":1,"la1":30.6,"la2":28.766,"lo1":-90.7593,"lo2":-88.6598,"dy":0.0162,"dx":0.0183,"nx":116,"ny":114,"refTime":"2023-07-12T12:00:00:Z","depth":0,"parameterNumber":3,"parameterNumberName":"V-component_of_WINDS"},"data":[0.0,0.0,0.0,0.0,0.0,0.0,0.0,0.0,0.0,0.0,0.0,0.0,0.0,0.0,0.0,0.0,0.0,0.0,0.0,0.0,0.0,0.0,0.0,0.0,0.0,0.0,0.0,0.0,0.0,0.0,0.0,0.0,0.0,0.0,0.0,0.0,0.0,0.0,0.0,0.0,0.0,0.0,0.0,0.0,0.0,0.0,0.0,0.0,0.0,0.0,0.0,0.0,0.0,0.0,0.0,0.0,0.0,0.0,0.0,0.0,0.0,0.0,0.0,0.0,0.0,0.0,0.0,0.0,0.0,0.0,0.0,0.0,0.0,0.0,0.0,0.0,0.0,0.0,0.0,0.0,0.0,0.0,0.0,0.0,0.0,0.0,0.0,0.0,0.0,0.0,0.0,0.0,0.0,0.0,0.0,0.0,0.0,0.0,0.0,0.0,0.0,0.0,0.0,0.0,0.0,0.0,0.0,0.0,0.0,0.0,0.0,0.0,0.0,0.0,0.0,0.0,0.0,0.0,0.0,0.0,0.0,0.0,0.0,0.0,0.0,0.0,0.0,0.0,0.0,0.0,0.0,0.0,0.0,0.0,0.0,0.0,0.0,0.0,0.0,0.0,0.0,0.0,0.0,0.0,0.0,0.0,0.0,0.0,0.0,0.0,0.0,0.0,0.0,0.0,0.0,0.0,0.0,0.0,0.0,0.0,0.0,0.0,0.0,0.0,0.0,0.0,0.0,0.0,0.0,0.0,0.0,0.0,0.0,0.0,0.0,0.0,0.0,0.0,0.0,0.0,0.0,0.0,0.0,0.0,0.0,0.0,0.0,0.0,0.0,0.0,0.0,0.0,0.0,0.0,0.0,0.0,0.0,0.0,0.0,0.0,0.0,0.0,0.0,0.0,0.0,0.0,0.0,0.0,0.0,0.0,0.0,0.0,0.0,0.0,0.0,0.0,0.0,0.0,0.0,0.0,0.0,0.0,0.0,0.0,0.0,0.0,0.0,0.0,0.0,0.0,0.0,0.0,0.0,0.0,0.0,0.0,0.0,0.0,0.0,0.0,0.0,0.0,0.0,0.0,0.0,0.0,0.0,0.0,0.0,0.0,0.0,0.0,0.0,0.0,0.0,0.0,0.0,0.0,0.0,0.0,0.0,0.0,0.0,0.0,0.0,0.0,0.0,0.0,0.0,0.0,0.0,0.0,0.0,0.0,0.0,0.0,0.0,0.0,0.0,0.0,0.0,0.0,0.0,0.0,0.0,0.0,0.0,0.0,0.0,0.0,0.0,0.0,0.0,0.0,0.0,0.0,0.0,0.0,0.0,0.0,0.0,0.0,0.0,0.0,0.0,0.0,0.0,0.0,0.0,0.0,0.0,0.0,0.0,0.0,0.0,0.0,0.0,0.0,0.0,0.0,0.0,0.0,0.0,0.0,0.0,0.0,0.0,0.0,0.0,0.0,0.0,0.0,0.0,0.0,0.0,0.0,0.0,0.0,0.0,0.0,0.0,0.0,0.0,0.0,0.0,0.0,0.0,0.0,0.0,0.0,0.0,0.0,0.0,0.0,0.0,0.0,0.0,0.0,0.0,0.0,0.0,0.0,0.0,0.0,0.0,0.0,0.0,0.0,0.0,0.0,0.0,0.0,0.0,0.0,0.0,0.0,0.0,0.0,0.0,0.0,0.0,0.0,0.0,0.0,0.0,0.0,0.0,0.0,0.0,0.0,0.0,0.0,0.0,0.0,0.0,0.0,0.0,0.0,0.0,0.0,0.0,0.0,0.0,0.0,0.0,0.0,0.0,0.0,0.0,0.0,0.0,0.0,0.0,0.0,0.0,0.0,0.0,0.0,0.0,0.0,0.0,0.0,0.0,0.0,0.0,0.0,0.0,0.0,0.0,0.0,0.0,0.0,0.0,0.0,0.0,0.0,0.0,0.0,0.0,0.0,0.0,0.0,0.0,0.0,0.0,0.0,0.0,0.0,0.0,0.0,0.0,0.0,0.0,0.0,0.0,0.0,0.0,0.0,0.0,0.0,0.0,0.0,0.0,0.0,0.0,0.0,0.0,0.0,0.0,0.0,0.0,0.0,0.0,0.0,0.0,0.0,0.0,0.0,0.0,0.0,0.0,0.0,0.0,0.0,0.0,0.0,0.0,0.0,0.0,0.0,0.0,0.0,0.0,0.0,0.0,0.0,0.0,0.0,0.0,0.0,0.0,0.0,0.0,0.0,0.0,0.0,0.0,0.0,0.0,0.0,0.0,0.0,0.0,0.0,0.0,0.0,0.0,0.0,0.0,0.0,0.0,0.0,0.0,0.0,0.0,0.0,0.0,0.0,0.0,0.0,0.0,0.0,0.0,0.0,0.0,0.0,0.0,0.0,0.0,0.0,0.0,0.0,0.0,0.0,0.0,0.0,0.0,0.0,0.0,0.0,0.0,0.0,0.0,0.0,0.0,0.0,0.0,0.0,0.0,0.0,0.0,0.0,0.0,0.0,0.0,0.0,0.0,0.0,0.0,0.0,0.0,0.0,0.0,0.0,0.0,0.0,0.0,0.0,0.0,0.0,0.0,0.0,0.0,0.0,0.0,0.0,0.0,0.0,0.0,0.0,0.0,0.0,0.0,0.0,0.0,0.0,0.0,0.0,0.0,0.0,0.0,0.0,0.0,0.0,0.0,0.0,0.0,0.0,0.0,0.0,0.0,0.0,0.0,0.0,0.0,0.0,0.0,0.0,0.0,0.0,0.0,0.0,0.0,0.0,0.0,0.0,0.0,0.0,0.0,0.0,0.0,0.0,0.0,0.0,0.0,0.0,0.0,0.0,0.0,0.0,0.0,0.0,0.0,0.0,0.0,0.0,0.0,0.0,0.0,0.0,0.0,0.0,0.0,0.0,0.0,0.0,0.0,0.0,0.0,0.0,0.0,0.0,0.0,0.0,0.0,0.0,0.0,0.0,0.0,0.0,0.0,0.0,0.0,0.0,0.0,0.0,0.0,0.0,0.0,0.0,0.0,0.0,0.0,0.0,0.0,0.0,0.0,0.0,0.0,0.0,0.0,0.0,0.0,0.0,0.0,0.0,0.0,0.0,0.0,0.0,0.0,0.0,0.0,0.0,0.0,0.0,0.0,0.0,0.0,0.0,0.0,0.0,0.0,0.0,0.0,0.0,0.0,0.0,0.0,0.0,0.0,0.0,0.0,0.0,0.0,0.0,0.0,0.0,0.0,0.0,0.0,0.0,0.0,0.0,0.0,0.0,0.0,0.0,0.0,0.0,0.0,0.0,0.0,0.0,0.0,0.0,0.0,0.0,0.0,0.0,0.0,0.0,0.0,0.0,0.0,0.0,0.0,0.0,0.0,0.0,0.0,0.0,0.0,0.0,0.0,0.0,0.0,0.0,0.0,0.0,0.0,0.0,0.0,0.0,0.0,0.0,0.0,0.0,0.0,0.0,0.0,0.0,0.0,0.0,0.0,0.0,0.0,0.0,0.0,0.0,0.0,0.0,0.0,0.0,0.0,0.0,0.0,0.0,0.0,0.0,0.0,0.0,0.0,0.0,0.0,0.0,0.0,0.0,0.0,0.0,0.0,0.0,0.0,0.0,0.0,0.0,0.0,0.0,0.0,0.0,0.0,0.0,0.0,0.0,0.0,0.0,0.0,0.0,0.0,0.0,0.0,0.0,0.0,0.0,0.0,0.0,0.0,0.0,0.0,0.0,0.0,0.0,0.0,0.0,0.0,0.0,0.0,0.0,0.0,0.0,0.0,0.0,0.0,0.0,0.0,0.0,0.0,0.0,0.0,0.0,0.0,0.0,0.0,0.0,0.0,0.0,0.0,0.0,0.0,0.0,0.0,0.0,0.0,0.0,0.0,0.0,0.0,0.0,0.0,0.0,0.0,0.0,0.0,0.0,0.0,0.0,0.0,0.0,0.0,0.0,0.0,0.0,0.0,0.0,0.0,0.0,0.0,0.0,0.0,0.0,0.0,0.0,0.0,0.0,0.0,0.0,0.0,0.0,0.0,0.0,0.0,0.0,0.0,0.0,0.0,0.0,0.0,0.0,0.0,0.0,0.0,0.0,0.0,0.0,0.0,0.0,0.0,0.0,0.0,0.0,0.0,0.0,0.0,0.0,0.0,0.0,0.0,0.0,0.0,0.0,0.0,0.0,0.0,0.0,0.0,0.0,0.0,0.0,0.0,0.0,0.0,0.0,0.0,0.0,0.0,0.0,0.0,0.0,0.0,0.0,0.0,0.0,0.0,0.0,0.0,0.0,0.0,0.0,0.0,0.0,0.0,0.0,0.0,0.0,0.0,0.0,0.0,0.0,0.0,0.0,0.0,0.0,0.0,0.0,0.0,0.0,0.0,0.0,0.0,0.0,0.0,0.0,0.0,0.0,0.0,0.0,0.0,0.0,0.0,0.0,0.0,0.0,0.0,0.0,0.0,0.0,0.0,0.0,0.0,0.0,0.0,0.0,0.0,0.0,0.0,0.0,0.0,0.0,0.0,0.0,0.0,0.0,0.0,0.0,0.0,0.0,0.0,0.0,0.0,0.0,0.0,0.0,0.0,0.0,0.0,0.0,0.0,0.0,0.0,0.0,0.0,0.0,0.0,0.0,0.0,0.0,0.0,0.0,0.0,0.0,0.0,0.0,0.0,0.0,0.0,0.0,0.0,0.0,0.0,0.0,0.0,0.0,0.0,0.0,0.0,0.0,0.0,0.0,0.0,0.0,0.0,0.0,0.0,0.0,0.0,0.0,0.0,0.0,0.0,0.0,0.0,0.0,0.0,0.0,0.0,0.0,0.0,0.0,0.0,0.0,0.0,0.0,0.0,0.0,0.0,0.0,0.0,0.0,0.0,0.0,0.0,0.0,0.0,0.0,0.0,0.0,0.0,0.0,0.0,0.0,0.0,0.0,0.0,0.0,0.0,0.0,0.0,0.0,0.0,0.0,0.0,0.0,0.0,0.0,0.0,0.0,0.0,0.0,0.0,0.0,0.0,0.0,0.0,0.0,0.0,0.0,0.0,0.0,0.0,0.0,0.0,0.0,0.0,0.0,0.0,0.0,0.0,0.0,0.0,0.0,0.0,0.0,0.0,0.0,0.0,0.0,0.0,0.0,0.0,0.0,0.0,0.0,0.0,0.0,0.0,0.0,0.0,0.0,0.0,0.0,0.0,0.0,0.0,0.0,0.0,0.0,0.0,0.0,0.0,0.0,0.0,0.0,0.0,0.0,0.0,0.0,0.0,0.0,0.0,0.0,0.0,0.0,0.0,0.0,0.0,0.0,0.0,0.0,0.0,0.0,0.0,0.0,0.0,0.0,0.0,0.0,0.0,0.0,0.0,0.0,0.0,0.0,0.0,0.0,0.0,0.0,0.0,0.0,0.0,0.0,0.0,0.0,0.0,0.0,0.0,0.0,0.0,0.0,0.0,0.0,0.0,0.0,0.0,0.0,0.0,0.0,0.0,0.0,0.0,0.0,0.0,0.0,0.0,0.0,0.0,0.0,0.0,0.0,0.0,0.0,0.0,0.0,0.0,0.0,0.0,0.0,0.0,0.0,0.0,0.0,0.0,0.0,0.0,0.0,0.0,0.0,0.0,0.0,0.0,0.0,0.0,0.0,0.0,0.0,0.0,0.0,0.0,0.0,0.0,0.0,0.0,0.0,0.0,0.0,0.0,0.0,0.0,0.0,0.0,0.0,0.0,0.0,0.0,0.0,0.0,0.0,0.0,0.0,0.0,0.0,0.0,0.0,0.0,0.0,0.0,0.0,0.0,0.0,0.0,0.0,0.0,0.0,0.0,0.0,0.0,0.0,0.0,0.0,0.0,0.0,0.0,0.0,0.0,0.0,0.0,0.0,0.0,0.0,0.0,0.0,0.0,0.0,0.0,0.0,0.0,0.0,0.0,0.0,0.0,0.0,0.0,0.0,0.0,0.0,0.0,0.0,0.0,0.0,0.0,0.0,0.0,0.0,0.0,0.0,0.0,0.0,0.0,0.0,0.0,0.0,0.0,0.0,0.0,0.0,0.0,0.0,0.0,0.0,0.0,0.0,0.0,0.0,0.0,0.0,0.0,0.0,0.0,0.0,0.0,0.0,-3.5387,0.0,0.0,0.0,0.0,0.0,0.0,0.0,0.0,0.0,0.0,0.0,0.0,0.0,0.0,0.0,0.0,0.0,0.0,0.0,0.0,0.0,0.0,0.0,0.0,0.0,0.0,0.0,0.0,0.0,0.0,0.0,0.0,0.0,0.0,0.0,0.0,0.0,0.0,0.0,0.0,0.0,0.0,0.0,0.0,0.0,0.0,0.0,0.0,0.0,0.0,0.0,0.0,0.0,0.0,0.0,0.0,0.0,0.0,0.0,0.0,0.0,0.0,0.0,0.0,0.0,0.0,0.0,0.0,0.0,0.0,0.0,0.0,0.0,0.0,0.0,0.0,0.0,0.0,0.0,0.0,0.0,0.0,0.0,0.0,0.0,0.0,0.0,0.0,0.0,0.0,0.0,0.0,0.0,0.0,0.0,0.0,0.0,0.0,0.0,0.0,0.0,0.0,0.0,0.0,0.0,0.0,0.0,0.0,0.0,0.0,0.0,0.0,0.0,0.0,0.0,0.0,-3.5866,0.0,0.0,0.0,0.0,0.0,0.0,0.0,0.0,0.0,0.0,0.0,0.0,0.0,0.0,0.0,0.0,0.0,0.0,0.0,0.0,0.0,0.0,0.0,0.0,0.0,0.0,0.0,0.0,0.0,0.0,0.0,0.0,0.0,0.0,0.0,0.0,0.0,0.0,0.0,0.0,0.0,0.0,0.0,0.0,0.0,0.0,0.0,0.0,0.0,0.0,0.0,0.0,0.0,0.0,0.0,0.0,0.0,0.0,0.0,0.0,0.0,0.0,0.0,0.0,0.0,0.0,0.0,0.0,0.0,0.0,0.0,0.0,0.0,0.0,0.0,0.0,0.0,0.0,0.0,0.0,0.0,0.0,0.0,0.0,0.0,0.0,0.0,0.0,0.0,0.0,0.0,0.0,0.0,0.0,0.0,0.0,0.0,0.0,0.0,0.0,0.0,0.0,0.0,0.0,0.0,0.0,0.0,0.0,0.0,-3.6878,-3.683,-3.7827,-3.8162,-3.7831,-3.7186,-3.6557,-3.6031,0.0,0.0,0.0,0.0,0.0,0.0,0.0,0.0,0.0,0.0,0.0,0.0,0.0,0.0,0.0,0.0,0.0,0.0,0.0,0.0,0.0,0.0,0.0,0.0,0.0,0.0,0.0,0.0,0.0,0.0,0.0,0.0,0.0,0.0,0.0,0.0,0.0,0.0,0.0,-3.15,-3.1559,-3.1785,-3.2073,-3.1765,0.0,0.0,0.0,0.0,0.0,0.0,0.0,0.0,0.0,0.0,0.0,0.0,0.0,0.0,0.0,0.0,0.0,0.0,0.0,0.0,0.0,0.0,0.0,0.0,0.0,0.0,0.0,0.0,0.0,0.0,0.0,0.0,0.0,0.0,0.0,0.0,0.0,0.0,0.0,0.0,0.0,0.0,0.0,-3.3633,-3.3759,0.0,0.0,0.0,0.0,0.0,0.0,0.0,0.0,0.0,0.0,0.0,0.0,0.0,0.0,-3.6343,-3.6454,-3.6482,-3.6417,-3.7834,-3.8467,-3.8432,-3.9968,-4.0634,-4.0602,-4.0474,0.0,-3.8041,-3.8118,0.0,0.0,0.0,0.0,0.0,0.0,0.0,0.0,0.0,0.0,0.0,0.0,0.0,0.0,0.0,0.0,0.0,0.0,0.0,0.0,0.0,0.0,0.0,0.0,0.0,0.0,0.0,0.0,0.0,0.0,0.0,0.0,0.0,0.0,0.0,0.0,-3.1504,-3.1406,-3.1308,-3.1368,-3.1483,-3.1617,-3.1428,-3.1579,-3.193,-3.1856,0.0,0.0,0.0,0.0,0.0,0.0,0.0,0.0,0.0,0.0,0.0,0.0,0.0,0.0,0.0,0.0,0.0,0.0,0.0,0.0,0.0,0.0,0.0,0.0,0.0,0.0,0.0,0.0,0.0,0.0,0.0,0.0,0.0,0.0,0.0,0.0,0.0,0.0,0.0,-3.4149,-3.4578,-3.4154,-3.4543,-3.4661,0.0,0.0,0.0,0.0,0.0,0.0,0.0,0.0,0.0,-3.6666,-3.7423,-3.8011,-3.8453,-3.8884,-3.9062,-3.9032,-3.9748,-4.0097,-4.0084,-4.0799,-4.1111,-4.1111,-4.1111,-4.0643,-3.9932,-3.9965,-4.0029,-4.0092,0.0,0.0,0.0,0.0,0.0,-3.884,0.0,0.0,0.0,0.0,0.0,0.0,0.0,0.0,0.0,0.0,0.0,0.0,0.0,0.0,0.0,-2.8648,0.0,0.0,0.0,0.0,0.0,0.0,0.0,0.0,0.0,0.0,0.0,0.0,-3.1449,-3.1513,-3.1679,-3.1777,-3.2015,-3.23,-3.2187,-3.2093,-3.1966,-3.1783,-3.1726,0.0,0.0,0.0,0.0,0.0,0.0,0.0,0.0,0.0,0.0,0.0,0.0,0.0,0.0,0.0,0.0,0.0,0.0,0.0,0.0,0.0,0.0,0.0,0.0,0.0,0.0,0.0,0.0,0.0,0.0,0.0,0.0,0.0,0.0,0.0,0.0,0.0,0.0,-3.4781,-3.5047,-3.421,-3.5036,-3.5351,0.0,0.0,0.0,0.0,0.0,0.0,-3.6841,-3.7211,-3.7681,-3.8272,-3.9013,-3.9669,-4.0289,-4.085,-4.1111,-4.1111,-4.1534,-4.1717,-4.1735,-4.2139,-4.2341,-4.2341,-4.2341,-4.2341,-4.2286,-4.1442,-4.1158,-4.119,-4.1204,-4.0867,-4.0363,-4.0363,-3.9995,-3.9478,0.0,0.0,0.0,0.0,0.0,0.0,0.0,0.0,0.0,0.0,0.0,0.0,0.0,0.0,-3.0201,-3.0551,-3.0657,-3.0931,0.0,0.0,0.0,0.0,0.0,0.0,0.0,0.0,0.0,-3.1295,-3.1623,-3.2206,-3.3026,-3.3407,-3.4209,-3.5357,-3.4903,-3.3455,-3.1334,-3.1462,-3.1538,-3.1654,0.0,0.0,0.0,0.0,0.0,0.0,0.0,0.0,0.0,0.0,0.0,0.0,0.0,0.0,0.0,0.0,0.0,0.0,0.0,0.0,0.0,0.0,0.0,0.0,0.0,0.0,0.0,0.0,0.0,0.0,0.0,0.0,0.0,0.0,0.0,0.0,0.0,0.0,0.0,-3.4185,-3.551,0.0,0.0,0.0,0.0,-3.6436,-3.7156,-3.7599,-3.7636,-3.9024,-3.9841,-3.9878,-4.0593,-4.1001,-4.1038,-4.1093,-4.1111,-4.113,-4.2653,-4.3369,-4.3424,-4.4947,-4.5663,-4.5663,-4.5663,-4.5663,-4.5424,-4.2441,-4.1158,-4.1111,-4.119,-4.1121,-4.1056,-4.1056,-4.102,-4.0983,0.0,0.0,0.0,0.0,0.0,0.0,0.0,0.0,0.0,0.0,0.0,0.0,0.0,-3.0316,-3.0568,-3.0692,-3.0935,-3.1173,-3.1351,0.0,0.0,0.0,0.0,0.0,0.0,0.0,-3.1726,-3.2455,-3.2587,-3.3173,-3.427,-3.4394,-3.4709,-3.513,-3.4976,-3.4412,-3.3598,-3.3231,-3.2825,-3.2401,-3.2636,-3.2752,0.0,0.0,0.0,0.0,0.0,0.0,0.0,0.0,0.0,0.0,0.0,0.0,0.0,0.0,0.0,0.0,0.0,0.0,0.0,0.0,0.0,0.0,0.0,0.0,0.0,0.0,0.0,0.0,0.0,0.0,0.0,0.0,0.0,0.0,0.0,0.0,0.0,-3.5687,-3.6574,0.0,0.0,-3.7147,-3.7738,-3.8733,-3.9054,-3.9411,-3.9909,-4.0423,-4.1181,-4.2209,-4.2488,-4.313,-4.4176,-4.4195,-4.4195,-4.4195,-4.4764,-4.5039,-4.5057,-4.5645,-4.5902,-4.5902,-4.5902,-4.5902,-4.581,-4.4689,-4.3918,-4.3424,-4.344,-4.2815,-4.1882,-4.1882,-4.1552,-4.1111,0.0,0.0,0.0,0.0,0.0,0.0,0.0,0.0,0.0,0.0,0.0,-3.0044,-3.0316,-3.0651,-3.0855,-3.0855,-3.1072,-3.1269,-3.1351,0.0,0.0,0.0,0.0,0.0,0.0,-3.1918,-3.2435,-3.3477,-3.3774,-3.4499,-3.5523,-3.5711,-3.5921,-3.6173,-3.6173,-3.6029,-3.5741,-3.5353,-3.4523,-3.3547,-3.3713,-3.3858,-3.3921,0.0,0.0,0.0,0.0,0.0,0.0,0.0,0.0,0.0,0.0,0.0,0.0,0.0,0.0,0.0,0.0,0.0,0.0,0.0,0.0,0.0,0.0,0.0,0.0,0.0,0.0,0.0,0.0,0.0,0.0,0.0,0.0,0.0,0.0,0.0,-3.6888,-3.6916,-3.779,-3.8435,-3.8464,-3.8704,-3.9312,-4.0369,-4.0896,-4.1397,-4.1963,-4.2466,-4.3222,-4.4268,-4.4305,-4.4819,-4.5883,-4.5902,-4.5902,-4.5902,-4.6177,-4.6305,-4.6305,-4.6599,-4.6709,-4.6709,-4.6709,-4.6709,-4.6709,-4.6709,-4.625,-4.5498,-4.5223,-4.4452,-4.3516,-4.3516,-4.3185,-4.2727,0.0,0.0,0.0,0.0,0.0,0.0,0.0,0.0,0.0,0.0,-3.0241,-3.0692,-3.0692,-3.0975,-3.119,-3.119,-3.119,-3.1269,-3.1479,-3.1517,0.0,0.0,0.0,0.0,-3.2485,-3.2962,-3.3534,-3.422,-3.5134,-3.6031,-3.6895,-3.7332,-3.7991,-3.8781,-3.8781,-3.8322,-3.7551,-3.7551,-3.6604,-3.5047,-3.5184,-3.5385,-3.563,0.0,0.0,0.0,0.0,0.0,0.0,0.0,0.0,0.0,0.0,0.0,0.0,0.0,0.0,0.0,0.0,0.0,0.0,0.0,0.0,0.0,0.0,0.0,0.0,0.0,0.0,0.0,0.0,0.0,0.0,0.0,0.0,0.0,-3.5423,-3.6656,-3.7679,-3.7774,-3.9116,-4.0062,-4.0086,-4.0817,-4.1282,-4.1258,-4.269,-4.3552,-4.3552,-4.5039,-4.5902,-4.5938,-4.5938,-4.5957,-4.5975,-4.5975,-4.5975,-4.5975,-4.6783,-4.715,-4.7186,-4.7957,-4.8306,-4.8306,-4.8306,-4.8306,-4.8306,-4.8306,-4.7847,-4.7076,-4.625,-4.592,-4.5902,-4.5902,-4.5902,-4.5902,0.0,0.0,0.0,0.0,0.0,0.0,0.0,0.0,0.0,0.0,-3.0027,-3.0241,-3.0393,-3.0878,-3.119,-3.119,-3.119,-3.1252,-3.1351,0.0,0.0,0.0,0.0,0.0,-3.2502,-3.3059,-3.39,-3.5,-3.5255,-3.6432,-3.8469,-3.8606,-3.9298,-4.0451,-4.0451,-3.9992,-3.9221,-3.9221,-3.8619,-3.7553,-3.6437,-3.6042,-3.6102,0.0,0.0,0.0,0.0,0.0,0.0,0.0,0.0,0.0,0.0,0.0,0.0,0.0,0.0,0.0,0.0,0.0,0.0,0.0,0.0,0.0,0.0,0.0,0.0,0.0,0.0,0.0,0.0,0.0,0.0,0.0,0.0,-3.8015,-3.7824,-3.8203,-3.8891,-4.0037,-4.0538,-4.1273,-4.2411,-4.2742,-4.3348,-4.4488,-4.4984,-4.5241,-4.5241,-4.5663,-4.6177,-4.6764,-4.6783,-4.7058,-4.7627,-4.7645,-4.7645,-4.7645,-4.7865,-4.7976,-4.7994,-4.8214,-4.8306,-4.8306,-4.8306,-4.8306,-4.8306,-4.8306,-4.8177,-4.7902,-4.7095,-4.6416,-4.5902,-4.5902,-4.5902,-4.5902,0.0,0.0,0.0,0.0,0.0,0.0,0.0,0.0,0.0,0.0,-2.9924,-3.0225,-3.0293,-3.0838,-3.119,-3.119,-3.123,-3.1291,-3.1368,0.0,0.0,0.0,0.0,-3.2661,-3.2863,-3.3724,-3.473,-3.5758,-3.6312,-3.7323,-3.8778,-3.9063,-3.9642,-4.0384,-4.0384,-4.0131,-3.9696,-3.9577,-3.9243,-3.8733,-3.7458,-3.6966,-3.6966,-3.6966,-3.6635,-3.6085,-3.5544,-3.5155,-3.473,-3.3816,0.0,0.0,0.0,0.0,0.0,0.0,0.0,0.0,0.0,0.0,0.0,0.0,0.0,0.0,0.0,0.0,0.0,0.0,0.0,0.0,0.0,0.0,0.0,0.0,-3.8964,-3.9827,-4.022,-3.9982,-4.0336,-4.1919,-4.2121,-4.2745,-4.4342,-4.4507,-4.4892,-4.5828,-4.6214,-4.6416,-4.6416,-4.6728,-4.7131,-4.7609,-4.7609,-4.7847,-4.8306,-4.8306,-4.8306,-4.8306,-4.8306,-4.8306,-4.8306,-4.8306,-4.8306,0.0,-4.8306,-4.8306,-4.8306,-4.8306,-4.8306,0.0,0.0,0.0,0.0,0.0,-4.6911,-4.6911,0.0,0.0,0.0,0.0,0.0,0.0,0.0,0.0,0.0,0.0,0.0,-3.0293,-3.0208,-3.074,-3.1112,-3.119,-3.1274,-3.1351,0.0,0.0,0.0,-3.1295,-3.2145,-3.2846,-3.3389,-3.4672,-3.5659,-3.6291,-3.7533,-3.8197,-3.8382,-3.91,-3.9547,-3.9658,-3.9658,-3.9623,-3.9522,-3.9188,-3.8996,-3.8852,-3.8114,-3.7859,-3.7893,-3.7825,-3.7077,-3.6019,-3.5982,-3.5504,-3.4832,-3.4422,0.0,0.0,0.0,0.0,0.0,0.0,0.0,0.0,0.0,0.0,0.0,0.0,0.0,0.0,0.0,0.0,0.0,0.0,0.0,0.0,0.0,0.0,0.0,0.0,-4.0322,-4.1662,-4.247,-4.2029,-4.2139,-4.3479,-4.3718,-4.436,-4.5883,-4.6049,-4.6067,-4.6159,-4.6838,-4.726,-4.726,0.0,0.0,0.0,0.0,-4.8489,-4.8581,-4.8581,-4.8581,-4.8581,-4.8581,-4.8581,-4.8581,-4.8581,-4.8581,-4.8581,-4.8581,-4.8581,-4.8581,-4.8581,-4.8581,-4.8563,-4.8379,-4.8306,-4.8306,-4.8306,-4.8306,-4.8306,0.0,0.0,0.0,0.0,0.0,0.0,0.0,0.0,0.0,-2.8795,-2.9104,-2.9422,-2.954,-3.0123,-3.0658,-3.1151,-3.1274,-3.1351,0.0,0.0,-3.1334,-3.1295,-3.2557,-3.3271,-3.3406,-3.4796,-3.5586,-3.5739,-3.6638,-3.7627,-3.8659,-3.9382,-4.0281,-4.1368,-4.1368,-4.0972,-4.0353,-3.9678,-3.9025,-3.8386,-3.7642,-3.7578,-3.7859,-3.747,-3.7159,-3.6905,-3.6457,-3.6209,-3.5943,-3.5005,-3.484,-3.4886,-3.4198,0.0,0.0,0.0,0.0,0.0,0.0,0.0,0.0,0.0,0.0,0.0,0.0,0.0,0.0,0.0,0.0,0.0,0.0,0.0,0.0,-4.0432,-4.1992,-4.3314,-4.4121,-4.4672,-4.4856,-4.4525,-4.5039,-4.581,-4.6783,-4.6874,-4.715,-4.7792,-4.7994,-4.8086,-4.8086,-4.8233,0.0,-4.9242,-4.9315,-4.9646,-5.0306,-5.0325,-5.0325,-5.0325,0.0,0.0,-5.0325,-5.0325,-5.0325,-5.0325,-5.0325,-5.0325,-5.0325,-5.0325,-5.0325,-5.0178,-4.8838,-4.8306,-4.8306,-4.8306,-4.8306,-4.8306,0.0,0.0,0.0,0.0,0.0,0.0,0.0,0.0,0.0,0.0,-2.8842,-2.9166,-2.9361,-2.9978,-3.0601,-3.1055,-3.1235,0.0,0.0,-3.1351,-3.1312,-3.1252,-3.2652,-3.3406,-3.3406,-3.4861,-3.5622,-3.5622,-3.6789,-3.7687,-3.8334,-3.9418,-4.0328,-4.0938,-4.0938,-4.0747,-4.0314,-3.9442,-3.8811,-3.8356,-3.7259,-3.6943,-3.7117,-3.6865,-3.6643,-3.6357,-3.6097,-3.6028,-3.5916,-3.5402,-3.5309,-3.5283,-3.4689,-3.4414,-3.4181,0.0,0.0,0.0,0.0,0.0,0.0,0.0,0.0,0.0,0.0,0.0,0.0,0.0,0.0,-3.834,0.0,0.0,-4.091,-4.2103,-4.3314,-4.4378,-4.5186,-4.5993,-4.6361,-4.5957,-4.6269,-4.6838,-4.7627,-4.7719,-4.7884,-4.8269,-4.8306,-4.8489,-4.893,-4.8948,-4.9315,-5.0123,-5.0178,-5.038,-5.0802,-5.0802,-5.0802,-5.0802,-5.0802,-5.0802,-5.0802,-5.0802,-5.0802,-5.0802,-5.0802,-5.0802,-5.0802,-5.0802,-5.0802,-5.0729,-4.9884,-4.9554,-4.9499,-4.9095,-4.8948,-4.8893,0.0,0.0,0.0,0.0,0.0,0.0,0.0,0.0,0.0,0.0,-2.8544,-2.9028,-2.9377,-2.9935,-3.0477,0.0,0.0,0.0,0.0,-3.1368,-3.1252,-3.119,-3.2476,-3.3254,-3.3406,-3.4709,-3.547,-3.5622,-3.7009,-3.7686,-3.7719,-3.9039,-3.9648,-3.9648,-3.9648,-3.9648,-3.9613,-3.866,-3.8267,-3.8102,-3.6801,-3.6249,-3.6249,-3.6249,-3.5985,-3.5622,-3.5622,-3.5622,-3.5622,-3.5622,-3.5622,-3.5565,-3.5033,-3.4857,-3.4609,-3.3675,-3.3701,0.0,0.0,0.0,0.0,0.0,0.0,0.0,0.0,0.0,-3.8377,-3.9038,-3.968,-4.0377,-4.1185,-4.1992,-4.28,-4.3589,-4.4544,-4.5406,-4.6049,-4.6838,-4.7352,-4.7352,-4.7352,-4.7609,-4.8251,-4.8306,-4.8379,-4.8545,-4.8545,-4.893,-4.9774,-4.9811,-5.0196,-5.1004,-5.1041,-5.1114,-5.1261,-5.1279,-5.1279,-5.1279,-5.1279,-5.1279,-5.1279,-5.1279,-5.1279,-5.1279,-5.1279,-5.1279,-5.1279,-5.1279,-5.1279,-5.1279,-5.1279,-5.1279,-5.1151,-5.0178,-4.9811,-4.9719,0.0,0.0,0.0,0.0,0.0,0.0,0.0,0.0,0.0,0.0,0.0,0.0,0.0,0.0,0.0,0.0,0.0,0.0,-3.1312,-3.1252,-3.119,-3.119,-3.1985,-3.2713,-3.3389,-3.4201,-3.4945,-3.5622,-3.6485,-3.6907,-3.6924,-3.7753,-3.8159,-3.8159,-3.8159,-3.8159,-3.8091,-3.7339,-3.7029,-3.6898,-3.6034,-3.5694,-3.5694,-3.5694,-3.5667,-3.5622,-3.5622,-3.5684,-3.5773,-3.5622,-3.5667,-3.5756,-3.5582,-3.5179,-3.4814,-3.4785,0.0,-3.4473,-3.4498,-3.5077,-3.5729,-3.6197,-3.7367,-3.8432,0.0,0.0,-4.0726,-4.0818,-4.091,-4.1222,-4.2029,-4.2818,-4.3626,-4.4433,-4.5847,-4.6874,-4.6966,-4.7664,-4.8177,-4.8177,-4.8177,-4.8214,-4.8306,-4.8306,-4.8618,-4.9389,-4.9444,-4.9793,-5.0618,-5.0674,-5.1022,-5.183,-5.1867,-5.2215,-5.2931,-5.2949,-5.2949,-5.2949,-5.2949,-5.2949,-5.2949,-5.2949,-5.2949,-5.2949,-5.2949,-5.2949,-5.2949,-5.2949,-5.2949,-5.2949,-5.2949,-5.2949,-5.2766,-5.1242,-5.0674,-5.0655,0.0,0.0,0.0,0.0,0.0,0.0,0.0,0.0,0.0,0.0,0.0,0.0,0.0,0.0,0.0,0.0,0.0,0.0,-3.0771,-3.0707,-3.0658,-3.0658,-3.1705,-3.2425,-3.2747,-3.3897,-3.4641,-3.4962,-3.618,-3.6772,-3.6806,-3.755,-3.7905,-3.7905,-3.7905,-3.7905,-3.7855,-3.7094,-3.6772,-3.6705,-3.5926,-3.5622,-3.5622,-3.5622,-3.5622,-3.5622,-3.5684,-3.5773,0.0,0.0,-3.5773,-3.5773,-3.5622,-3.5508,-3.5343,-3.5086,-3.5184,0.0,-3.626,-3.6496,0.0,0.0,-3.9073,-3.9649,-4.002,-4.0983,-4.1809,-4.1809,-4.2543,-4.3314,-4.3644,-4.4342,-4.5149,0.0,-4.6673,-4.7278,-4.7737,-4.8104,-4.8306,-4.8306,-4.8306,-4.8508,-4.9003,-4.9058,-4.9389,-5.0233,-5.0288,-5.0637,-5.1463,-5.1499,-5.1867,-5.2674,-5.2711,-5.2858,-5.3206,-5.3206,-5.3206,-5.3206,-5.3206,-5.3206,-5.3206,-5.3206,-5.3206,-5.3206,-5.3206,-5.3206,-5.3206,-5.3206,-5.3206,-5.3206,-5.3206,-5.3206,-5.3078,-5.1922,-5.1499,-5.1426,0.0,0.0,0.0,0.0,0.0,0.0,0.0,0.0,0.0,0.0,0.0,0.0,0.0,0.0,0.0,0.0,0.0,0.0,0.0,-3.0133,-3.0081,-3.0038,-3.1141,-3.175,-3.1809,-3.299,-3.3732,-3.395,-3.5261,-3.5992,-3.6163,-3.6924,-3.728,-3.728,-3.728,-3.728,-3.7246,-3.6705,-3.6451,-3.6417,-3.5842,-3.5622,-3.5622,-3.5622,-3.5622,-3.5588,-3.5491,-3.5511,0.0,0.0,-3.5368,-3.5538,-3.545,-3.5603,-3.5803,-3.5429,-3.5694,-3.6346,-3.7453,0.0,0.0,-3.9526,-4.0159,-4.0396,-4.0871,-4.1702,-4.2465,-4.2684,-4.3777,-4.4856,-4.5296,-4.5847,0.0,-4.7315,-4.7443,-4.7645,-4.8233,-4.8306,-4.8306,-4.8306,-4.8508,-4.8985,-4.9848,-4.9719,-5.0013,-5.1041,-5.1132,-5.1481,-5.2289,-5.2325,-5.2601,-5.3188,-5.3206,-5.3206,-5.3206,-5.3206,-5.3206,-5.3206,-5.3206,-5.3206,-5.3206,-5.3206,-5.3206,-5.3206,-5.3206,-5.3206,-5.3206,-5.3206,-5.3206,-5.3206,-5.3206,-5.3206,-5.3133,-5.2546,-5.2325,-5.2252,0.0,0.0,0.0,0.0,0.0,0.0,0.0,0.0,0.0,0.0,0.0,0.0,0.0,0.0,0.0,0.0,0.0,0.0,0.0,-2.9629,-2.9585,-2.9451,-3.0011,-3.0424,-3.0553,-3.116,-3.1847,-3.2574,-3.3317,-3.4018,-3.4573,-3.5334,-3.569,-3.569,-3.569,-3.569,-3.569,-3.5673,-3.5656,-3.5656,-3.5622,-3.5622,-3.5622,-3.5622,-3.5622,-3.552,-3.4914,0.0,0.0,0.0,-3.435,-3.4991,-3.4941,-3.5395,0.0,-3.6148,-3.6216,0.0,0.0,0.0,-3.8111,-3.9176,-4.0017,-4.0583,-4.0624,-4.1712,-4.293,-4.3689,-4.429,-4.5186,-4.6764,-4.7076,-4.7352,-4.8141,-4.8269,-4.8269,-4.8306,-4.8306,-4.8306,-4.8306,-4.904,-4.9866,0.0,-5.005,-5.0251,-5.183,-5.1958,-5.2307,-5.3133,-5.317,-5.3188,-5.3206,-5.3206,-5.3206,-5.3206,-5.3206,-5.3206,-5.3206,-5.3206,-5.3206,-5.3206,-5.3206,-5.3206,-5.3206,-5.3206,-5.3206,-5.3206,-5.3206,-5.3206,-5.3206,-5.3206,-5.3206,-5.3206,-5.3188,-5.317,-5.317,0.0,0.0,0.0,0.0,0.0,0.0,0.0,0.0,0.0,0.0,0.0,0.0,0.0,0.0,0.0,0.0,0.0,0.0,0.0,-2.9058,-2.8996,-2.8966,-2.9406,-2.9726,-2.9788,-3.0464,-3.0911,-3.1154,-3.1929,-3.2364,-3.2567,-3.2812,-3.2927,-3.2973,-3.3359,-3.3556,-3.3573,-3.396,-3.415,-3.415,-3.415,-3.4438,-3.4878,-3.4878,-3.4878,-3.482,0.0,0.0,0.0,0.0,-3.4339,-3.5015,-3.4907,-3.548,-3.6165,-3.6233,-3.6595,-3.7119,0.0,0.0,-3.9038,-4.0103,-4.0603,-4.0884,-4.1294,-4.2517,-4.3581,-4.3851,-4.4745,-4.5663,-4.6214,-4.6746,-4.7205,-4.748,-4.7957,-4.8306,-4.8306,-4.8306,-4.8306,-4.8306,-4.9058,0.0,0.0,0.0,0.0,-5.2729,-5.2803,-5.2913,-5.3206,-5.3206,-5.3206,-5.3206,-5.3206,-5.3206,-5.3206,-5.3206,-5.3206,-5.3206,-5.3206,-5.3206,-5.3206,-5.3206,-5.3206,-5.3206,-5.3206,-5.3206,-5.3206,-5.3206,-5.3206,-5.3206,-5.3206,-5.3206,-5.3206,-5.3206,-5.3206,-5.3206,0.0,0.0,0.0,0.0,0.0,0.0,0.0,0.0,0.0,0.0,0.0,0.0,0.0,0.0,0.0,0.0,0.0,0.0,0.0,0.0,-2.8479,-2.8431,-2.8935,-2.9104,-2.8873,-2.9578,-2.994,-2.994,-3.064,-3.1086,-3.1276,-3.1517,-3.1582,-3.1646,-3.2022,-3.2161,-3.2207,-3.2585,-3.2796,-3.29,-3.29,-3.3228,-3.3812,-3.4169,-3.4145,0.0,0.0,0.0,0.0,0.0,0.0,-3.4661,-3.4638,-3.5341,-3.6302,-3.656,-3.6964,-3.7494,0.0,-3.8874,-3.9418,-4.0357,-4.0607,-4.0772,-4.1424,-4.245,-4.3415,-4.3967,-4.4777,-4.5467,-4.5797,-4.6225,-4.6632,-4.6925,-4.7478,-4.7976,-4.8269,-4.8306,-4.8306,-4.8306,-4.9315,0.0,0.0,0.0,0.0,-5.317,-5.3206,-5.3206,-5.3206,-5.3206,-5.3206,-5.3206,-5.3206,-5.3206,-5.3206,-5.3206,-5.3206,-5.3206,-5.3206,-5.3206,-5.3206,-5.3206,-5.3206,-5.3206,-5.3206,-5.3206,-5.3206,-5.3206,-5.3206,-5.3206,-5.3206,-5.3206,-5.3206,-5.3206,-5.3206,-5.3206,0.0,0.0,0.0,0.0,0.0,0.0,0.0,0.0,0.0,0.0,0.0,0.0,0.0,0.0,0.0,0.0,0.0,0.0,0.0,0.0,0.0,-2.7959,-2.8527,-2.859,-2.8005,-2.8542,-2.8858,-2.8858,-2.942,-3.0006,-3.0569,-3.1134,-3.1438,-3.1438,-3.1486,-3.1486,-3.1486,-3.1486,-3.1644,-3.1895,-3.1895,-3.2082,-3.2442,-3.3483,0.0,0.0,0.0,0.0,0.0,0.0,0.0,0.0,0.0,-3.5197,-3.6465,-3.7092,-3.7322,-3.7655,-3.8874,-3.9234,-3.9372,-3.9968,-4.007,-4.0257,-4.0984,-4.1644,-4.2531,-4.4002,-4.4378,-4.4714,0.0,0.0,-4.576,-4.6579,-4.696,-4.7443,-4.8196,-4.8306,-4.8306,0.0,0.0,0.0,0.0,0.0,0.0,-5.3206,0.0,-5.3206,-5.3206,-5.3206,-5.3206,-5.3206,-5.3206,-5.3206,-5.3206,-5.3243,-5.3298,-5.3335,-5.3335,-5.3335,-5.3335,-5.3298,-5.328,-5.328,-5.3225,-5.3206,-5.3206,-5.3206,-5.3206,-5.3206,-5.3206,-5.3206,-5.3206,-5.3206,-5.3206,-5.3206,0.0,0.0,0.0,0.0,0.0,0.0,0.0,0.0,0.0,0.0,0.0,0.0,0.0,0.0,0.0,0.0,0.0,0.0,0.0,0.0,0.0,0.0,0.0,0.0,0.0,0.0,0.0,0.0,-2.8403,-2.8529,-2.8676,-2.8927,-2.9053,-2.9102,-2.9611,-2.9906,-2.9906,-3.0238,-3.0461,-3.0521,0.0,-3.0803,-3.1442,0.0,0.0,0.0,0.0,0.0,0.0,0.0,0.0,0.0,0.0,-3.6148,-3.6953,-3.7096,-3.7877,-3.8772,-3.9098,-3.9559,-3.9901,-4.0087,-4.007,-4.0121,-4.0324,-4.13,-4.2332,-4.2852,-4.3377,-4.408,0.0,0.0,0.0,-4.6834,-4.7551,0.0,-4.8269,-4.8306,0.0,0.0,0.0,-5.0802,-5.0802,-5.227,0.0,0.0,-5.3206,-5.3206,-5.3206,-5.3206,-5.3206,-5.3206,-5.3206,-5.3206,-5.3206,-5.3794,-5.4399,-5.4987,-5.4987,-5.4987,-5.4968,-5.4363,-5.4087,-5.4069,-5.3463,-5.3206,-5.3206,-5.3206,-5.3206,-5.3206,-5.3206,-5.3206,-5.3206,-5.3206,-5.3206,-5.3206,0.0,0.0,0.0,0.0,0.0,0.0,0.0,0.0,0.0,0.0,0.0,0.0,0.0,0.0,0.0,0.0,0.0,0.0,0.0,0.0,0.0,0.0,0.0,0.0,0.0,0.0,0.0,0.0,0.0,0.0,-2.8103,-2.8088,-2.8088,-2.8152,-2.8558,-2.8748,-2.8748,-2.8997,0.0,0.0,0.0,0.0,0.0,0.0,0.0,0.0,0.0,0.0,0.0,0.0,0.0,-3.4371,-3.5617,-3.6505,-3.7126,-3.7422,0.0,-3.9285,-3.9542,-3.9816,-4.007,-4.007,-4.007,-4.0206,-4.0595,-4.1321,-4.2109,-4.2597,-4.2812,0.0,0.0,0.0,0.0,0.0,0.0,0.0,-4.7842,-4.8114,-4.8306,0.0,-4.9793,0.0,-5.0802,-5.227,-5.3206,0.0,-5.3206,-5.3206,-5.3206,-5.3206,-5.3206,-5.3206,-5.3206,-5.339,-5.372,-5.4528,-5.5133,-5.5592,-5.5592,-5.5592,-5.5574,-5.5115,-5.4932,-5.4876,0.0,-5.3739,-5.3702,-5.3353,-5.3206,-5.3206,-5.3206,-5.3206,-5.3206,-5.3206,-5.3206,-5.3248,0.0,0.0,0.0,0.0,0.0,0.0,0.0,0.0,0.0,0.0,0.0,0.0,0.0,0.0,0.0,0.0,0.0,0.0,0.0,0.0,0.0,0.0,0.0,0.0,0.0,0.0,0.0,0.0,0.0,0.0,0.0,0.0,0.0,0.0,0.0,0.0,0.0,0.0,0.0,0.0,0.0,0.0,0.0,0.0,0.0,0.0,0.0,0.0,0.0,0.0,-3.4109,-3.4959,-3.5693,-3.6529,-3.7303,-3.781,-3.8625,-3.944,-3.9968,-4.007,-4.007,-4.007,-4.007,-4.029,-4.1104,-4.1358,-4.1647,-4.2516,0.0,0.0,-4.2387,0.0,-4.3164,-4.4064,0.0,-4.6458,-4.7277,-4.7856,-4.821,-4.8306,-4.9682,-5.0674,-5.0802,-5.216,-5.3096,-5.3206,-5.3206,-5.3206,-5.3206,-5.3206,-5.3261,-5.3371,-5.3371,-5.3812,-5.4711,-5.5409,-5.5794,-5.5904,-5.5904,-5.5904,-5.5904,-5.5794,-5.5757,-5.5702,0.0,0.0,-5.4491,-5.3702,-5.3371,-5.3353,-5.3243,-5.3206,-5.3206,-5.3272,-5.3272,-5.3336,0.0,0.0,0.0,0.0,0.0,0.0,0.0,0.0,0.0,0.0,-2.348,0.0,0.0,0.0,0.0,0.0,0.0,0.0,0.0,0.0,0.0,0.0,0.0,0.0,0.0,0.0,0.0,0.0,0.0,0.0,0.0,0.0,0.0,0.0,0.0,0.0,0.0,0.0,0.0,0.0,0.0,0.0,0.0,0.0,0.0,0.0,0.0,0.0,0.0,0.0,-3.4317,-3.4631,-3.5447,-3.6632,-3.7784,-3.7902,-3.8901,-3.9968,-4.0087,-4.007,-4.007,-4.007,-4.007,-4.0172,-4.0458,-4.0492,0.0,0.0,0.0,-4.169,-4.2917,-4.3154,0.0,-4.5178,0.0,0.0,0.0,0.0,-4.7756,0.0,0.0,0.0,0.0,0.0,0.0,0.0,0.0,0.0,-5.3206,-5.3206,-5.35,-5.4179,-5.4197,-5.4895,-5.6381,-5.6528,-5.6932,-5.7574,-5.7574,-5.7574,-5.7556,-5.6895,-5.6602,-5.6547,0.0,0.0,-5.5317,-5.4528,-5.4197,-5.4124,-5.3463,-5.3206,-5.323,-5.3565,-5.3683,-5.3758,0.0,0.0,0.0,0.0,0.0,0.0,0.0,0.0,0.0,0.0,-2.3451,-2.3538,0.0,0.0,0.0,0.0,0.0,0.0,0.0,0.0,0.0,0.0,0.0,0.0,0.0,0.0,0.0,0.0,0.0,0.0,0.0,0.0,0.0,0.0,0.0,0.0,0.0,0.0,0.0,0.0,0.0,0.0,0.0,0.0,0.0,0.0,0.0,0.0,0.0,0.0,-3.3777,-3.4614,-3.5341,-3.64,-3.7398,-3.7787,-3.8667,-3.9597,-3.9969,-4.007,-4.007,-4.007,-4.007,-4.0121,-4.0337,0.0,0.0,0.0,0.0,-4.1503,-4.2282,0.0,0.0,0.0,0.0,0.0,0.0,0.0,0.0,0.0,0.0,0.0,0.0,0.0,0.0,0.0,0.0,0.0,-5.3206,-5.3206,-5.3573,-5.4363,-5.4803,-5.5592,-5.6804,-5.7226,-5.7611,-5.7997,-5.7997,-5.7997,-5.7997,-5.7593,-5.7428,-5.7373,-5.6565,0.0,-5.6161,-5.5354,-5.4785,-5.4363,-5.3977,-5.3573,-5.323,-5.3663,-5.3814,-5.3888,0.0,0.0,0.0,0.0,0.0,0.0,0.0,-2.2859,-2.3142,-2.3187,-2.329,-2.3378,-2.3422,-2.3509,-2.3625,0.0,0.0,0.0,0.0,0.0,0.0,0.0,0.0,0.0,0.0,0.0,0.0,0.0,0.0,0.0,0.0,0.0,0.0,0.0,0.0,0.0,0.0,0.0,0.0,0.0,0.0,0.0,0.0,0.0,0.0,0.0,0.0,0.0,0.0,0.0,-3.3194,-3.4474,-3.5193,-3.6073,-3.6937,-3.753,-3.8343,-3.9172,-3.9681,-3.9952,-4.007,-4.007,-4.007,-4.0171,-4.0436,-4.0463,0.0,0.0,-4.1178,-4.1233,-4.1525,0.0,0.0,0.0,0.0,0.0,0.0,0.0,0.0,0.0,0.0,0.0,0.0,0.0,0.0,0.0,0.0,0.0,-5.3206,-5.3206,-5.3665,-5.4638,-5.5262,-5.6069,-5.706,-5.7685,-5.7997,-5.7997,-5.7997,-5.7997,-5.7997,-5.7997,-5.7997,-5.796,-5.7336,0.0,0.0,-5.618,-5.5482,-5.4876,-5.4528,-5.4081,-5.364,-5.3851,-5.4013,-5.4134,0.0,0.0,0.0,0.0,0.0,0.0,0.0,-2.2463,-2.2601,-2.2888,-2.2933,-2.2992,-2.3127,-2.3494,-2.3839,0.0,0.0,0.0,0.0,0.0,0.0,0.0,0.0,0.0,0.0,0.0,0.0,0.0,0.0,0.0,0.0,0.0,0.0,0.0,0.0,0.0,0.0,0.0,0.0,0.0,0.0,0.0,0.0,0.0,0.0,0.0,0.0,0.0,0.0,0.0,0.0,-3.3902,-3.4686,-3.5871,-3.6876,-3.6944,0.0,0.0,-3.9139,-3.958,-4.007,-4.007,-4.007,-4.0171,-4.0436,0.0,0.0,-4.0961,-4.0777,-4.0666,-4.1437,-4.1612,0.0,0.0,0.0,0.0,0.0,0.0,0.0,0.0,0.0,0.0,0.0,0.0,0.0,0.0,0.0,0.0,0.0,-5.3206,-5.3904,-5.5427,-5.5556,-5.6326,-5.7868,-5.796,-5.7997,-5.7997,-5.7997,-5.7997,-5.7997,-5.7997,-5.7997,-5.7997,0.0,0.0,0.0,-5.7024,-5.6657,-5.6436,-5.4968,-5.4566,-5.4782,-5.4537,-5.4671,-5.5034,0.0,0.0,0.0,0.0,0.0,0.0,0.0,-2.2231,-2.2509,-2.2843,-2.2992,-2.3037,-2.3082,-2.3422,-2.3625,0.0,0.0,0.0,0.0,0.0,0.0,0.0,0.0,0.0,0.0,0.0,0.0,0.0,0.0,0.0,0.0,0.0,0.0,0.0,0.0,0.0,0.0,0.0,0.0,0.0,0.0,0.0,0.0,0.0,0.0,0.0,0.0,0.0,0.0,0.0,0.0,0.0,-3.4123,-3.5025,0.0,0.0,-3.7347,-3.798,-3.8783,-3.9208,-3.9529,-3.9969,-4.0188,-4.0169,-3.9922,0.0,0.0,-3.9708,-3.9625,-3.9792,-4.0648,-4.0876,-4.1121,0.0,0.0,0.0,0.0,0.0,0.0,0.0,0.0,0.0,0.0,0.0,0.0,0.0,0.0,0.0,0.0,-5.3206,-5.372,-5.484,-5.5335,-5.6124,-5.7281,-5.7758,-5.7997,-5.7997,-5.7997,-5.7997,-5.7997,-5.7997,-5.7997,-5.7997,0.0,0.0,0.0,-5.7648,-5.7244,-5.6693,-5.5556,-5.5069,-5.4951,-5.4623,-5.476,-5.516,0.0,0.0,0.0,0.0,0.0,0.0,-2.1746,-2.2137,-2.2463,-2.2706,-2.2947,-2.3037,-2.3037,-2.3246,-2.3378,-2.3466,0.0,0.0,0.0,0.0,0.0,0.0,0.0,0.0,0.0,0.0,0.0,0.0,0.0,0.0,0.0,0.0,0.0,0.0,0.0,0.0,0.0,0.0,0.0,0.0,0.0,0.0,0.0,0.0,0.0,0.0,0.0,0.0,0.0,0.0,0.0,0.0,0.0,0.0,0.0,0.0,-3.6842,-3.716,-3.8136,-3.8546,-3.8802,-3.9309,-3.9527,-3.9538,0.0,0.0,0.0,-3.8814,-3.8703,-3.8903,-3.9757,-4.0237,-4.0613,-4.1183,0.0,-4.2756,0.0,0.0,0.0,0.0,0.0,0.0,0.0,0.0,0.0,0.0,0.0,0.0,0.0,-5.3206,-5.3573,-5.4363,-5.495,-5.5739,-5.6804,-5.7373,-5.7758,-5.7997,-5.7997,-5.7997,-5.7997,-5.7997,-5.7997,-5.7997,0.0,0.0,0.0,-5.7997,-5.7666,-5.706,-5.5996,-5.5558,-5.5472,-5.475,-5.4819,-5.5306,0.0,0.0,0.0,0.0,0.0,0.0,0.0,-2.2137,-2.2417,-2.2417,-2.2706,-2.2888,-2.2888,-2.3037,-2.3171,-2.3275,0.0,0.0,0.0,0.0,0.0,0.0,0.0,0.0,0.0,0.0,0.0,-2.7411,0.0,0.0,0.0,0.0,0.0,0.0,0.0,0.0,0.0,0.0,0.0,0.0,0.0,0.0,0.0,0.0,0.0,0.0,0.0,0.0,0.0,0.0,0.0,0.0,0.0,0.0,0.0,0.0,-3.6627,-3.7075,-3.6922,-3.7424,-3.7922,-3.7922,-3.7967,-3.8074,0.0,0.0,0.0,-3.8589,-3.8252,-3.8066,-3.8978,-3.9765,-4.0351,-4.0498,-4.1414,0.0,0.0,0.0,0.0,0.0,0.0,0.0,0.0,0.0,0.0,0.0,0.0,0.0,0.0,-5.3206,-5.3573,-5.4363,-5.4418,-5.5188,-5.6785,-5.6822,-5.7207,-5.7997,-5.7997,-5.7997,-5.7997,-5.7997,-5.7997,0.0,0.0,0.0,0.0,-5.7997,-5.7997,-5.7831,-5.6216,-5.6134,-5.6681,-5.5074,-5.5007,-5.5684,0.0,0.0,0.0,0.0,0.0,0.0,0.0,-2.1643,-2.1979,-2.2649,-2.2843,-2.2888,-2.2888,-2.3037,-2.3157,-2.3275,0.0,0.0,0.0,0.0,0.0,0.0,0.0,0.0,0.0,0.0,-2.6211,-2.6703,-2.738,-2.7876,0.0,0.0,0.0,0.0,0.0,0.0,0.0,0.0,0.0,0.0,0.0,0.0,0.0,0.0,0.0,0.0,0.0,0.0,0.0,0.0,0.0,0.0,0.0,0.0,0.0,-3.5294,0.0,0.0,-3.6921,-3.72,-3.7461,-3.7972,-3.8184,-3.814,-3.7689,0.0,0.0,-3.7137,-3.7022,-3.7175,-3.8017,-3.8893,-3.966,-4.0263,-4.1156,0.0,0.0,0.0,0.0,0.0,0.0,0.0,0.0,0.0,0.0,0.0,0.0,0.0,0.0,-5.3206,-5.3335,-5.3573,-5.4106,-5.4638,-5.5152,-5.6253,-5.6932,-5.7189,-5.774,-5.7997,-5.7997,-5.7997,0.0,0.0,0.0,0.0,0.0,-5.7997,-5.7997,-5.7831,-5.6216,-5.6134,-5.67,-5.5107,-5.5007,-5.5703,0.0,0.0,0.0,0.0,0.0,0.0,0.0,-2.1008,-2.1325,-2.1901,-2.2076,-2.2207,-2.2265,-2.2367,-2.2482,-2.2596,0.0,0.0,0.0,0.0,0.0,0.0,0.0,0.0,0.0,-2.5179,-2.5577,-2.6184,-2.6763,-2.7439,-2.824,-2.8489,-2.9019,0.0,0.0,0.0,0.0,0.0,0.0,0.0,0.0,0.0,-3.119,0.0,0.0,0.0,0.0,0.0,0.0,0.0,0.0,0.0,0.0,0.0,0.0,0.0,-3.569,0.0,0.0,-3.6737,-3.6795,-3.7257,-3.7466,0.0,0.0,0.0,0.0,-3.6404,-3.636,-3.6599,-3.7203,-3.8293,-3.9233,-3.9826,-4.0876,0.0,0.0,0.0,0.0,0.0,0.0,0.0,0.0,0.0,0.0,0.0,0.0,0.0,0.0,0.0,-5.3206,-5.3206,-5.3702,-5.4087,-5.4399,-5.539,-5.6198,-5.6822,-5.7317,-5.7703,-5.7997,-5.7997,0.0,0.0,0.0,0.0,0.0,-5.7997,-5.7997,-5.7831,-5.6216,-5.6134,-5.67,-5.5107,-5.5007,-5.5703,0.0,0.0,0.0,0.0,0.0,0.0,0.0,0.0,0.0,0.0,-2.0795,-2.1044,-2.1184,-2.1307,-2.1429,0.0,0.0,0.0,0.0,0.0,0.0,0.0,0.0,0.0,0.0,-2.4918,-2.5397,-2.5733,-2.6168,-2.7042,-2.8297,-2.8172,-2.8626,-2.956,-3.0041,-3.0175,-3.0097,-3.0551,-3.0634,-3.0601,-3.1015,-3.119,0.0,0.0,0.0,0.0,0.0,0.0,0.0,0.0,0.0,0.0,0.0,0.0,0.0,0.0,0.0,0.0,0.0,0.0,0.0,0.0,0.0,0.0,0.0,0.0,0.0,0.0,0.0,0.0,-3.6643,-3.7937,-3.905,-3.9263,-4.0604,0.0,0.0,0.0,0.0,0.0,0.0,0.0,0.0,0.0,0.0,0.0,0.0,0.0,0.0,0.0,-5.3206,-5.3206,-5.3206,-5.3573,-5.4308,-5.4363,-5.5152,-5.6638,-5.6693,-5.7152,-5.7905,-5.7905,0.0,0.0,0.0,0.0,0.0,-5.7997,-5.796,-5.7758,-5.6198,-5.6116,-5.6625,-5.5088,-5.5007,-5.5703,0.0,0.0,0.0,0.0,0.0,0.0,0.0,0.0,0.0,0.0,-2.0961,-2.1044,-2.1184,-2.1307,-2.1429,0.0,0.0,0.0,0.0,0.0,0.0,0.0,0.0,0.0,0.0,-2.4456,-2.4699,-2.5026,-2.5701,-2.6484,-2.7437,-2.7898,-2.8458,-2.9159,-2.9615,-3.0182,-3.0757,-3.0895,-3.0975,-3.1055,-3.1151,-3.119,0.0,0.0,0.0,0.0,-3.1462,-3.1538,0.0,0.0,0.0,0.0,0.0,0.0,0.0,0.0,-3.5266,-3.6301,-3.6259,0.0,-3.6216,-3.6216,-3.6259,0.0,0.0,0.0,0.0,0.0,0.0,0.0,0.0,0.0,0.0,0.0,0.0,0.0,0.0,0.0,0.0,0.0,0.0,0.0,0.0,0.0,0.0,0.0,0.0,0.0,0.0,0.0,-5.3206,-5.3206,-5.3206,-5.3298,-5.3482,-5.4087,-5.4583,-5.4968,-5.5592,-5.629,-5.7079,-5.7079,0.0,0.0,0.0,0.0,-5.7997,-5.7997,-5.7648,-5.6987,-5.5978,-5.5763,-5.5847,-5.488,-5.5007,-5.5703,0.0,0.0,0.0,0.0,0.0,0.0,0.0,0.0,0.0,0.0,0.0,0.0,0.0,0.0,0.0,0.0,0.0,0.0,0.0,0.0,0.0,0.0,0.0,0.0,-2.4302,-2.4302,-2.4533,-2.5075,-2.5322,-2.6053,-2.7267,-2.7536,-2.8106,-2.8935,-2.9585,-3.0162,-3.0644,-3.096,-3.1134,-3.1252,-3.123,0.0,0.0,0.0,0.0,0.0,-3.1521,-3.1596,0.0,-3.1709,-3.1746,-3.18,0.0,0.0,0.0,0.0,-3.5128,-3.6301,-3.6301,-3.6301,-3.6301,-3.6301,-3.6301,-3.6301,0.0,0.0,0.0,0.0,0.0,0.0,0.0,0.0,0.0,0.0,0.0,0.0,0.0,0.0,0.0,0.0,0.0,0.0,0.0,0.0,0.0,0.0,0.0,0.0,0.0,0.0,-5.3206,-5.3206,-5.3206,-5.3206,-5.3206,-5.3628,-5.4032,-5.4418,-5.484,-5.5464,-5.6253,-5.6253,0.0,0.0,0.0,0.0,-5.6895,-5.6895,-5.6638,-5.6161,-5.5354,-5.5158,-5.5313,-5.474,-5.4779,-5.5186,0.0,0.0,0.0,0.0,0.0,0.0,0.0,0.0,0.0,0.0,0.0,0.0,0.0,0.0,0.0,0.0,0.0,0.0,0.0,0.0,0.0,0.0,0.0,-2.4302,-2.4385,-2.4385,-2.4735,-2.546,-2.5176,-2.5881,-2.7372,-2.7194,-2.7734,-2.8861,-2.9732,-3.0197,-3.0391,-3.0959,-3.1252,-3.1295,-3.1252,0.0,0.0,0.0,0.0,0.0,0.0,0.0,0.0,-3.18,-3.18,-3.18,-3.18,0.0,0.0,0.0,0.0,0.0,-3.6301,-3.6301,-3.6301,-3.6301,-3.6301,-3.6301,-3.6301,0.0,0.0,0.0,0.0,0.0,0.0,0.0,0.0,0.0,0.0,0.0,0.0,0.0,0.0,0.0,0.0,0.0,0.0,0.0,0.0,0.0,0.0,0.0,0.0,0.0,0.0,-5.3206,-5.3206,-5.3206,-5.3206,-5.3206,-5.3555,-5.4216,-5.4216,-5.4638,-5.5409,-5.5409,-5.5464,0.0,0.0,0.0,-5.5592,-5.5592,-5.5519,-5.5335,-5.4675,-5.457,-5.4783,-5.4518,-5.4439,-5.4566,0.0,0.0,0.0,0.0,0.0,0.0,0.0,0.0,0.0,0.0,0.0,0.0,0.0,0.0,0.0,0.0,0.0,0.0,0.0,0.0,0.0,0.0,-2.401,-2.4426,-2.4695,-2.4735,-2.5091,-2.5807,-2.5828,-2.6132,-2.674,-2.6775,-2.7552,-2.9008,-2.977,-3.0446,-3.106,-3.124,-3.1295,-3.1295,-3.1423,0.0,0.0,0.0,0.0,0.0,0.0,0.0,0.0,-3.18,-3.18,-3.18,-3.18,0.0,0.0,0.0,0.0,0.0,-3.6301,-3.6276,-3.6251,-3.6301,-3.6301,-3.6301,-3.6301,0.0,0.0,0.0,0.0,0.0,0.0,0.0,0.0,0.0,0.0,0.0,0.0,0.0,0.0,0.0,0.0,0.0,0.0,0.0,0.0,0.0,0.0,0.0,0.0,0.0,0.0,-5.3206,-5.3206,-5.3206,-5.3206,-5.3206,-5.328,-5.339,-5.339,-5.3812,-5.4583,-5.4583,-5.495,0.0,0.0,-5.5592,-5.5592,-5.5592,-5.5188,-5.4564,-5.4454,-5.4238,-5.3982,-5.3925,-5.4153,-5.4503,0.0,0.0,0.0,0.0,0.0,0.0,0.0,0.0,0.0,0.0,0.0,0.0,0.0,0.0,0.0,0.0,0.0,0.0,0.0,0.0,0.0,-2.3207,-2.4004,-2.4523,-2.4775,-2.4855,-2.5246,-2.5954,-2.603,-2.6279,-2.6657,-2.708,-2.7707,-2.8523,-2.9641,-3.0411,-3.0865,-3.1236,-3.1445,-3.1449,0.0,0.0,0.0,0.0,0.0,0.0,0.0,0.0,0.0,0.0,-3.18,-3.18,-3.18,0.0,0.0,0.0,0.0,0.0,-3.6301,-3.6276,-3.6233,-3.6251,-3.6191,-3.6131,-3.6131,0.0,0.0,0.0,0.0,0.0,0.0,0.0,0.0,0.0,0.0,0.0,0.0,0.0,0.0,0.0,0.0,0.0,0.0,0.0,0.0,0.0,0.0,0.0,0.0,0.0,0.0,0.0,-5.3206,-5.3206,-5.3206,-5.3206,-5.3206,-5.3206,-5.3206,-5.339,-5.3757,-5.3757,-5.3959,-5.4308,0.0,-5.4308,-5.4308,-5.4308,-5.4087,-5.3757,-5.3757,-5.3668,-5.3484,-5.3484,-5.3739,-5.4083,0.0,0.0,0.0,0.0,0.0,0.0,0.0,0.0,0.0,0.0,0.0,0.0,0.0,0.0,0.0,0.0,0.0,0.0,0.0,0.0,-2.2171,-2.3055,-2.3918,-2.4554,-2.4918,-2.5036,-2.5422,-2.6134,-2.6208,-2.6401,-2.6759,-2.7504,-2.8031,-2.8338,-2.9666,-3.0421,-3.0756,-3.1281,-3.1559,-3.1579,0.0,0.0,0.0,0.0,0.0,0.0,0.0,0.0,0.0,0.0,0.0,0.0,0.0,0.0,0.0,-3.4093,-3.5128,-3.6301,-3.6301,-3.6301,-3.6276,-3.6208,0.0,-3.6096,-3.6241,0.0,0.0,0.0,0.0,0.0,0.0,0.0,0.0,0.0,0.0,0.0,0.0,0.0,0.0,0.0,0.0,0.0,0.0,0.0,0.0,0.0,0.0,0.0,0.0,0.0,0.0,0.0,-5.3206,-5.3206,-5.3206,-5.3206,-5.3206,-5.3206,-5.3206,-5.3206,-5.3206,-5.3206,-5.3206,-5.3206,-5.3206,-5.3206,-5.3206,-5.3206,-5.3206,-5.3206,-5.3206,-5.3206,-5.3206,-5.3206,-5.3381,-5.3643,0.0,0.0,0.0,0.0,0.0,0.0,0.0,0.0,0.0,0.0,0.0,0.0,0.0,0.0,0.0,0.0,0.0,0.0,0.0,0.0,-2.1581,-2.2765,-2.3554,-2.4408,-2.5329,-2.5476,-2.5864,-2.6572,-2.6572,-2.6674,-2.6893,-2.7691,-2.8442,-2.916,-2.9994,-3.0762,-3.1432,-3.1542,-3.1579,-3.1617,-3.1709,0.0,0.0,0.0,0.0,0.0,0.0,0.0,0.0,0.0,0.0,0.0,0.0,0.0,-3.4093,-3.4093,-3.5128,-3.6301,-3.6301,-3.6233,-3.6225,-3.6225,-3.6233,0.0,-3.6908,-3.7175,0.0,0.0,0.0,0.0,0.0,0.0,0.0,0.0,0.0,0.0,0.0,0.0,0.0,0.0,0.0,0.0,0.0,0.0,0.0,0.0,0.0,0.0,0.0,0.0,0.0,0.0,0.0,-5.3206,-5.3206,-5.3206,-5.3206,-5.3206,-5.3206,-5.3206,-5.3206,-5.3206,-5.3206,-5.3206,-5.3206,-5.3206,-5.3206,-5.3206,-5.3206,-5.3206,-5.3206,-5.3206,-5.3206,-5.3206,-5.3206,-5.323,0.0,0.0,0.0,0.0,0.0,0.0,0.0,0.0,0.0,0.0,0.0,0.0,0.0,0.0,0.0,0.0,0.0,0.0,0.0,0.0,-2.293,-2.3384,-2.4463,-2.5281,-2.5835,-2.5888,-2.6137,-2.6606,-2.6725,-2.6826,-2.6927,-2.8203,-2.899,-2.9385,-3.06,-3.1339,-3.1688,-3.1709,-3.1709,-3.1709,-3.18,-3.18,0.0,0.0,0.0,0.0,0.0,0.0,0.0,0.0,-3.18,-3.18,0.0,-3.2852,-3.4093,-3.4093,-3.5128,-3.6301,-3.6301,-3.6233,-3.6225,-3.6225,0.0,0.0,0.0,0.0,0.0,0.0,0.0,0.0,0.0,0.0,0.0,0.0,0.0,0.0,0.0,0.0,0.0,0.0,0.0,0.0,0.0,0.0,0.0,0.0,0.0,0.0,0.0,0.0,0.0,0.0,0.0,-5.2692,-5.3206,-5.3206,-5.3206,-5.3206,-5.3206,-5.3206,-5.3206,-5.3206,-5.3206,-5.3206,-5.3206,-5.3206,-5.3206,-5.3206,-5.3206,-5.3206,-5.3206,-5.3206,-5.3206,-5.3206,-5.3206,-5.3206,0.0,0.0,0.0,0.0,0.0,0.0,0.0,0.0,0.0,0.0,0.0,0.0,0.0,0.0,0.0,0.0,0.0,0.0,0.0,-2.2645,-2.3617,-2.4026,-2.4972,-2.5782,-2.628,-2.628,-2.6401,-2.6623,-2.708,-2.7266,-2.73,-2.8665,-2.9488,-2.985,-3.0864,-3.1485,-3.18,-3.18,-3.18,-3.18,-3.18,-3.18,0.0,0.0,0.0,0.0,0.0,0.0,0.0,0.0,-3.18,0.0,0.0,0.0,0.0,0.0,-3.5128,-3.6343,-3.6426,-3.636,-3.6251,0.0,0.0,0.0,0.0,0.0,0.0,0.0,0.0,0.0,0.0,0.0,0.0,0.0,0.0,0.0,0.0,0.0,0.0,0.0,0.0,0.0,0.0,0.0,0.0,0.0,0.0,0.0,0.0,0.0,0.0,0.0,0.0,-5.2252,-5.2821,-5.3078,-5.3206,-5.3206,-5.3206,-5.3206,-5.3206,-5.3206,-5.3206,-5.3206,-5.3206,-5.3206,-5.3206,-5.3206,-5.3206,-5.3206,-5.3206,-5.3206,-5.3206,-5.3206,-5.3206,-5.3206,0.0,0.0,0.0,0.0,0.0,0.0,0.0,0.0,0.0,0.0,0.0,0.0,0.0,0.0,0.0,0.0,0.0,0.0,-2.2217,-2.2602,-2.331,-2.4454,-2.4908,-2.5614,-2.6674,-2.6691,-2.6691,-2.6691,-2.7624,-2.8118,-2.8118,-2.9059,-2.9937,-3.0696,-3.0696,-3.111,-3.18,-3.18,-3.18,-3.18,-3.18,-3.18,-3.18,0.0,0.0,0.0,0.0,0.0,0.0,0.0,-3.18,0.0,0.0,0.0,0.0,-3.4093,-3.5145,-3.6385,-3.6713,-3.6533,0.0,0.0,0.0,0.0,0.0,0.0,0.0,0.0,0.0,0.0,0.0,0.0,0.0,0.0,0.0,0.0,0.0,0.0,0.0,0.0,0.0,0.0,0.0,0.0,0.0,0.0,0.0,0.0,0.0,0.0,0.0,0.0,0.0,0.0,-5.1977,-5.2803,-5.3206,-5.3206,-5.3206,-5.3206,-5.3206,-5.3206,-5.3206,-5.3206,-5.3206,-5.3206,-5.3206,-5.3206,-5.3206,-5.3206,-5.3206,-5.3206,-5.3206,-5.3206,-5.3206,-5.3206,0.0,0.0,0.0,0.0,0.0,0.0,0.0,0.0,0.0,0.0,0.0,0.0,0.0,0.0,0.0,0.0,0.0,0.0,-2.297,-2.4163,-2.5001,-2.5322,-2.5894,-2.6404,-2.6825,-2.6909,-2.6859,-2.6691,-2.7624,-2.8118,-2.8135,-2.9661,-3.0472,-3.0713,-3.1231,-3.1593,-3.18,-3.18,-3.18,-3.1837,-3.2018,-3.2073,-3.2073,0.0,0.0,0.0,0.0,0.0,0.0,0.0,0.0,0.0,0.0,0.0,0.0,-3.5014,-3.5906,-3.6615,-3.6509,-3.6409,0.0,0.0,0.0,0.0,0.0,0.0,0.0,0.0,0.0,0.0,0.0,0.0,0.0,0.0,0.0,0.0,0.0,0.0,0.0,0.0,0.0,0.0,0.0,0.0,0.0,0.0,0.0,0.0,0.0,0.0,0.0,0.0,0.0,0.0,-5.1151,-5.194,-5.2362,-5.2362,-5.2931,-5.3206,-5.3206,-5.3206,-5.3206,-5.3206,-5.3206,-5.3206,-5.3206,-5.3206,-5.3206,-5.3206,-5.3206,-5.3206,-5.3206,-5.3206,-5.3206,-5.3206,0.0,0.0,0.0,0.0,0.0,0.0,0.0,0.0,0.0,0.0,0.0,0.0,0.0,0.0,0.0,0.0,0.0,0.0,0.0,0.0,-2.5758,-2.5811,-2.6453,-2.6859,-2.6959,-2.6992,-2.6942,-2.6808,-2.7742,-2.8185,-2.822,-2.9902,-3.0696,-3.0731,-3.1564,-3.191,-3.18,-3.1929,-3.2001,-3.1982,-3.2161,-3.2284,-3.2335,0.0,0.0,0.0,0.0,0.0,0.0,0.0,0.0,0.0,0.0,0.0,0.0,-3.5545,-3.6338,-3.6834,-3.6673,0.0,0.0,0.0,0.0,0.0,0.0,0.0,0.0,0.0,0.0,0.0,0.0,0.0,0.0,0.0,0.0,0.0,0.0,0.0,0.0,0.0,0.0,0.0,0.0,0.0,0.0,0.0,0.0,0.0,0.0,0.0,0.0,0.0,0.0,0.0,-5.0306,-5.1114,-5.1518,-5.1518,-5.2344,-5.2729,-5.2729,-5.3059,-5.3206,-5.3206,-5.3206,-5.3206,-5.3206,-5.3206,-5.3206,-5.3206,-5.3206,-5.3206,-5.3206,-5.3206,-5.3206,-5.3206,0.0,0.0,0.0,0.0,0.0,0.0,0.0,0.0,0.0,0.0,0.0,0.0,0.0,0.0,0.0,0.0,0.0,0.0,0.0,0.0,-2.5868,-2.6046,-2.6657,-2.7007,-2.7007,-2.7076,-2.711,-2.711,-2.7893,-2.8303,-2.8337,-2.9937,-3.0696,-3.0749,-3.1742,-3.2073,-3.1873,-3.2179,-3.2283,-3.2249,-3.237,-3.2488,-3.2654,-3.2654,0.0,0.0,0.0,0.0,0.0,0.0,0.0,0.0,0.0,-3.409,-3.4804,-3.5932,-3.6675,-3.7087,0.0,0.0,0.0,0.0,0.0,0.0,0.0,0.0,0.0,0.0,0.0,0.0,0.0,0.0,0.0,0.0,0.0,0.0,0.0,0.0,0.0,0.0,0.0,0.0,0.0,0.0,0.0,0.0,0.0,0.0,0.0,0.0,0.0,0.0,0.0,0.0,-4.9462,-5.0288,-5.0692,0.0,-5.1499,-5.1885,-5.1922,-5.2803,-5.3206,-5.3206,-5.3206,-5.3206,-5.3206,-5.3206,-5.3206,-5.3206,-5.3206,-5.3206,-5.3206,-5.3206,-5.3206,-5.3206,0.0,0.0,0.0,0.0,0.0,0.0,0.0,0.0,0.0,0.0,0.0,0.0,0.0,0.0,0.0,0.0,0.0,0.0,0.0,0.0,-2.6118,-2.6469,-2.6875,-2.707,-2.707,-2.7736,-2.8096,-2.8096,-2.8217,-2.8303,-2.8337,-2.9937,-3.0696,-3.0749,-3.1742,-3.2179,-3.2144,-3.2488,-3.2603,-3.2603,-3.2894,-3.3019,-3.3068,-3.3068,-3.3068,0.0,0.0,0.0,0.0,0.0,0.0,0.0,-3.465,-3.5349,-3.6203,-3.7272,-3.7666,-3.7721,0.0,0.0,0.0,0.0,0.0,0.0,0.0,0.0,0.0,0.0,0.0,0.0,0.0,0.0,0.0,0.0,0.0,0.0,0.0,0.0,0.0,0.0,0.0,0.0,0.0,0.0,0.0,0.0,0.0,0.0,0.0,0.0,0.0,0.0,0.0,-4.8581,-4.8581,-4.9426,-4.9848,0.0,-5.0674,-5.1059,-5.1114,-5.2564,-5.3206,-5.3206,-5.3206,-5.3206,-5.3206,-5.3206,-5.3206,-5.3206,-5.3206,-5.3206,-5.3206,-5.3206,-5.3206,-5.3206,0.0,0.0,0.0,0.0,0.0,0.0,0.0,0.0,0.0,0.0,0.0,0.0,0.0,0.0,0.0,0.0,0.0,0.0,0.0,0.0,0.0,-2.6925,-2.7087,-2.7201,-2.7201,-2.7973,-2.8403,-2.8403,-2.8765,-2.9004,-2.9086,-2.9851,-3.0456,-3.0976,-3.2001,-3.2454,-3.2404,-3.2848,-3.3006,-3.3019,-3.3208,-3.3327,-3.3386,-3.3386,-3.3386,-3.3386,-3.3357,0.0,0.0,0.0,0.0,0.0,0.0,0.0,-3.6768,-3.7884,-3.8119,-3.8,0.0,0.0,0.0,0.0,0.0,0.0,0.0,0.0,0.0,0.0,0.0,0.0,0.0,0.0,0.0,0.0,0.0,0.0,0.0,0.0,0.0,0.0,0.0,0.0,0.0,0.0,0.0,0.0,0.0,0.0,0.0,0.0,0.0,0.0,-4.8306,-4.8306,-4.8306,-4.8746,-4.8967,-4.8985,-4.9829,-5.0417,-5.0839,-5.2068,-5.2839,-5.3206,-5.3206,-5.3206,-5.3206,-5.3206,-5.3206,-5.3206,-5.3206,-5.3206,-5.3206,-5.3206,-5.3206,-5.3206,0.0,0.0,0.0,0.0,0.0,0.0,0.0,0.0,0.0,0.0,0.0,0.0,0.0,0.0,0.0,0.0,0.0,0.0,0.0,0.0,0.0,-2.7299,-2.742,-2.7489,-2.7489,-2.8246,-2.8694,-2.8815,-2.9555,0.0,0.0,0.0,-3.0449,-3.1344,-3.241,-3.2813,-3.2737,-3.3256,-3.3415,-3.3379,-3.3433,-3.352,-3.3615,-3.3615,-3.3615,-3.3615,-3.3633,-3.3615,-3.3623,-3.3597,0.0,0.0,0.0,0.0,-3.7235,-3.8168,-3.8318,-3.8186,0.0,0.0,0.0,0.0,0.0,0.0,0.0,0.0,0.0,0.0,0.0,0.0,0.0,0.0,0.0,0.0,0.0,0.0,0.0,0.0,0.0,0.0,0.0,0.0,0.0,0.0,0.0,0.0,0.0,0.0,0.0,0.0,-4.8306,-4.8306,-4.8306,-4.8306,-4.8306,-4.8306,-4.8306,-4.8324,-4.9022,-4.9793,-5.0618,-5.1279,-5.2013,-5.2803,-5.2931,-5.3004,-5.3004,-5.3151,-5.3206,-5.3206,-5.3206,-5.3206,-5.3206,-5.3206,-5.3206,-5.3206,0.0,0.0,0.0,0.0,0.0,0.0,0.0,0.0,0.0,0.0,0.0,0.0,0.0,0.0,0.0,0.0,0.0,0.0,-2.6068,0.0,0.0,-2.7333,-2.7902,-2.8247,-2.8247,-2.9089,-2.9833,-3.0491,0.0,0.0,0.0,0.0,0.0,-3.1658,0.0,-3.3202,-3.316,-3.3569,-3.3726,-3.3671,-3.3726,-3.3753,-3.378,-3.378,-3.378,-3.378,-3.3698,-3.3726,-3.3835,-3.4291,-3.518,0.0,0.0,0.0,0.0,-3.8609,-3.8627,0.0,0.0,0.0,0.0,0.0,0.0,0.0,0.0,0.0,0.0,0.0,0.0,0.0,0.0,0.0,0.0,0.0,0.0,0.0,0.0,0.0,0.0,0.0,0.0,0.0,0.0,0.0,0.0,0.0,0.0,0.0,0.0,-4.8306,-4.8306,-4.8306,-4.8306,-4.8306,-4.8306,-4.8306,-4.8306,-4.8306,-4.8416,-4.893,-4.9738,-4.9848,-5.0343,-5.1169,-5.1867,-5.216,-5.2197,-5.2913,-5.3206,-5.3206,-5.3206,-5.3206,-5.3206,-5.3206,-5.3206,-5.3206,0.0,0.0,0.0,0.0,0.0,0.0,0.0,0.0,0.0,0.0,0.0,0.0,0.0,0.0,0.0,-2.5454,-2.5868,-2.6464,-2.7283,-2.8374,-2.8868,-2.8558,-2.8918,-2.919,-2.9286,-3.0152,-3.0826,-3.1306,0.0,0.0,0.0,-3.2751,-3.2607,0.0,0.0,0.0,0.0,-3.368,-3.3788,-3.3807,-3.3788,-3.3807,-3.3807,-3.3807,-3.3807,-3.3862,-3.4266,-3.4458,-3.4587,-3.5316,-3.6197,-3.7019,-3.7259,0.0,0.0,0.0,0.0,0.0,0.0,0.0,0.0,0.0,0.0,0.0,0.0,0.0,0.0,0.0,0.0,0.0,0.0,0.0,0.0,0.0,0.0,0.0,0.0,0.0,0.0,0.0,0.0,0.0,0.0,0.0,0.0,0.0,0.0,0.0,-4.8306,-4.8306,-4.8306,-4.8306,-4.8306,-4.8306,-4.8306,-4.8306,-4.8306,-4.8306,-4.8306,-4.8508,-4.8875,-4.8875,-4.9572,-5.082,-5.1169,-5.1334,-5.1389,-5.2197,-5.2527,-5.2564,-5.3023,-5.3206,-5.3206,-5.3206,-5.3206,-5.3206,0.0,0.0,0.0,0.0,0.0,0.0,0.0,0.0,0.0,0.0,0.0,0.0,0.0,0.0,0.0,0.0,-2.6987,-2.7623,-2.8544,-2.9351,-2.9713,-2.9558,-2.9816,-3.0105,-3.0314,-3.0991,-3.1572,0.0,0.0,0.0,-3.3379,-3.353,-3.3549,0.0,-3.3577,0.0,0.0,0.0,0.0,0.0,-3.3815,-3.3807,-3.3825,-3.4027,-3.41,-3.4211,-3.5055,-3.5349,-3.5477,-3.6321,-3.6982,-3.7544,-3.7734,-3.8212,0.0,0.0,0.0,0.0,0.0,0.0,0.0,0.0,0.0,0.0,0.0,0.0,0.0,0.0,0.0,0.0,0.0,0.0,0.0,0.0,0.0,0.0,0.0,0.0,0.0,0.0,0.0,0.0,0.0,0.0,0.0,0.0,0.0,0.0,-4.8306,-4.8306,-4.8306,-4.8306,-4.8306,-4.8306,-4.8306,-4.8306,-4.8306,-4.8306,-4.8306,-4.8306,-4.8306,-4.8306,-4.8985,-5.0178,-5.0398,-5.049,-5.0563,-5.1353,-5.1811,-5.205,-5.2656,-5.3023,-5.3206,-5.3206,-5.3206,-5.3206,0.0,0.0,0.0,0.0,0.0,0.0,0.0,0.0,0.0,0.0,0.0,0.0,-2.6324,-2.6771,-2.7354,-2.8201,-2.8659,-2.9055,-2.9403,-3.0196,-3.037,-2.9711,-3.0352,0.0,-3.1238,-3.1388,-3.1983,0.0,0.0,0.0,-3.3587,-3.3605,-3.3671,-3.378,-3.3842,-3.386,-3.3788,0.0,0.0,0.0,0.0,-3.3807,-3.388,-3.4669,-3.4935,0.0,0.0,0.0,-3.6358,-3.7165,-3.7489,-3.7624,-3.8395,-3.867,-3.8707,0.0,0.0,0.0,0.0,0.0,0.0,0.0,0.0,0.0,0.0,0.0,0.0,0.0,0.0,0.0,0.0,0.0,0.0,0.0,0.0,0.0,0.0,0.0,0.0,0.0,0.0,0.0,0.0,0.0,0.0,0.0,0.0,0.0,-4.8306,-4.8306,-4.8306,-4.8306,-4.8306,-4.8306,-4.8306,-4.8306,-4.8306,-4.8306,-4.8306,-4.8306,-4.8306,-4.8306,-4.8361,-4.8489,-4.9297,-4.9646,-4.9701,-5.0527,-5.1316,-5.1995,-5.205,-5.2527,-5.3206,-5.3206,-5.3206,-5.3206,0.0,0.0,0.0,0.0,0.0,0.0,0.0,0.0,0.0,0.0,0.0,0.0,0.0,-2.7947,-2.8454,-2.8743,-2.96,-3.0159,-3.0265,-3.1026,-3.1356,-3.1115,-3.1672,-3.2082,-3.2389,-3.2655,-3.3038,0.0,0.0,-3.3652,-3.3726,-3.378,-3.3807,-3.3788,-3.3868,-3.3868,-3.3807,-3.3834,0.0,0.0,0.0,0.0,0.0,0.0,0.0,0.0,0.0,0.0,0.0,-3.7991,-3.8267,-3.8322,-3.8615,-3.8707,-3.8707,0.0,0.0,0.0,0.0,0.0,0.0,0.0,0.0,0.0,0.0,0.0,0.0,0.0,0.0,0.0,0.0,0.0,0.0,0.0,0.0,0.0,0.0,0.0,0.0,0.0,0.0,0.0,0.0,0.0,0.0,0.0,0.0,0.0,-4.8306,-4.8306,-4.8306,-4.8306,-4.8306,-4.8306,-4.8306,-4.8306,-4.8306,-4.8306,-4.8306,-4.8306,-4.8306,-4.8306,-4.8306,-4.8324,-4.8636,-4.8765,-4.882,-4.9664,-5.0196,-5.049,-5.1022,-5.172,-5.2435,-5.2435,-5.2766,-5.3206,0.0,0.0,0.0,0.0,0.0,0.0,0.0,0.0,0.0,0.0,0.0,0.0,0.0,0.0,-2.9617,-2.9926,-3.064,-3.1113,-3.1113,-3.1652,-3.1984,-3.202,-3.2404,-3.2737,-3.3024,-3.3345,-3.3605,0.0,0.0,0.0,0.0,-3.3868,-3.3868,-3.3788,-3.3868,-3.3868,0.0,0.0,0.0,-3.4284,0.0,0.0,-3.5532,0.0,0.0,0.0,0.0,0.0,0.0,0.0,0.0,0.0,0.0,0.0,0.0,0.0,0.0,0.0,0.0,0.0,0.0,0.0,0.0,0.0,0.0,0.0,0.0,0.0,0.0,0.0,0.0,0.0,0.0,0.0,0.0,0.0,0.0,0.0,0.0,0.0,0.0,0.0,0.0,0.0,0.0,0.0,0.0,0.0,-4.8306,-4.8306,-4.8306,-4.8306,-4.8306,-4.8306,-4.8306,-4.8306,-4.8306,-4.8306,-4.8306,-4.8306,-4.8306,-4.8306,-4.8306,-4.8306,-4.8306,-4.8306,-4.8343,-4.8912,-4.9334,-4.9627,-5.0178,-5.0894,-5.1628,-5.1885,-5.2344,-5.2839,0.0,0.0,0.0,0.0,0.0,0.0,0.0,0.0,0.0,-2.7464,0.0,0.0,0.0,0.0,0.0,-3.1731,-3.1875,-3.1894,-3.1894,-3.202,-3.2144,-3.2214,-3.2472,-3.2752,-3.3117,-3.3375,-3.3633,0.0,0.0,0.0,0.0,0.0,-3.3868,-3.3788,-3.3905,-3.3879,-3.3899,0.0,-3.5009,-3.51,0.0,-3.634,-3.6413,0.0,0.0,0.0,-3.8414,-3.8707,0.0,0.0,0.0,0.0,0.0,0.0,0.0,0.0,0.0,0.0,0.0,0.0,0.0,0.0,0.0,0.0,0.0,0.0,0.0,0.0,0.0,0.0,0.0,0.0,0.0,0.0,0.0,0.0,0.0,0.0,0.0,0.0,0.0,0.0,0.0,0.0,0.0,0.0,0.0,-4.8306,-4.8306,-4.8306,-4.8306,-4.8306,-4.8306,-4.8306,-4.8306,-4.8306,-4.8306,-4.8306,-4.8306,-4.8306,-4.8306,-4.8306,-4.8306,-4.8306,-4.8306,-4.8306,-4.8306,-4.8306,-4.8802,-4.9536,-4.9536,-5.005,-5.0857,-5.1628,-5.1958,-5.2105,0.0,0.0,0.0,0.0,0.0,0.0,0.0,0.0,-2.9339,0.0,0.0,0.0,-3.0801,-3.1196,-3.1558,-3.1858,-3.1894,-3.1948,-3.2037,-3.2108,-3.2284,-3.2472,-3.2802,-3.3086,-3.3375,-3.3587,-3.3753,-3.3834,0.0,0.0,0.0,0.0,0.0,0.0,-3.4412,-3.4688,-3.466,-3.4899,0.0,0.0,-3.6835,-3.7165,0.0,0.0,0.0,0.0,0.0,-3.8707,0.0,0.0,-3.8707,-3.8707,0.0,0.0,0.0,0.0,0.0,0.0,-3.8707,0.0,0.0,0.0,0.0,0.0,0.0,0.0,0.0,0.0,0.0,0.0,0.0,0.0,0.0,0.0,0.0,0.0,0.0,0.0,0.0,0.0,0.0,0.0,0.0,0.0,0.0,0.0,-4.8306,-4.8306,-4.8306,-4.8306,-4.8306,-4.8306,-4.8306,-4.8306,-4.8306,-4.8306,-4.8306,-4.8306,-4.8306,-4.8306,-4.8306,-4.8306,-4.8306,-4.8306,-4.8306,-4.8306,-4.8306,-4.8306,-4.8434,-4.8655,-4.8655,-4.9169,-4.9958,-5.016,-5.0986,-5.2013,0.0,0.0,0.0,0.0,0.0,0.0,0.0,0.0,-3.0241,0.0,0.0,0.0,-3.1617,-3.1819,-3.1929,-3.1984,-3.202,-3.2055,-3.2144,-3.2232,-3.2387,-3.2621,-3.2961,-3.3226,-3.3491,-3.3698,-3.3807,-3.3807,0.0,0.0,0.0,0.0,0.0,0.0,0.0,0.0,0.0,0.0,0.0,0.0,-3.7679,0.0,0.0,-3.8524,-3.8707,0.0,0.0,0.0,-3.8707,-3.8707,-3.8707,0.0,0.0,0.0,0.0,0.0,0.0,0.0,0.0,0.0,0.0,0.0,0.0,0.0,0.0,-4.1479,0.0,0.0,0.0,0.0,0.0,0.0,0.0,0.0,0.0,0.0,0.0,0.0,0.0,0.0,0.0,0.0,0.0,0.0,0.0,0.0,-4.8306,-4.8306,-4.8306,-4.8306,-4.8306,-4.8306,-4.8306,-4.8306,-4.8306,-4.8306,-4.8306,-4.8306,-4.8306,-4.8306,-4.8306,-4.8306,-4.8306,-4.8306,-4.8306,-4.8306,-4.8306,-4.8306,-4.8306,-4.8306,-4.8306,-4.8618,-4.9095,-4.9462,-5.0178,-5.1077,0.0,0.0,0.0,0.0,0.0,0.0,0.0,0.0,0.0,0.0,-3.1295,-3.1691,-3.2073,-3.2108,-3.2108,-3.2108,-3.2179,-3.2214,-3.2249,-3.2371,-3.2523,-3.2766,-3.3006,-3.3286,-3.352,-3.3726,-3.3807,-3.3807,0.0,0.0,0.0,0.0,0.0,0.0,0.0,0.0,0.0,0.0,0.0,-3.7709,-3.8414,-3.8707,0.0,0.0,-3.8707,0.0,-3.8707,-3.8707,-3.8707,-3.8707,-3.8707,0.0,0.0,0.0,0.0,0.0,-3.8707,0.0,0.0,0.0,0.0,0.0,0.0,0.0,-4.0634,-4.1056,-4.1534,0.0,0.0,0.0,0.0,0.0,0.0,0.0,0.0,0.0,0.0,0.0,0.0,0.0,0.0,0.0,0.0,0.0,-4.8214,-4.8306,-4.8306,-4.8306,-4.8306,-4.8306,-4.8306,-4.8306,-4.8306,-4.8306,-4.8306,-4.8306,-4.8306,-4.8306,-4.8306,-4.8306,-4.8306,-4.8306,-4.8306,-4.8306,-4.8306,-4.8306,-4.8306,-4.8306,-4.8306,-4.8306,-4.8306,-4.8306,-4.8398,-4.9169,-4.9499,-4.9793,-2.8589,0.0,0.0,0.0,0.0,0.0,0.0,0.0,-3.1218,-3.1542,-3.1728,-3.1912,-3.2073,-3.2108,-3.2108,-3.2179,-3.2179,-3.2301,-3.257,-3.2621,-3.2848,-3.3327,-3.3404,-3.3502,-3.3726,-3.3815,-3.3868,-3.3868,0.0,0.0,0.0,0.0,0.0,0.0,0.0,0.0,0.0,0.0,0.0,-3.8571,-3.8737,0.0,-3.8762,-3.8719,-3.8707,-3.8707,-3.8707,-3.8707,-3.8707,0.0,-3.8707,-3.8707,0.0,0.0,0.0,0.0,0.0,0.0,0.0,0.0,0.0,0.0,0.0,0.0,-3.99,-4.0653,-4.1387,0.0,0.0,0.0,0.0,0.0,0.0,0.0,0.0,0.0,0.0,0.0,0.0,0.0,0.0,0.0,0.0,0.0,-4.7609,-4.8251,-4.8306,-4.8306,-4.8306,-4.8306,-4.8306,-4.8306,-4.8306,-4.8306,-4.8306,-4.8306,-4.8306,-4.8306,-4.8306,-4.8306,-4.8306,-4.8306,-4.8306,-4.8306,-4.8306,-4.8306,-4.8306,-4.8306,-4.8306,-4.8306,-4.8306,-4.8306,-4.8324,-4.8489,-4.8985,-4.9627,-2.8573,0.0,0.0,0.0,0.0,0.0,0.0,0.0,-3.1368,-3.1746,-3.1929,-3.2073,-3.2232,-3.2232,-3.2267,-3.2319,-3.2301,-3.2371,-3.2557,-3.2654,-3.3041,-3.3876,-3.4032,-3.4389,-3.5037,-3.5064,-3.5092,-3.5092,0.0,0.0,0.0,0.0,0.0,0.0,0.0,0.0,0.0,0.0,-3.8921,-3.8892,-3.8822,0.0,-3.875,-3.8689,-3.8707,-3.8707,-3.8707,-3.8707,-3.8707,-3.8707,-3.8707,0.0,0.0,-3.8707,-3.8707,0.0,-3.8707,-3.8707,0.0,0.0,0.0,-3.8707,0.0,0.0,0.0,-4.0524,-4.135,0.0,0.0,0.0,0.0,0.0,0.0,0.0,0.0,0.0,0.0,0.0,0.0,0.0,0.0,0.0,0.0,0.0,-4.7443,-4.8251,-4.8306,-4.8306,-4.8306,-4.8306,-4.8306,-4.8306,-4.8306,-4.8306,-4.8306,-4.8306,-4.8306,-4.8306,-4.8306,-4.8306,-4.8306,-4.8306,-4.8306,-4.8306,-4.8306,-4.8306,-4.8306,-4.8306,-4.8306,-4.8306,-4.8306,-4.8306,-4.8306,-4.8306,-4.8581,-4.9003,-2.8763,0.0,0.0,0.0,0.0,0.0,0.0,0.0,-3.1406,-3.1783,-3.1965,-3.2161,-3.2354,-3.2354,-3.2354,-3.2354,-3.2459,-3.2564,0.0,0.0,-3.3627,-3.4641,-3.4909,-3.5415,-3.6285,-3.6313,-3.6332,-3.6332,0.0,0.0,0.0,0.0,0.0,0.0,0.0,0.0,0.0,0.0,0.0,-3.895,0.0,-3.878,-3.8738,-3.8707,-3.8799,-3.8946,-3.9111,-3.9166,-3.9166,-3.9197,0.0,-3.9148,-3.9013,-3.9068,0.0,0.0,0.0,0.0,0.0,0.0,0.0,0.0,0.0,-3.8909,0.0,0.0,0.0,-4.2139,0.0,0.0,0.0,0.0,0.0,0.0,0.0,0.0,0.0,0.0,0.0,0.0,0.0,0.0,0.0,0.0,-4.7223,-4.8012,-4.8086,-4.8141,-4.8288,-4.8306,-4.8306,-4.8306,-4.8306,-4.8306,-4.8306,-4.8306,-4.8306,-4.8306,-4.8306,-4.8306,-4.8306,-4.8306,-4.8306,-4.8306,-4.8306,-4.8306,-4.8306,-4.8306,-4.8306,-4.8306,-4.8306,-4.8306,-4.8306,-4.8306,-4.8306,-4.8398,-2.9335,-2.9793,0.0,0.0,0.0,0.0,0.0,0.0,-3.1617,-3.1875,-3.202,-3.2108,0.0,0.0,0.0,0.0,0.0,0.0,-3.3764,0.0,-3.5202,-3.6051,-3.608,-3.6164,-3.6303,-3.636,-3.6398,-3.6398,0.0,0.0,0.0,0.0,0.0,0.0,-3.897,0.0,0.0,0.0,-3.8968,0.0,-3.8892,-3.8851,0.0,-3.8719,-3.9148,-3.9845,-4.0579,-4.0836,-4.0836,0.0,-4.0882,-4.074,0.0,-4.0357,0.0,0.0,0.0,0.0,0.0,0.0,0.0,0.0,-3.8707,0.0,0.0,0.0,-4.135,-4.2139,0.0,0.0,0.0,0.0,0.0,0.0,0.0,0.0,0.0,0.0,0.0,0.0,0.0,0.0,0.0,0.0,0.0,-4.7186,-4.7353,-4.7665,-4.8269,-4.8306,-4.8306,-4.8306,-4.8306,-4.8306,-4.8306,-4.8306,-4.8306,-4.8306,-4.8306,-4.8306,-4.8306,-4.8306,-4.8306,-4.8306,-4.8306,-4.8306,-4.8306,-4.8306,-4.8306,-4.8306,-4.8306,-4.8306,-4.8306,-4.8306,-4.8306,-4.8324,-2.9515,-2.9722,0.0,0.0,0.0,0.0,0.0,0.0,-3.1938,-3.2574,-3.2717,0.0,0.0,0.0,0.0,0.0,0.0,-3.3942,0.0,0.0,-3.5663,-3.676,0.0,0.0,-3.7808,-3.7837,-3.7837,-3.7837,-3.8284,0.0,0.0,0.0,0.0,0.0,-3.9036,0.0,-3.9036,0.0,0.0,0.0,0.0,0.0,0.0,-3.9417,-3.99,-4.0653,-4.0983,-4.1111,-4.1111,0.0,-4.1126,0.0,0.0,0.0,0.0,0.0,0.0,0.0,0.0,0.0,0.0,0.0,0.0,0.0,0.0,0.0,-4.1901,0.0,0.0,0.0,0.0,0.0,0.0,0.0,0.0,0.0,0.0,0.0,0.0,0.0,0.0,0.0,0.0,0.0,0.0,0.0,0.0,-4.7371,-4.759,-4.8067,-4.8306,-4.8306,-4.8306,-4.8306,-4.8306,-4.8306,-4.8306,-4.8306,-4.8306,-4.8306,-4.8306,-4.8306,-4.8306,-4.8306,-4.8306,-4.8306,-4.8306,-4.8306,-4.8306,-4.8306,-4.8306,-4.8306,-4.8306,-4.8306,-4.8306,-4.8306,-3.0157,0.0,0.0,0.0,0.0,0.0,0.0,0.0,0.0,0.0,0.0,0.0,-3.4581,-3.4559,0.0,0.0,0.0,-3.4536,0.0,0.0,-3.6213,-3.7229,-3.7741,0.0,0.0,-3.8803,-3.8881,-3.891,0.0,0.0,0.0,0.0,0.0,0.0,0.0,-3.8979,-3.8979,0.0,0.0,-3.925,-3.984,-4.0327,-4.067,-4.0575,-4.0928,-4.1479,-4.168,-4.1772,-4.1772,-4.1772,-4.1754,0.0,-4.153,0.0,0.0,0.0,0.0,0.0,-4.153,0.0,0.0,0.0,0.0,0.0,0.0,0.0,0.0,0.0,0.0,0.0,0.0,0.0,0.0,0.0,0.0,0.0,0.0,0.0,0.0,0.0,0.0,0.0,0.0,0.0,0.0,0.0,-4.6249,-4.6801,-4.7095,-4.7664,-4.8086,-4.8306,-4.8306,-4.8306,-4.8306,-4.8306,-4.8306,-4.8306,-4.8306,-4.8306,-4.8306,-4.8306,-4.8306,-4.8306,-4.8306,-4.8306,-4.8306,-4.8306,-4.8306,-4.8306,-4.8306,-4.8306,-4.8306,-4.8306,-4.8306,-4.8306,-3.1549,-3.1422,0.0,0.0,0.0,0.0,0.0,0.0,0.0,0.0,0.0,0.0,0.0,0.0,0.0,0.0,0.0,-3.4805,-3.5553,0.0,-3.7232,0.0,0.0,-3.846,0.0,0.0,0.0,0.0,0.0,0.0,0.0,0.0,0.0,0.0,0.0,-3.8979,-3.8997,-3.8921,-3.9294,-3.997,-3.9989,-4.0927,-4.2327,0.0,-4.2249,-4.2359,-4.313,0.0,0.0,-4.3508,-4.3474,0.0,0.0,0.0,0.0,0.0,0.0,0.0,0.0,0.0,0.0,-4.1538,0.0,0.0,0.0,0.0,-4.2525,0.0,0.0,0.0,0.0,0.0,-4.324,-4.247,0.0,0.0,0.0,0.0,0.0,0.0,0.0,0.0,0.0,0.0,0.0,-4.4794,-4.4973,-4.5657,-4.704,-4.7094,-4.7517,-4.8288,-4.8306,-4.8306,-4.8306,-4.8306,-4.8306,-4.8306,-4.8306,-4.8306,-4.8306,-4.8306,-4.8306,-4.8306,-4.8306,-4.8306,-4.8306,-4.8306,-4.8306,-4.8306,-4.8306,-4.8306,-4.8306,-4.8306,-4.8306,-4.8306,0.0,0.0,0.0,0.0,0.0,0.0,0.0,-3.3567,0.0,0.0,0.0,0.0,0.0,0.0,-3.6199,0.0,0.0,-3.7024,-3.7097,-3.7676,0.0,0.0,0.0,-3.8833,0.0,0.0,0.0,0.0,0.0,0.0,0.0,0.0,0.0,0.0,0.0,-3.8997,0.0,0.0,0.0,0.0,0.0,-4.2267,-4.3137,0.0,0.0,-4.318,-4.3422,-4.3497,0.0,-4.3532,-4.3513,-4.3477,-4.3235,-4.3327,-4.3442,-4.3201,-4.3311,0.0,0.0,0.0,-4.307,-4.2864,0.0,0.0,0.0,0.0,0.0,0.0,0.0,0.0,0.0,0.0,-4.3406,-4.313,-4.3314,-4.3387,0.0,0.0,0.0,0.0,0.0,0.0,0.0,0.0,0.0,-4.4002,-4.4518,-4.507,0.0,-4.6544,-4.7241,-4.7517,-4.8031,-4.8306,-4.8306,-4.8306,-4.8306,-4.8306,-4.8306,-4.8306,-4.8306,-4.8306,-4.8306,-4.8306,-4.8306,-4.8306,-4.8306,-4.8306,-4.8306,-4.8306,-4.8306,-4.8306,-4.8306,-4.8306,-4.8306,-4.8306,-3.3702,0.0,0.0,0.0,0.0,0.0,0.0,0.0,0.0,0.0,-3.5889,0.0,-3.7025,0.0,-3.7631,0.0,-3.7865,-3.81,-3.813,-3.8345,0.0,-3.8455,-3.888,0.0,0.0,0.0,0.0,0.0,0.0,-3.9045,0.0,0.0,0.0,0.0,0.0,0.0,0.0,0.0,-4.064,0.0,0.0,-4.3273,0.0,0.0,-4.3207,-4.3582,0.0,-4.3497,-4.3497,-4.3497,-4.3497,-4.3497,-4.3497,-4.3497,-4.3497,-4.3497,-4.3497,-4.3532,-4.3513,-4.3532,0.0,-4.36,-4.3566,0.0,-4.3532,0.0,0.0,0.0,0.0,0.0,0.0,0.0,-4.3497,-4.3497,-4.3497,-4.3497,0.0,-4.3497,0.0,0.0,0.0,0.0,0.0,0.0,-4.3818,-4.3667,-4.4147,-4.4536,0.0,0.0,-4.6526,-4.7095,-4.7609,-4.8012,-4.8306,-4.8306,-4.8306,-4.8306,-4.8306,-4.8306,-4.8306,-4.8306,-4.8306,-4.8306,-4.8306,-4.8306,-4.8306,-4.8306,-4.8306,-4.8306,-4.8306,-4.8306,-4.8306,-4.8306,-4.8306,-4.8306,0.0,0.0,0.0,0.0,-3.4083,0.0,0.0,0.0,-3.6474,0.0,-3.7517,-3.781,-3.8384,-3.8322,-3.8218,-3.8218,-3.8116,0.0,-3.8601,-3.8666,0.0,0.0,-3.9098,-3.9474,-3.9615,0.0,0.0,0.0,0.0,0.0,0.0,0.0,0.0,0.0,-3.9848,0.0,-4.0117,-4.1003,-4.1751,-4.2466,-4.3424,-4.3804,-4.3804,-4.3804,-4.3719,-4.3582,-4.3513,-4.3497,-4.3497,-4.3497,-4.3497,-4.3497,-4.3497,-4.3497,-4.3497,-4.3497,-4.3497,-4.3513,-4.3582,-4.3582,-4.3634,-4.3753,0.0,0.0,0.0,0.0,-4.3497,0.0,0.0,0.0,0.0,0.0,0.0,-4.3497,-4.3497,-4.3497,-4.3497,0.0,0.0,0.0,0.0,0.0,0.0,-4.3929,-4.3929,-4.3804,-4.3804,0.0,0.0,0.0,-4.5424,-4.7003,-4.7095,-4.7498,-4.8306,-4.8306,-4.8306,-4.8306,-4.8306,-4.8306,-4.8306,-4.8306,-4.8306,-4.8306,-4.8306,-4.8306,-4.8306,-4.8306,-4.8306,-4.8306,-4.8306,-4.8306,-4.8306,-4.8306,-4.8306,-4.8306,-3.52,-3.5307,-3.5267,0.0,-3.5199,-3.5334,0.0,0.0,0.0,0.0,-3.7432,-3.7857,-3.8044,-3.8523,-3.8798,-3.8798,-3.9257,0.0,0.0,0.0,0.0,-3.8929,-3.9247,-3.9694,-4.0184,-3.9552,0.0,-4.0092,0.0,0.0,-3.8939,0.0,0.0,0.0,0.0,0.0,-4.0946,-4.1756,-4.2566,-4.3306,-4.3646,-4.3804,0.0,0.0,-4.3634,-4.3582,-4.3513,-4.3497,-4.3497,-4.3497,-4.3497,-4.3497,-4.3497,-4.3497,-4.3497,-4.3497,-4.3497,-4.3479,-4.3513,-4.3532,-4.3513,-4.3566,-4.3566,-4.3532,0.0,0.0,0.0,0.0,0.0,0.0,0.0,0.0,0.0,-4.3497,-4.3497,-4.3497,0.0,0.0,0.0,0.0,0.0,0.0,-4.3804,-4.3837,-4.3786,-4.3667,-4.3753,0.0,0.0,0.0,0.0,-4.6177,-4.6801,-4.7498,-4.8306,-4.8306,-4.8306,-4.8306,-4.8306,-4.8306,-4.8306,-4.8306,-4.8306,-4.8306,-4.8306,-4.8306,-4.8306,-4.8306,-4.8306,-4.8306,-4.8306,-4.8306,-4.8306,-4.8306,-4.8306,-4.8306,-3.552,0.0,0.0,-3.5622,0.0,0.0,-3.6141,0.0,0.0,-3.7857,-3.8316,0.0,-3.8933,-3.9274,-3.9462,-3.9462,-3.9834,0.0,0.0,0.0,0.0,-4.0019,-4.0061,-4.0524,-4.1377,-4.0655,0.0,-4.0522,0.0,0.0,-3.8851,0.0,0.0,0.0,0.0,-4.1328,0.0,-4.2537,-4.3177,-4.3615,-4.3667,0.0,0.0,-4.3634,-4.3582,-4.3548,-4.3513,-4.3497,-4.3497,-4.3497,-4.3497,-4.3497,-4.3497,-4.3497,-4.3497,-4.3497,-4.3497,-4.3497,-4.3497,-4.3497,-4.3497,-4.3497,-4.3497,-4.3497,-4.3497,-4.3497,-4.3497,0.0,0.0,0.0,0.0,0.0,0.0,0.0,0.0,0.0,0.0,0.0,0.0,0.0,0.0,0.0,-4.3652,-4.3786,-4.3786,-4.3719,0.0,0.0,0.0,0.0,0.0,-4.5956,-4.6434,-4.7187,-4.8288,-4.8363,-4.8363,-4.8306,-4.8306,-4.8306,-4.8306,-4.8306,-4.8306,-4.8306,-4.8306,-4.8306,-4.8306,-4.8306,-4.8306,-4.8306,-4.8306,-4.8306,-4.8306,-4.8306,-4.8306,-4.8306,0.0,0.0,0.0,0.0,0.0,0.0,0.0,-3.7257,0.0,-3.9157,0.0,-3.9722,-4.0356,-4.0324,-4.0257,-4.0358,0.0,-4.0425,-4.0573,-4.0374,-4.0536,-4.1139,-4.092,-4.1313,-4.244,-4.1692,0.0,0.0,0.0,0.0,0.0,0.0,0.0,0.0,0.0,0.0,0.0,-4.322,-4.3566,0.0,-4.3582,-4.3582,-4.3582,-4.3582,-4.3621,-4.3644,-4.3644,-4.3589,-4.3497,-4.3497,-4.3497,-4.3497,-4.3497,-4.3497,-4.3497,-4.3497,-4.3497,-4.3497,-4.3497,-4.3497,-4.3497,-4.3497,-4.3497,-4.3497,-4.3497,-4.3497,-4.3497,-4.3497,-4.3497,-4.3497,0.0,0.0,0.0,0.0,0.0,0.0,0.0,0.0,0.0,0.0,0.0,0.0,0.0,-4.3734,0.0,0.0,0.0,0.0,0.0,0.0,0.0,-4.588,-4.6027,0.0,-4.8141,0.0,-4.8401,-4.8324,-4.8306,-4.8306,-4.8306,-4.8306,-4.8306,-4.8306,-4.8306,-4.8306,-4.8306,-4.8306,-4.8306,-4.8306,-4.8306,-4.8306,-4.8306,-4.8306,-4.8306,-4.8306,0.0,0.0,0.0,0.0,0.0,-3.7922,-3.8546,-3.8647,-3.8732,-3.9052,-3.9611,0.0,-4.0985,-4.1018,-4.1255,-4.1847,-4.1897,0.0,0.0,0.0,0.0,-4.032,-4.0254,-4.0546,-4.1223,-4.0905,-4.0935,0.0,0.0,0.0,0.0,0.0,0.0,0.0,0.0,0.0,-4.3296,-4.3493,0.0,-4.3582,-4.3582,-4.3582,-4.3582,-4.3548,-4.3901,-4.4488,-4.4488,-4.4066,-4.3497,-4.3497,-4.3497,-4.3497,-4.3497,-4.3497,-4.3497,-4.3497,-4.3497,-4.3497,-4.3497,-4.3497,-4.3497,-4.3497,-4.3497,-4.3497,-4.3497,-4.3497,-4.3497,-4.3497,-4.3497,-4.3497,-4.3497,0.0,0.0,0.0,0.0,0.0,0.0,0.0,0.0,0.0,0.0,0.0,0.0,0.0,0.0,0.0,0.0,0.0,0.0,0.0,0.0,0.0,-4.5607,0.0,0.0,0.0,-4.8363,-4.8457,-4.8363,-4.8306,-4.8306,-4.8306,-4.8306,-4.8306,-4.8306,-4.8306,-4.8306,-4.8306,-4.8306,-4.8306,-4.8306,-4.8306,-4.8306,-4.8306,-4.8306,-4.8306,0.0,0.0,0.0,0.0,0.0,0.0,0.0,-3.9884,0.0,-4.0239,-4.0527,-4.1036,-4.1799,-4.1831,-4.1914,-4.2252,-4.2286,-4.2151,-4.1779,-4.1762,-4.1579,-4.1165,-4.1131,0.0,-4.181,-4.1765,-4.1728,-4.1867,0.0,0.0,0.0,0.0,0.0,0.0,0.0,-4.313,0.0,0.0,0.0,-4.3566,-4.3566,-4.3805,-4.4156,-4.4121,-4.4617,-4.5333,-4.5333,-4.5076,-4.4727,-4.4727,-4.4727,-4.4727,-4.4727,-4.4727,-4.4727,-4.4727,-4.4727,-4.4727,-4.4727,-4.4433,-4.4121,-4.4121,-4.3809,-4.3497,-4.3497,-4.3497,-4.3497,-4.3497,-4.3497,-4.3497,-4.3497,-4.3497,0.0,0.0,0.0,0.0,0.0,0.0,0.0,0.0,0.0,0.0,0.0,0.0,0.0,0.0,0.0,0.0,0.0,0.0,0.0,0.0,0.0,0.0,0.0,0.0,0.0,-4.8419,-4.8306,-4.8306,-4.8306,-4.8306,-4.8306,-4.8306,-4.8306,-4.8306,-4.8306,-4.8306,-4.8306,-4.8306,-4.8306,-4.8306,-4.8306,-4.8306,-4.8306,-4.8306,0.0,-3.7976,0.0,0.0,-3.8971,0.0,-4.0426,-4.1052,-4.1476,-4.1579,-4.1579,-4.1868,-4.2615,-4.2594,-4.2591,-4.276,-4.2777,-4.2709,-4.254,-4.2523,-4.2396,-4.2167,-4.1977,-4.2056,-4.2365,-4.2351,-4.2291,0.0,0.0,0.0,0.0,0.0,0.0,0.0,0.0,0.0,0.0,0.0,-4.3497,-4.3497,-4.3681,-4.4121,-4.4727,-4.4892,-4.5461,-4.6159,-4.6159,-4.6269,-4.6416,-4.6416,-4.6177,-4.5902,-4.5902,-4.5902,-4.5902,-4.5902,-4.5902,-4.5902,-4.5902,-4.5443,-4.4966,-4.4966,-4.4488,-4.3993,-4.3993,-4.3864,-4.3754,-4.3754,-4.3608,-4.3497,-4.3497,-4.3497,0.0,0.0,0.0,0.0,0.0,0.0,0.0,0.0,0.0,0.0,0.0,0.0,0.0,0.0,0.0,0.0,0.0,0.0,0.0,0.0,0.0,-4.6341,-4.6893,0.0,-4.8419,0.0,-4.8306,-4.8306,-4.8306,-4.8306,-4.8306,-4.8306,-4.8306,-4.8306,-4.8306,-4.8306,-4.8306,-4.8306,-4.8306,-4.8306,-4.8306,-4.8306,-4.8306,-4.8306,0.0,0.0,0.0,0.0,0.0,0.0,0.0,-4.2151,-4.2185,-4.2185,-4.2238,-4.2472,-4.3234,-4.3301,-4.3589,-4.4299,-4.4367,-4.4062,-4.3352,-4.3318,-4.298,-4.2325,-4.1646,-4.1308,-4.1325,-4.1142,-4.1305,0.0,0.0,0.0,0.0,0.0,0.0,0.0,0.0,0.0,0.0,-4.3497,-4.3497,-4.3552,-4.4287,-4.4635,-4.4782,-4.5516,-4.6305,-4.7003,-4.7003,-4.748,-4.8086,-4.8086,-4.7113,-4.5902,-4.5902,-4.5902,-4.5902,-4.5902,-4.5902,-4.5902,-4.5902,-4.5847,-4.5792,-4.5792,-4.5736,-4.5681,-4.5681,-4.5112,-4.4599,-4.4599,-4.4011,-4.3497,-4.3497,-4.3497,-4.3497,0.0,0.0,0.0,0.0,0.0,0.0,0.0,0.0,0.0,0.0,0.0,0.0,0.0,0.0,0.0,0.0,0.0,0.0,-4.3692,0.0,-4.6155,-4.6262,-4.7629,-4.8363,-4.8457,-4.8363,-4.8306,-4.8306,-4.8306,-4.8306,-4.8306,-4.8306,-4.8306,-4.8306,-4.8306,-4.8306,-4.8306,-4.8306,-4.8306,-4.8306,-4.8306,-4.8306,-4.8306,0.0,0.0,0.0,0.0,0.0,0.0,0.0,-4.2963,-4.3132,-4.3606,-4.325,-4.3267,-4.4028,-4.4113,-4.4231,-4.4553,-4.4587,-4.4451,-4.413,-4.4113,-4.3775,-4.2997,-4.2692,-4.2462,-4.238,-4.1902,-4.1893,0.0,0.0,0.0,0.0,0.0,0.0,0.0,0.0,-4.3497,-4.3516,-4.4011,-4.4213,-4.4287,-4.5094,-4.5718,-4.6195,-4.6507,-4.7131,-4.7829,-4.7829,-4.8031,-4.8306,-4.8306,-4.7884,-4.7352,-4.7352,-4.7352,-4.7352,-4.7352,-4.7352,-4.7352,-4.7352,-4.7003,-4.6636,-4.6636,-4.6269,-4.5902,-4.5902,-4.5645,-4.5424,-4.5424,-4.4782,-4.4066,-4.3589,-4.3497,-4.3497,0.0,0.0,0.0,0.0,0.0,0.0,0.0,0.0,0.0,0.0,0.0,0.0,0.0,0.0,0.0,0.0,0.0,0.0,-4.3582,0.0,-4.6028,-4.6153,-4.7592,-4.8324,-4.8363,-4.8324,-4.8306,-4.8306,-4.8306,-4.8306,-4.8306,-4.8306,-4.8306,-4.8306,-4.8306,-4.8306,-4.8306,-4.8306,-4.8306,-4.8306,-4.8306,-4.8306,-4.8306,-4.1298,0.0,-4.2317,0.0,-4.2625,-4.2878,-4.3639,-4.3758,-4.3961,-4.4502,-4.4096,-4.3961,-4.4519,-4.4587,-4.4587,-4.4587,-4.4587,-4.4587,-4.4587,-4.4587,-4.4333,-4.3792,-4.3538,0.0,-4.3254,-4.2515,-4.2427,-4.2984,-4.2579,0.0,0.0,0.0,0.0,0.0,-4.3063,-4.3322,-4.3377,-4.4138,-4.4483,-4.4595,-4.5585,-4.6337,-4.6885,-4.7294,-4.7829,-4.8306,-4.8306,-4.8306,-4.8267,-4.8093,-4.8035,-4.8035,-4.8035,-4.8035,-4.7995,-4.7797,-4.7738,-4.7738,-4.7738,-4.7478,-4.7195,-4.7195,-4.689,-4.6617,-4.6617,-4.6416,-4.6195,-4.5957,-4.5259,-4.4544,-4.3956,-4.3644,-4.3497,-4.3497,0.0,0.0,0.0,0.0,0.0,0.0,0.0,-4.3497,-4.3497,0.0,0.0,0.0,0.0,0.0,0.0,0.0,0.0,0.0,0.0,0.0,0.0,-4.7665,-4.8306,-4.8306,-4.8306,-4.8306,-4.8306,-4.8306,-4.8306,-4.8306,-4.8306,-4.8306,-4.8306,-4.8306,-4.8306,-4.8306,-4.8306,-4.8306,-4.8306,-4.8306,-4.8306,-4.8306,-4.1909,-4.2088,-4.2378,-4.323,-4.3403,-4.3673,-4.4451,-4.457,-4.457,-4.4587,-4.457,-4.457,-4.4587,-4.4587,-4.4587,-4.4587,-4.4587,-4.4587,-4.4587,-4.4587,-4.4587,0.0,0.0,-4.342,-4.3403,-4.2658,-4.2603,-4.3192,0.0,0.0,-4.1707,0.0,-4.1043,-4.1828,-4.2589,-4.2926,-4.2979,-4.3713,-4.4004,-4.412,-4.5616,-4.6212,-4.6344,-4.7764,-4.8306,-4.8306,-4.8306,-4.8306,-4.821,-4.7614,-4.7385,-4.7385,-4.7385,-4.7385,-4.7281,-4.6618,-4.6413,-4.6413,-4.6413,-4.6892,-4.7428,-4.7428,-4.782,-4.8269,-4.8269,-4.7664,-4.6874,-4.6067,-4.5259,-4.4709,-4.469,-4.403,-4.3497,-4.3497,0.0,0.0,0.0,0.0,0.0,0.0,-4.3497,-4.3497,-4.3497,0.0,0.0,0.0,0.0,0.0,0.0,0.0,0.0,-4.4775,-4.5641,0.0,-4.7298,-4.7958,-4.8306,-4.8306,-4.8306,-4.8306,-4.8306,-4.8306,-4.8306,-4.8306,-4.8306,-4.8306,-4.8306,-4.8306,-4.8306,-4.8306,-4.8306,-4.8306,-4.8306,-4.8306,-4.8306,-4.8306,-4.1128,-4.215,-4.3007,-4.3281,-4.3826,-4.4282,-4.4536,-4.4587,-4.4587,-4.4587,-4.4587,-4.4587,-4.4587,-4.4587,-4.4587,0.0,-4.4587,-4.4587,0.0,-4.4587,-4.4587,-4.4587,-4.4333,-4.4215,-4.4215,-4.3453,-4.3155,-4.3352,0.0,0.0,0.0,-4.2826,-4.2843,-4.2783,-4.3364,-4.365,-4.3703,-4.4463,-4.4845,-4.4961,-4.6406,-4.6729,-4.6417,-4.7337,-4.7409,-4.6981,-4.6981,-4.6981,-4.6999,-4.6756,-4.671,-4.6664,-4.6257,-4.6401,-4.6664,-4.6478,-4.6383,-4.6383,-4.6383,-4.6571,-4.671,-4.671,-4.6847,-4.7132,-4.7572,-4.7795,-4.77,-4.6893,-4.6526,-4.6177,-4.5626,-4.4856,-4.4198,-4.3813,-4.3615,0.0,0.0,0.0,0.0,0.0,0.0,-4.3497,0.0,-4.3497,0.0,0.0,0.0,0.0,0.0,0.0,0.0,0.0,-4.5551,0.0,-4.7298,-4.7958,-4.8306,-4.8306,-4.8306,-4.8306,-4.8306,-4.8306,-4.8306,-4.8306,-4.8306,-4.8306,-4.8306,-4.8306,-4.8306,-4.8306,-4.8306,-4.8306,-4.8306,-4.8306,-4.8306,-4.8306,-4.1546,-4.2615,-4.3366,-4.3756,-4.4253,-4.4587,-4.4587,-4.4587,-4.4587,-4.4587,-4.4587,-4.4587,-4.4587,-4.4587,0.0,-4.4587,-4.4587,-4.4587,-4.4587,-4.4587,-4.4587,-4.4587,-4.4587,-4.4587,-4.4587,0.0,0.0,-4.3859,-4.3386,-4.2997,-4.2775,-4.3158,-4.3158,-4.2877,-4.3519,-4.3771,-4.3823,-4.4637,-4.4968,-4.5053,-4.6236,-4.6448,-4.6143,-4.6774,-4.6756,-4.6383,-4.6383,-4.6383,-4.6383,-4.6143,-4.6046,-4.5965,-4.5372,-4.5407,-4.5732,-4.5732,-4.5732,-4.5732,-4.5732,-4.5865,-4.6046,-4.6046,-4.624,-4.6524,-4.691,-4.7324,-4.7511,-4.7259,-4.6971,-4.6702,-4.6397,-4.57,-4.4894,-4.4038,-4.3777,-4.3396,-4.2613,0.0,0.0,0.0,0.0,0.0,0.0,-4.3087,0.0,0.0,0.0,0.0,0.0,0.0,0.0,-4.5184,-4.5956,0.0,-4.7665,-4.8105,-4.8306,-4.8306,-4.8306,-4.8306,-4.8306,-4.8306,-4.8306,-4.8306,-4.8306,-4.8306,-4.8306,-4.8306,-4.8306,-4.8306,-4.8306,-4.8306,-4.8306,-4.8306,-4.8306,-4.8306,-4.2785,-4.3169,0.0,0.0,-4.457,0.0,-4.4587,-4.4587,-4.4587,-4.4587,-4.4587,-4.4587,-4.4587,-4.4587,-4.4587,-4.4587,0.0,0.0,0.0,-4.4587,-4.4587,-4.4587,-4.4587,-4.4587,-4.4587,-4.4587,-4.4587,-4.4587,-4.3859,-4.3132,-4.2455,-4.2455,-4.2455,-4.2472,-4.3183,-4.3504,-4.3538,-4.4265,-4.4587,-4.4682,-4.5284,-4.5459,-4.5494,-4.6112,-4.6336,-4.6288,-4.6288,-4.6288,-4.6192,-4.5648,-4.5459,-4.532,-4.4776,-4.4587,-4.4587,-4.4587,-4.4587,-4.4587,-4.4587,-4.4998,-4.5459,-4.5459,-4.5865,-4.6336,-4.6336,-4.6383,-4.6571,-4.7194,-4.6722,-4.6385,-4.7016,-4.6451,-4.5478,-4.4195,-4.3992,-4.3606,-4.2376,0.0,0.0,0.0,0.0,0.0,0.0,-4.2302,-4.2691,0.0,0.0,0.0,0.0,0.0,-4.5223,-4.5957,-4.6728,-4.7498,-4.8306,-4.8306,-4.8306,-4.8306,-4.8306,-4.8306,-4.8306,-4.8306,-4.8306,-4.8306,-4.8306,-4.8306,-4.8306,-4.8306,-4.8306,-4.8306,-4.8306,-4.8306,-4.8306,-4.8306,-4.8306,-4.8306,0.0,0.0,-4.2583,-4.3426,-4.4138,-4.4587,-4.4587,-4.4587,-4.4587,-4.4587,-4.4587,-4.4587,-4.4587,-4.4587,-4.4587,-4.4587,-4.4587,-4.4587,-4.4587,-4.4587,-4.4587,-4.4587,-4.4587,-4.4587,-4.4587,-4.4587,-4.4587,-4.4587,-4.4401,-4.4215,-4.4045,-4.4045,-4.4045,-4.4045,-4.4231,-4.4316,-4.4316,-4.4502,-4.4587,-4.4682,-4.5284,-4.5232,-4.4852,-4.5459,-4.5407,-4.5052,-4.5052,-4.5052,-4.4998,-4.4852,-4.4814,-4.4759,-4.4626,-4.4587,-4.4587,-4.4587,-4.4587,-4.4587,-4.4587,-4.472,-4.4814,-4.4814,-4.5284,-4.5681,-4.5681,-4.6046,-4.643,-4.6618,-4.6475,-4.6534,-4.7199,-4.6649,-4.5869,-4.5124,-4.5024,-4.4417,-4.2599,-4.2739,0.0,0.0,-4.2015,-4.1853,-4.181,-4.1937,-4.2453,0.0,0.0,0.0,0.0,-4.6214,-4.6636,-4.6819,-4.7021,-4.7498,-4.8306,-4.8306,-4.8306,-4.8306,-4.8306,-4.8306,-4.8306,-4.8306,-4.8306,-4.8306,-4.8306,-4.8306,-4.8306,-4.8306,-4.8306,-4.8306,-4.8306,-4.8306,-4.8306,-4.8306,-4.8306,-4.8306,-4.0569,-4.1412,-4.2252,-4.3169,-4.4006,-4.4587,-4.4587,-4.4587,-4.4587,-4.4587,-4.4587,-4.4587,-4.4587,-4.4587,-4.4587,-4.4587,-4.4587,-4.4587,-4.4587,-4.4587,-4.4587,-4.4587,-4.4587,-4.4587,-4.4587,-4.4587,-4.4587,-4.4587,-4.4587,-4.4587,-4.4587,-4.4587,-4.4587,-4.4587,-4.4587,-4.4587,-4.4587,-4.4587,-4.4587,-4.4626,-4.4961,-4.4906,-4.4626,-4.4944,-4.4923,-4.4587,-4.4587,-4.4587,-4.4587,-4.4587,-4.4587,-4.4587,-4.4587,-4.4587,-4.4587,-4.4587,-4.4587,-4.4587,-4.4587,-4.4587,-4.4587,-4.4587,-4.4869,-4.5089,-4.5089,-4.532,-4.5648,-4.5915,-4.6014,-4.6192,-4.6801,-4.657,-4.598,-4.5052,-4.5007,-4.452,-4.277,-4.2934,0.0,-4.2468,-4.2323,-4.2166,-4.2025,-4.2306,-4.2756,-4.3536,0.0,0.0,-4.5963,-4.6436,-4.6809,-4.7075,-4.748,-4.7865,-4.8306,-4.8306,-4.8306,-4.8306,-4.8306,-4.8306,-4.8306,-4.8306,-4.8306,-4.8306,-4.8306,-4.8306,-4.8306,-4.8306,-4.8306,-4.8306,-4.8306,-4.8306,-4.8306,-4.8306,-4.8306,-4.8306,-4.0569,-4.128,-4.2125,-4.3108,-4.3931,-4.4457,-4.457,-4.4587,-4.4587,-4.4587,-4.4587,-4.4587,-4.4587,-4.4587,-4.4587,-4.4587,-4.4587,-4.4587,-4.4587,-4.4587,-4.4587,-4.4587,-4.4587,-4.4587,-4.4587,-4.4587,-4.4587,-4.4587,-4.4587,-4.4587,-4.4587,-4.4587,-4.4587,-4.4587,-4.4587,-4.4587,-4.4587,-4.4587,-4.4587,-4.4587,-4.4587,-4.4587,-4.4587,-4.4587,-4.4587,-4.4587,-4.4587,-4.4587,-4.4587,-4.4587,-4.4587,-4.4587,-4.4587,-4.4587,-4.4587,-4.4587,-4.4587,-4.4587,-4.4587,-4.4587,-4.4587,-4.4587,-4.4587,-4.4587,-4.4587,-4.4587,-4.4776,-4.5284,-4.5355,-4.5545,-4.6143,-4.6288,-4.5932,-4.4861,-4.4872,-4.4547,-4.3219,0.0,-4.3133,-4.2723,-4.2654,-4.255,-4.2339,-4.2757,-4.3145,-4.3366,-4.3798,-4.4688,0.0,-4.6308,-4.6635,-4.7126,-4.7919,-4.8306,-4.8306,-4.8306,-4.8306,-4.8306,-4.8306,-4.8306,-4.8306,-4.8306,-4.8306,-4.8306,-4.8306,-4.8306,-4.8306,-4.8306,-4.8306,-4.8306,-4.8306,-4.8306,-4.8306,-4.8306,-4.8306,-4.8306,-4.0569,-4.0811,-4.1412,-4.3047,-4.3426,-4.3756,-4.4514,-4.4587,-4.4587,-4.4587,-4.4587,-4.4587,-4.4587,-4.4587,-4.4587,-4.4587,-4.4587,-4.4587,-4.4587,-4.4587,-4.4587,-4.4587,-4.4587,-4.4587,-4.4587,-4.4587,-4.4587,-4.4587,-4.4587,-4.4587,-4.4587,-4.4587,-4.4587,-4.4587,-4.4587,-4.4587,-4.4587,-4.4587,-4.4587,-4.4587,-4.4587,-4.4587,-4.4587,-4.4587,-4.4587,-4.4587,-4.4587,-4.4587,-4.4587,-4.4587,-4.4587,-4.4587,-4.4587,-4.4587,-4.4587,-4.4587,-4.4587,-4.4587,-4.4587,-4.4587,-4.4587,-4.4587,-4.4587,-4.4587,-4.4587,-4.4587,-4.4626,-4.472,-4.472,-4.4906,-4.5511,-4.5648,-4.5748,-4.6033,-4.6099,-4.5708,-4.4614,0.0,-4.3752,-4.2791,-4.2498,-4.2339,-4.2286,-4.2375,-4.2928,-4.4125,-4.4277,-4.4918,-4.6312,-4.6926,-4.7247,-4.7349,-4.7962,-4.8306,-4.8306,-4.8306,-4.8306,-4.8306,-4.8306,-4.8306,-4.8306,-4.8306,-4.8306,-4.8306,-4.8306,-4.8306,-4.8306,-4.8306,-4.8306,-4.8306,-4.8306,-4.8306,-4.8306,-4.8306,-4.8306,-4.8306,-3.992,-4.0774,-4.1658,-4.2458,-4.3366,-4.4138,-4.4514,-4.4587,-4.4587,-4.4587,-4.4587,-4.4587,-4.4587,-4.4587,-4.4587,-4.4587,-4.4587,-4.4587,-4.4587,-4.4587,-4.4587,-4.4587,-4.4587,-4.4587,-4.4587,-4.4587,-4.4587,-4.4587,-4.4587,-4.4587,-4.4587,-4.4587,-4.4587,-4.4587,-4.4587,-4.4587,-4.4587,-4.4587,-4.4587,-4.4587,-4.4587,-4.4587,-4.4587,-4.4587,-4.4587,-4.4587,-4.4587,-4.4587,-4.4587,-4.4587,-4.4587,-4.4587,-4.4587,-4.4587,-4.4587,-4.4587,-4.4587,-4.4587,-4.4587,-4.4587,-4.4587,-4.4587,-4.4587,-4.4587,-4.4587,-4.4587,-4.4587,-4.4587,-4.4587,-4.4682,-4.4944,-4.4998,-4.5142,-4.5563,-4.5631,0.0,0.0,-4.475,-4.4436,-4.379,-4.363,-4.3521,-4.3521,-4.3521,-4.382,-4.4451,-4.4521,-4.5044,-4.6318,-4.671,-4.7194,-4.7838,-4.8153,-4.8306,-4.8306,-4.8306,-4.8306,-4.8306,-4.8306,-4.8306,-4.8306,-4.8306,-4.8306,-4.8306,-4.8306,-4.8306,-4.8306,-4.8306,-4.8306,-4.8306,-4.8306,-4.8306,-4.8306,-4.8306,-4.8306,-4.8306,-3.9424,-4.0447,-4.1478,-4.1674,-4.2953,-4.4064,-4.4253,-4.4457,-4.4587,-4.4587,-4.4587,-4.4587,-4.4587,-4.4587,-4.4587,-4.4587,-4.4587,-4.4587,-4.4587,-4.4587,-4.4587,-4.4587,-4.4587,-4.4587,-4.4587,-4.4587,-4.4587,-4.4587,-4.4587,-4.4587,-4.4587,-4.4587,-4.4587,-4.4587,-4.4587,-4.4587,-4.4587,-4.4587,-4.4587,-4.4587,-4.4587,-4.4587,-4.4587,-4.4587,-4.4587,-4.4587,-4.4587,-4.4587,-4.4587,-4.4587,-4.4587,-4.4587,-4.4587,-4.4587,-4.4587,-4.4587,-4.4587,-4.4587,-4.4587,-4.4587,-4.4587,-4.4587,-4.4587,-4.4587,-4.4587,-4.4587,-4.4587,-4.4587,-4.4587,-4.4587,-4.4587,-4.4587,-4.472,-4.5069,0.0,0.0,0.0,-4.5015,-4.4886,-4.4626,-4.4587,-4.4587,-4.4587,-4.4587,-4.4587,-4.4587,-4.4587,-4.4998,-4.5915,-4.624,-4.6981,-4.8267,-4.8306,-4.8306,-4.8306,-4.8306,-4.8306,-4.8306,-4.8306,-4.8306,-4.8306,-4.8306,-4.8306,-4.8306,-4.8306,-4.8306,-4.8306,-4.8306,-4.8306,-4.8306,-4.8306,-4.8306,-4.8306,-4.8306,-4.8306,-4.8306,-3.9424,-3.9481,-3.9879,-4.0622,-4.1593,-4.2442,-4.3306,-4.4064,-4.4587,-4.4587,-4.4587,-4.4587,-4.4587,-4.4587,-4.4587,-4.4587,-4.4587,-4.4587,-4.4587,-4.4587,-4.4587,-4.4587,-4.4587,-4.4587,-4.4587,-4.4587,-4.4587,-4.4587,-4.4587,-4.4587,-4.4587,-4.4587,-4.4587,-4.4587,-4.4587,-4.4587,-4.4587,-4.4587,-4.4587,-4.4587,-4.4587,-4.4587,-4.4587,-4.4587,-4.4587,-4.4587,-4.4587,-4.4587,-4.4587,-4.4587,-4.4587,-4.4587,-4.4587,-4.4587,-4.4587,-4.4587,-4.4587,-4.4587,-4.4587,-4.4587,-4.4587,-4.4587,-4.4587,-4.4587,-4.4587,-4.4587,-4.4587,-4.4587,-4.4587,-4.4587,-4.4587,-4.4587,-4.4759,-4.5372,0.0,0.0,-4.5425,-4.5213,-4.4886,-4.4626,-4.4587,-4.4587,-4.4587,-4.4587,-4.4587,-4.4587,-4.4587,-4.4626,-4.472,-4.5783,-4.6981,-4.8267,-4.8306,-4.8306,-4.8306,-4.8306,-4.8306,-4.8306,-4.8306,-4.8306,-4.8306,-4.8306,-4.8306,-4.8306,-4.8306,-4.8306,-4.8306,-4.8306,-4.8306,-4.8306,-4.8306,-4.8306,-4.8306,-4.8306,-4.8306,-4.8306,-3.9424,-3.9864,-4.0309,-4.0622,-4.1412,-4.2316,-4.3169,-4.3562,-4.4006,-4.4514,-4.4587,-4.4587,-4.4587,-4.4587,-4.4587,-4.4587,-4.4587,-4.4587,-4.4587,-4.4587,-4.4587,-4.4587,-4.4587,-4.4587,-4.4587,-4.4587,-4.4587,-4.4587,-4.4587,-4.4587,-4.4587,-4.4587,-4.4587,-4.4587,-4.4587,-4.4587,-4.4587,-4.4587,-4.4587,-4.4587,-4.4587,-4.4587,-4.4587,-4.4587,-4.4587,-4.4587,-4.4587,-4.4587,-4.4587,-4.4587,-4.4587,-4.4587,-4.4587,-4.4587,-4.4587,-4.4587,-4.4587,-4.4587,-4.4587,-4.4587,-4.4587,-4.4587,-4.4587,-4.4587,-4.4587,-4.4587,-4.4587,-4.4587,-4.4587,-4.4587,-4.4587,-4.4587,-4.472,-4.5106,0.0,-4.4869,-4.5159,-4.4923,-4.4737,-4.4626,-4.4587,-4.4587,-4.4587,-4.4587,-4.4587,-4.4587,-4.4587,-4.4759,-4.5142,-4.6353,-4.7409,-4.8267,-4.8306,-4.8306,-4.8306,-4.8306,-4.8306,-4.8306,-4.8306,-4.8306,-4.8306,-4.8306,-4.8306,-4.8306,-4.8306,-4.8306,-4.8306,-4.8306,-4.8306,-4.8306,-4.8306,-4.8306,-4.8306,-4.8306,-4.8306,-4.8306,-3.9424,-3.9864,-4.0309,-4.0309,-4.1013,-4.1804,-4.2395,-4.2986,-4.3502,-4.4121,-4.444,-4.4587,-4.4587,-4.4587,-4.4587,-4.4587,-4.4587,-4.4587,-4.4587,-4.4587,-4.4587,-4.4587,-4.4587,-4.4587,-4.4587,-4.4587,-4.4587,-4.4587,-4.4587,-4.4587,-4.4587,-4.4587,-4.4587,-4.4587,-4.4587,-4.4587,-4.4587,-4.4587,-4.4587,-4.4587,-4.4587,-4.4587,-4.4587,-4.4587,-4.4587,-4.4587,-4.4587,-4.4587,-4.4587,-4.4587,-4.4587,-4.4587,-4.4587,-4.4587,-4.4587,-4.4587,-4.4587,-4.4587,-4.4587,-4.4587,-4.4587,-4.4587,-4.4587,-4.4587,-4.4587,-4.4587,-4.4587,-4.4587,-4.4587,-4.4587,-4.4587,-4.4587,-4.4682,-4.4831,-4.4737,-4.4682,-4.4831,-4.4737,-4.4587,-4.4587,-4.4587,-4.4587,-4.4587,-4.4587,-4.4587,-4.4587,-4.4587,-4.4852,-4.5459,-4.6495,-4.7385,-4.7995,-4.821,-4.8306,-4.8306,-4.8306,-4.8306,-4.8306,-4.8306,-4.8306,-4.8306,-4.8306,-4.8306,-4.8306,-4.8306,-4.8306,-4.8306,-4.8306,-4.8306,-4.8306,-4.8306,-4.8306,-4.8306,-4.8306,-4.8306,-4.8306,-3.9424,-3.9424,-3.9424,-3.9424,-4.0115,-4.069,-4.069,-4.2189,-4.3306,-4.3306,-4.4064,-4.457,-4.4587,-4.4587,-4.4587,-4.4587,-4.4587,-4.4587,-4.4587,-4.4587,-4.4587,-4.4587,-4.4587,-4.4587,-4.4587,-4.4587,-4.4587,-4.4587,-4.4587,-4.4587,-4.4587,-4.4587,-4.4587,-4.4587,-4.4587,-4.4587,-4.4587,-4.4587,-4.4587,-4.4587,-4.4587,-4.4587,-4.4587,-4.4587,-4.4587,-4.4587,-4.4587,-4.4587,-4.4587,-4.4587,-4.4587,-4.4587,-4.4587,-4.4587,-4.4587,-4.4587,-4.4587,-4.4587,-4.4587,-4.4587,-4.4587,-4.4587,-4.4587,-4.4587,-4.4587,-4.4587,-4.4587,-4.4587,-4.4587,-4.4587,-4.4587,-4.4587,-4.4587,-4.4587,-4.4587,-4.4587,-4.4587,-4.4587,-4.4587,-4.4587,-4.4587,-4.4587,-4.4587,-4.4587,-4.4587,-4.4587,-4.4587,-4.4852,-4.5459,-4.6063,-4.671,-4.7385,-4.7977,-4.8306,-4.8306,-4.8306,-4.8306,-4.8306,-4.8306,-4.8306,-4.8306,-4.8306,-4.8306,-4.8306,-4.8306,-4.8306,-4.8306,-4.8306,-4.8306,-4.8306,-4.8306,-4.8306,-4.8306,-4.8306,-4.8306,-4.8306,-3.9424,-3.9424,-3.9424,-3.9424,-3.961,-3.999,-4.0622,-4.1147,-4.1933,-4.3108,-4.3502,-4.3931,-4.4514,-4.4587,-4.4587,-4.4587,-4.4587,-4.4587,-4.4587,-4.4587,-4.4587,-4.4587,-4.4587,-4.4587,-4.4587,-4.4587,-4.4587,-4.4587,-4.4587,-4.4587,-4.4587,-4.4587,-4.4587,-4.4587,-4.4587,-4.4587,-4.4587,-4.4587,-4.4587,-4.4587,-4.4587,-4.4587,-4.4587,-4.4587,-4.4587,-4.4587,-4.4587,-4.4587,-4.4587,-4.4587,-4.4587,-4.4587,-4.4587,-4.4587,-4.4587,-4.4587,-4.4587,-4.4587,-4.4587,-4.4587,-4.4587,-4.4587,-4.4587,-4.4587,-4.4587,-4.4587,-4.4587,-4.4587,-4.4587,-4.4587,-4.4587,-4.4587,-4.4587,-4.4587,-4.4587,-4.4587,-4.4587,-4.4587,-4.4587,-4.4587,-4.4587,-4.4587,-4.4587,-4.4587,-4.4587,-4.4587,-4.4587,-4.4852,-4.5459,-4.5699,-4.6257,-4.7385,-4.7572,-4.7897,-4.8306,-4.8306,-4.8306,-4.8306,-4.8306,-4.8306,-4.8306,-4.8306,-4.8306,-4.8306,-4.8306,-4.8306,-4.8306,-4.8306,-4.8306,-4.8306,-4.8306,-4.8306,-4.8306,-4.8306,-4.8306,-4.8306,-3.9424,-3.9424,-3.9424,-3.9424,-3.9424,-3.961,-4.0115,-4.05,-4.108,-4.2125,-4.2847,-4.3502,-4.4006,-4.4384,-4.4587,-4.4587,-4.4587,-4.4587,-4.4587,-4.4587,-4.4587,-4.4587,-4.4587,-4.4587,-4.4587,-4.4587,-4.4587,-4.4587,-4.4587,-4.4587,-4.4587,-4.4587,-4.4587,-4.4587,-4.4587,-4.4587,-4.4587,-4.4587,-4.4587,-4.4587,-4.4587,-4.4587,-4.4587,-4.4587,-4.4587,-4.4587,-4.4587,-4.4587,-4.4587,-4.4587,-4.4587,-4.4587,-4.4587,-4.4587,-4.4587,-4.4587,-4.4587,-4.4587,-4.4587,-4.4587,-4.4587,-4.4587,-4.4587,-4.4587,-4.4587,-4.4587,-4.4587,-4.4587,-4.4587,-4.4587,-4.4587,-4.4587,-4.4587,-4.4587,-4.4587,-4.4587,-4.4587,-4.4587,-4.4587,-4.4587,-4.4587,-4.4587,-4.4587,-4.4587,-4.4587,-4.4587,-4.4587,-4.4776,-4.5125,-4.5597,-4.6209,-4.6999,-4.747,-4.7937,-4.8306,-4.8306,-4.8306,-4.8306,-4.8306,-4.8306,-4.8306,-4.8306,-4.8306,-4.8306,-4.8306,-4.8306,-4.8306,-4.8306,-4.8306,-4.8306,-4.8306,-4.8306,-4.8306,-4.8306,-4.8306,-4.8306,-3.9424,-3.9424,-3.9424,-3.9424,-3.9424,-3.9424,-3.9424,-4.0045,-4.0622,-4.069,-4.2062,-4.3108,-4.3185,-4.3873,-4.4384,-4.4457,-4.4587,-4.4587,-4.4587,-4.4587,-4.4587,-4.4587,-4.4587,-4.4587,-4.4587,-4.4587,-4.4587,-4.4587,-4.4587,-4.4587,-4.4587,-4.4587,-4.4587,-4.4587,-4.4587,-4.4587,-4.4587,-4.4587,-4.4587,-4.4587,-4.4587,-4.4587,-4.4587,-4.4587,-4.4587,-4.4587,-4.4587,-4.4587,-4.4587,-4.4587,-4.4587,-4.4587,-4.4587,-4.4587,-4.4587,-4.4587,-4.4587,-4.4587,-4.4587,-4.4587,-4.4587,-4.4587,-4.4587,-4.4587,-4.4587,-4.4587,-4.4587,-4.4587,-4.4587,-4.4587,-4.4587,-4.4587,-4.4587,-4.4587,-4.4587,-4.4587,-4.4587,-4.4587,-4.4587,-4.4587,-4.4587,-4.4587,-4.4587,-4.4587,-4.4587,-4.4587,-4.4587,-4.4587,-4.4587,-4.5648,-4.6288,-4.6383,-4.7512,-4.8172,-4.8306,-4.8306,-4.8306,-4.8306,-4.8306,-4.8306,-4.8306,-4.8306,-4.8306,-4.8306,-4.8306,-4.8306,-4.8306,-4.8306,-4.8306,-4.8306,-4.8306,-4.8306,-4.8306,-4.8306,-4.8306,-4.8306,-3.9424,-3.9424,-3.9424,-3.9424,-3.9424,-3.9424,-3.9424,-3.9538,-3.9935,-4.0622,-4.1013,-4.1528,-4.2189,-4.2442,-4.2847,-4.3502,-4.4196,-4.4587,-4.4587,-4.4587,-4.4587,-4.4587,-4.4587,-4.4587,-4.4587,-4.4587,-4.4587,-4.4587,-4.4587,-4.4587,-4.4587,-4.4587,-4.4587,-4.4587,-4.4587,-4.4587,-4.4587,-4.4587,-4.4587,-4.4587,-4.4587,-4.4587,-4.4587,-4.4587,-4.4587,-4.4587,-4.4587,-4.4587,-4.4587,-4.4587,-4.4587,-4.4587,-4.4587,-4.4587,-4.4587,-4.4587,-4.4587,-4.4587,-4.4587,-4.4587,-4.4587,-4.4587,-4.4587,-4.4587,-4.4587,-4.4587,-4.4587,-4.4587,-4.4587,-4.4587,-4.4587,-4.4587,-4.4587,-4.4587,-4.4587,-4.4587,-4.4587,-4.4587,-4.4587,-4.4587,-4.4587,-4.4587,-4.4587,-4.4587,-4.4587,-4.4587,-4.4587,-4.4587,-4.4587,-4.4869,-4.5407,-4.6383,-4.6664,-4.7281,-4.8306,-4.8306,-4.8306,-4.8306,-4.8306,-4.8306,-4.8306,-4.8306,-4.8306,-4.8306,-4.8306,-4.8306,-4.8306,-4.8306,-4.8306,-4.8306,-4.8306,-4.8306,-4.8306,-4.8306,-4.8306,-4.8306,-3.9424,-3.9424,-3.9424,-3.9424,-3.9424,-3.9424,-3.9424,-3.9424,-3.9538,-4.006,-4.0432,-4.0878,-4.1346,-4.1723,-4.2316,-4.3246,-4.3697,-4.4138,-4.457,-4.4587,-4.4587,-4.4587,-4.4587,-4.4587,-4.4587,-4.4587,-4.4587,-4.4587,-4.4587,-4.4587,-4.4587,-4.4587,-4.4587,-4.4587,-4.4587,-4.4587,-4.4587,-4.4587,-4.4587,-4.4587,-4.4587,-4.4587,-4.4587,-4.4587,-4.4587,-4.4587,-4.4587,-4.4587,-4.4587,-4.4587,-4.4587,-4.4587,-4.4587,-4.4587,-4.4587,-4.4587,-4.4587,-4.4587,-4.4587,-4.4587,-4.4587,-4.4587,-4.4587,-4.4587,-4.4587,-4.4587,-4.4587,-4.4587,-4.4587,-4.4587,-4.4587,-4.4587,-4.4587,-4.4587,-4.4587,-4.4587,-4.4587,-4.4587,-4.4587,-4.4587,-4.4587,-4.4587,-4.4587,-4.4587,-4.4587,-4.4587,-4.4587,-4.4587,-4.4587,-4.4852,-4.532,-4.5965,-4.624,-4.6847,-4.7838,-4.7897,-4.8035,-4.8306,-4.8306,-4.8306,-4.8306,-4.8306,-4.8306,-4.8306,-4.8306,-4.8306,-4.8306,-4.8306,-4.8306,-4.8306,-4.8306,-4.8306,-4.8306,-4.8306,-4.8306,-4.8306,-3.9424,-3.9424,-3.9424,-3.9424,-3.9424,-3.9424,-3.9424,-3.9424,-3.9424,-3.9424,-4.006,-4.05,-4.05,-4.1412,-4.2252,-4.3031,-4.3366,-4.3814,-4.457,-4.4587,-4.4587,-4.4587,-4.4587,-4.4587,-4.4587,-4.4587,-4.4587,-4.4587,-4.4587,-4.4587,-4.4587,-4.4587,-4.4587,-4.4587,-4.4587,-4.4587,-4.4587,-4.4587,-4.4587,-4.4587,-4.4587,-4.4587,-4.4587,-4.4587,-4.4587,-4.4587,-4.4587,-4.4587,-4.4587,-4.4587,-4.4587,-4.4587,-4.4587,-4.4587,-4.4587,-4.4587,-4.4587,-4.4587,-4.4587,-4.4587,-4.4587,-4.4587,-4.4587,-4.4587,-4.4587,-4.4587,-4.4587,-4.4587,-4.4587,-4.4587,-4.4587,-4.4587,-4.4587,-4.4587,-4.4587,-4.4587,-4.4587,-4.4587,-4.4587,-4.4587,-4.4587,-4.4587,-4.4587,-4.4587,-4.4587,-4.4587,-4.4587,-4.4587,-4.4587,-4.5089,-4.5407,-4.5511,-4.5965,-4.6571,-4.7237,-4.7237,-4.753,-4.8172,-4.8172,-4.821,-4.8306,-4.8306,-4.8306,-4.8306,-4.8306,-4.8306,-4.8306,-4.8306,-4.8306,-4.8306,-4.8306,-4.8306,-4.8306,-4.8306,-4.8306,-4.8306,-3.9424,-3.9424,-3.9424,-3.9424,-3.9424,-3.9424,-3.9424,-3.9424,-3.9424,-3.9424,-3.9481,-3.961,-3.961,-4.1028,-4.2062,-4.2189,-4.3545,-4.444,-4.457,-4.4587,-4.4587,-4.4587,-4.4587,-4.4587,-4.4587,-4.4587,-4.4587,-4.4587,-4.4587,-4.4587,-4.4587,-4.4587,-4.4587,-4.4587,-4.4587,-4.4587,-4.4587,-4.4587,-4.4587,-4.4587,-4.4587,-4.4587,-4.4587,-4.4587,-4.4587,-4.4587,-4.4587,-4.4587,-4.4587,-4.4587,-4.4587,-4.4587,-4.4587,-4.4587,-4.4587,-4.4587,-4.4587,-4.4587,-4.4587,-4.4587,-4.4587,-4.4587,-4.4587,-4.4587,-4.4587,-4.4587,-4.4587,-4.4587,-4.4587,-4.4587,-4.4587,-4.4587,-4.4587,-4.4587,-4.4587,-4.4587,-4.4587,-4.4587,-4.4587,-4.4587,-4.4587,-4.4587,-4.4587,-4.4587,-4.4587,-4.4587,-4.4587,-4.4587,-4.4587,-4.4682,-4.4944,-4.5459,-4.5597,-4.5933,-4.6524,-4.6524,-4.6864,-4.753,-4.753,-4.7797,-4.8306,-4.8306,-4.8306,-4.8306,-4.8306,-4.8306,-4.8306,-4.8306,-4.8306,-4.8306,-4.8306,-4.8306,-4.8306,-4.8306,-4.8306,-4.8306,-3.9424,-3.9424,-3.9424,-3.9424,-3.9424,-3.9424,-3.9424,-3.9424,-3.9424,-3.9424,-3.9424,-3.9424,-3.9424,-4.05,-4.1478,-4.1933,-4.3169,-4.4064,-4.457,-4.4587,-4.4587,-4.4587,-4.4587,-4.4587,-4.4587,-4.4587,-4.4587,-4.4587,-4.4587,-4.4587,-4.4587,-4.4587,-4.4587,-4.4587,-4.4587,-4.4587,-4.4587,-4.4587,-4.4587,-4.4587,-4.4587,-4.4587,-4.4587,-4.4587,-4.4587,-4.4587,-4.4587,-4.4587,-4.4587,-4.4587,-4.4587,-4.4587,-4.4587,-4.4587,-4.4587,-4.4587,-4.4587,-4.4587,-4.4587,-4.4587,-4.4587,-4.4587,-4.4587,-4.4587,-4.4587,-4.4587,-4.4587,-4.4587,-4.4587,-4.4587,-4.4587,-4.4587,-4.4587,-4.4587,-4.4587,-4.4587,-4.4587,-4.4587,-4.4587,-4.4587,-4.4587,-4.4587,-4.4587,-4.4587,-4.4587,-4.4587,-4.4587,-4.4587,-4.4587,-4.4587,-4.472,-4.4998,-4.4998,-4.5267,-4.5865,-4.5915,-4.6209,-4.6864,-4.7237,-4.7715,-4.8306,-4.8306,-4.8306,-4.8306,-4.8306,-4.8306,-4.8306,-4.8306,-4.8306,-4.8306,-4.8306,-4.8306,-4.8306,-4.8306,-4.8306,-4.8306]}]]